<?xml version="1.0" encoding="UTF-8" standalone="no" ?>
<gpx xmlns="http://www.topografix.com/GPX/1/1" xmlns:xsi="http://www.w3.org/2001/XMLSchema-instance" xsi:schemaLocation="http://www.topografix.com/GPX/1/1 http://www.topografix.com/GPX/1/1/gpx.xsd" version="1.1" creator="VisuGPX - https://www.visugpx.com">
  <metadata>
    <name>[06/10/2016] Petit tour d'Evreux</name>
    <desc><![CDATA[33 km avec des passages improbables...]]></desc>
  </metadata>
  <trk>
    <name><![CDATA[[06/10/2016] Petit tour d'Evreux_1]]></name>
    <trkseg>
      <trkpt lat="49.00215" lon="1.13016">
        <ele>92.104935</ele>
        <time>2016-10-06T15:49:26Z</time>
      </trkpt>
      <trkpt lat="49.0022" lon="1.13028">
        <ele>100</ele>
        <time>2016-10-06T15:49:30Z</time>
      </trkpt>
      <trkpt lat="49.00234" lon="1.13051">
        <ele>112</ele>
        <time>2016-10-06T15:49:36Z</time>
      </trkpt>
      <trkpt lat="49.00246" lon="1.13056">
        <ele>117</ele>
        <time>2016-10-06T15:49:40Z</time>
      </trkpt>
      <trkpt lat="49.00261" lon="1.13053">
        <ele>122</ele>
        <time>2016-10-06T15:49:44Z</time>
      </trkpt>
      <trkpt lat="49.00273" lon="1.1305">
        <ele>125</ele>
        <time>2016-10-06T15:49:48Z</time>
      </trkpt>
      <trkpt lat="49.00283" lon="1.13053">
        <ele>128</ele>
        <time>2016-10-06T15:49:52Z</time>
      </trkpt>
      <trkpt lat="49.00297" lon="1.13055">
        <ele>130</ele>
        <time>2016-10-06T15:50:00Z</time>
      </trkpt>
      <trkpt lat="49.00303" lon="1.13069">
        <ele>132</ele>
        <time>2016-10-06T15:50:04Z</time>
      </trkpt>
      <trkpt lat="49.00308" lon="1.13088">
        <ele>132</ele>
        <time>2016-10-06T15:50:08Z</time>
      </trkpt>
      <trkpt lat="49.00316" lon="1.13114">
        <ele>133</ele>
        <time>2016-10-06T15:50:12Z</time>
      </trkpt>
      <trkpt lat="49.0033" lon="1.1316">
        <ele>134</ele>
        <time>2016-10-06T15:50:20Z</time>
      </trkpt>
      <trkpt lat="49.00341" lon="1.132">
        <ele>134</ele>
        <time>2016-10-06T15:50:26Z</time>
      </trkpt>
      <trkpt lat="49.00345" lon="1.1322">
        <ele>134</ele>
        <time>2016-10-06T15:50:30Z</time>
      </trkpt>
      <trkpt lat="49.00351" lon="1.13247">
        <ele>134</ele>
        <time>2016-10-06T15:50:34Z</time>
      </trkpt>
      <trkpt lat="49.0036" lon="1.13273">
        <ele>135</ele>
        <time>2016-10-06T15:50:38Z</time>
      </trkpt>
      <trkpt lat="49.00365" lon="1.13299">
        <ele>135</ele>
        <time>2016-10-06T15:50:42Z</time>
      </trkpt>
      <trkpt lat="49.0037" lon="1.13326">
        <ele>134</ele>
        <time>2016-10-06T15:50:46Z</time>
      </trkpt>
      <trkpt lat="49.00377" lon="1.13349">
        <ele>134</ele>
        <time>2016-10-06T15:50:50Z</time>
      </trkpt>
      <trkpt lat="49.00382" lon="1.13365">
        <ele>134</ele>
        <time>2016-10-06T15:50:54Z</time>
      </trkpt>
      <trkpt lat="49.00366" lon="1.13373">
        <ele>134</ele>
        <time>2016-10-06T15:51:02Z</time>
      </trkpt>
      <trkpt lat="49.00347" lon="1.13381">
        <ele>133</ele>
        <time>2016-10-06T15:51:06Z</time>
      </trkpt>
      <trkpt lat="49.00325" lon="1.13397">
        <ele>133</ele>
        <time>2016-10-06T15:51:12Z</time>
      </trkpt>
      <trkpt lat="49.00319" lon="1.13419">
        <ele>133</ele>
        <time>2016-10-06T15:51:16Z</time>
      </trkpt>
      <trkpt lat="49.00315" lon="1.1345">
        <ele>134</ele>
        <time>2016-10-06T15:51:20Z</time>
      </trkpt>
      <trkpt lat="49.00312" lon="1.13486">
        <ele>134</ele>
        <time>2016-10-06T15:51:24Z</time>
      </trkpt>
      <trkpt lat="49.00312" lon="1.13524">
        <ele>134</ele>
        <time>2016-10-06T15:51:28Z</time>
      </trkpt>
      <trkpt lat="49.00308" lon="1.13555">
        <ele>134</ele>
        <time>2016-10-06T15:51:32Z</time>
      </trkpt>
      <trkpt lat="49.00306" lon="1.13584">
        <ele>134</ele>
        <time>2016-10-06T15:51:36Z</time>
      </trkpt>
      <trkpt lat="49.00301" lon="1.13611">
        <ele>134</ele>
        <time>2016-10-06T15:51:40Z</time>
      </trkpt>
      <trkpt lat="49.00301" lon="1.13638">
        <ele>134</ele>
        <time>2016-10-06T15:51:44Z</time>
      </trkpt>
      <trkpt lat="49.00299" lon="1.13667">
        <ele>135</ele>
        <time>2016-10-06T15:51:48Z</time>
      </trkpt>
      <trkpt lat="49.00295" lon="1.13693">
        <ele>135</ele>
        <time>2016-10-06T15:51:52Z</time>
      </trkpt>
      <trkpt lat="49.00292" lon="1.13716">
        <ele>135</ele>
        <time>2016-10-06T15:51:56Z</time>
      </trkpt>
      <trkpt lat="49.0029" lon="1.13742">
        <ele>136</ele>
        <time>2016-10-06T15:52:00Z</time>
      </trkpt>
      <trkpt lat="49.00287" lon="1.13765">
        <ele>136</ele>
        <time>2016-10-06T15:52:04Z</time>
      </trkpt>
      <trkpt lat="49.00287" lon="1.13792">
        <ele>136</ele>
        <time>2016-10-06T15:52:08Z</time>
      </trkpt>
      <trkpt lat="49.00294" lon="1.13813">
        <ele>137</ele>
        <time>2016-10-06T15:52:12Z</time>
      </trkpt>
      <trkpt lat="49.00297" lon="1.13828">
        <ele>137</ele>
        <time>2016-10-06T15:52:16Z</time>
      </trkpt>
      <trkpt lat="49.00306" lon="1.13853">
        <ele>138</ele>
        <time>2016-10-06T15:52:20Z</time>
      </trkpt>
      <trkpt lat="49.00315" lon="1.13882">
        <ele>138</ele>
        <time>2016-10-06T15:52:24Z</time>
      </trkpt>
      <trkpt lat="49.00317" lon="1.13914">
        <ele>138</ele>
        <time>2016-10-06T15:52:28Z</time>
      </trkpt>
      <trkpt lat="49.00325" lon="1.1394">
        <ele>138</ele>
        <time>2016-10-06T15:52:32Z</time>
      </trkpt>
      <trkpt lat="49.00334" lon="1.13963">
        <ele>138</ele>
        <time>2016-10-06T15:52:36Z</time>
      </trkpt>
      <trkpt lat="49.00338" lon="1.13993">
        <ele>138</ele>
        <time>2016-10-06T15:52:40Z</time>
      </trkpt>
      <trkpt lat="49.00334" lon="1.14024">
        <ele>138</ele>
        <time>2016-10-06T15:52:44Z</time>
      </trkpt>
      <trkpt lat="49.00332" lon="1.14056">
        <ele>137</ele>
        <time>2016-10-06T15:52:48Z</time>
      </trkpt>
      <trkpt lat="49.0033" lon="1.14087">
        <ele>137</ele>
        <time>2016-10-06T15:52:52Z</time>
      </trkpt>
      <trkpt lat="49.00328" lon="1.1411">
        <ele>137.6</ele>
        <time>2016-10-06T15:52:55Z</time>
      </trkpt>
      <trkpt lat="49.00327" lon="1.14126">
        <ele>137.5</ele>
        <time>2016-10-06T15:52:57Z</time>
      </trkpt>
      <trkpt lat="49.00327" lon="1.14142">
        <ele>137.4</ele>
        <time>2016-10-06T15:52:59Z</time>
      </trkpt>
      <trkpt lat="49.00327" lon="1.14159">
        <ele>137.3</ele>
        <time>2016-10-06T15:53:01Z</time>
      </trkpt>
      <trkpt lat="49.00326" lon="1.14176">
        <ele>137.3</ele>
        <time>2016-10-06T15:53:03Z</time>
      </trkpt>
      <trkpt lat="49.00326" lon="1.14194">
        <ele>137.2</ele>
        <time>2016-10-06T15:53:05Z</time>
      </trkpt>
      <trkpt lat="49.00326" lon="1.14213">
        <ele>137.1</ele>
        <time>2016-10-06T15:53:07Z</time>
      </trkpt>
      <trkpt lat="49.00327" lon="1.14232">
        <ele>137</ele>
        <time>2016-10-06T15:53:09Z</time>
      </trkpt>
      <trkpt lat="49.00328" lon="1.1425">
        <ele>136.9</ele>
        <time>2016-10-06T15:53:11Z</time>
      </trkpt>
      <trkpt lat="49.00328" lon="1.14269">
        <ele>136.7</ele>
        <time>2016-10-06T15:53:13Z</time>
      </trkpt>
      <trkpt lat="49.00328" lon="1.14288">
        <ele>136.6</ele>
        <time>2016-10-06T15:53:15Z</time>
      </trkpt>
      <trkpt lat="49.00329" lon="1.14306">
        <ele>136.5</ele>
        <time>2016-10-06T15:53:17Z</time>
      </trkpt>
      <trkpt lat="49.00329" lon="1.14325">
        <ele>136.4</ele>
        <time>2016-10-06T15:53:19Z</time>
      </trkpt>
      <trkpt lat="49.00329" lon="1.14343">
        <ele>136.3</ele>
        <time>2016-10-06T15:53:21Z</time>
      </trkpt>
      <trkpt lat="49.00329" lon="1.14361">
        <ele>136.2</ele>
        <time>2016-10-06T15:53:23Z</time>
      </trkpt>
      <trkpt lat="49.00328" lon="1.14379">
        <ele>136.1</ele>
        <time>2016-10-06T15:53:25Z</time>
      </trkpt>
      <trkpt lat="49.00328" lon="1.14396">
        <ele>135.9</ele>
        <time>2016-10-06T15:53:27Z</time>
      </trkpt>
      <trkpt lat="49.00328" lon="1.14414">
        <ele>135.8</ele>
        <time>2016-10-06T15:53:29Z</time>
      </trkpt>
      <trkpt lat="49.00328" lon="1.14431">
        <ele>135.7</ele>
        <time>2016-10-06T15:53:31Z</time>
      </trkpt>
      <trkpt lat="49.00328" lon="1.14448">
        <ele>135.6</ele>
        <time>2016-10-06T15:53:33Z</time>
      </trkpt>
      <trkpt lat="49.00328" lon="1.14464">
        <ele>135.4</ele>
        <time>2016-10-06T15:53:35Z</time>
      </trkpt>
      <trkpt lat="49.00329" lon="1.14481">
        <ele>135.2</ele>
        <time>2016-10-06T15:53:37Z</time>
      </trkpt>
      <trkpt lat="49.00329" lon="1.14497">
        <ele>135.1</ele>
        <time>2016-10-06T15:53:39Z</time>
      </trkpt>
      <trkpt lat="49.00329" lon="1.14514">
        <ele>135</ele>
        <time>2016-10-06T15:53:41Z</time>
      </trkpt>
      <trkpt lat="49.00329" lon="1.14531">
        <ele>134.9</ele>
        <time>2016-10-06T15:53:43Z</time>
      </trkpt>
      <trkpt lat="49.0033" lon="1.14548">
        <ele>134.8</ele>
        <time>2016-10-06T15:53:45Z</time>
      </trkpt>
      <trkpt lat="49.00331" lon="1.14565">
        <ele>134.8</ele>
        <time>2016-10-06T15:53:47Z</time>
      </trkpt>
      <trkpt lat="49.00331" lon="1.14582">
        <ele>134.7</ele>
        <time>2016-10-06T15:53:49Z</time>
      </trkpt>
      <trkpt lat="49.00332" lon="1.14598">
        <ele>134.7</ele>
        <time>2016-10-06T15:53:51Z</time>
      </trkpt>
      <trkpt lat="49.00332" lon="1.14614">
        <ele>134.6</ele>
        <time>2016-10-06T15:53:53Z</time>
      </trkpt>
      <trkpt lat="49.00333" lon="1.1463">
        <ele>134.6</ele>
        <time>2016-10-06T15:53:55Z</time>
      </trkpt>
      <trkpt lat="49.00333" lon="1.14646">
        <ele>134.6</ele>
        <time>2016-10-06T15:53:57Z</time>
      </trkpt>
      <trkpt lat="49.00334" lon="1.14661">
        <ele>134.5</ele>
        <time>2016-10-06T15:53:59Z</time>
      </trkpt>
      <trkpt lat="49.00335" lon="1.14677">
        <ele>134.5</ele>
        <time>2016-10-06T15:54:01Z</time>
      </trkpt>
      <trkpt lat="49.00339" lon="1.1469">
        <ele>134.6</ele>
        <time>2016-10-06T15:54:03Z</time>
      </trkpt>
      <trkpt lat="49.00345" lon="1.14701">
        <ele>134.7</ele>
        <time>2016-10-06T15:54:05Z</time>
      </trkpt>
      <trkpt lat="49.00352" lon="1.14711">
        <ele>134.8</ele>
        <time>2016-10-06T15:54:07Z</time>
      </trkpt>
      <trkpt lat="49.00359" lon="1.14721">
        <ele>134.9</ele>
        <time>2016-10-06T15:54:09Z</time>
      </trkpt>
      <trkpt lat="49.00368" lon="1.14727">
        <ele>135</ele>
        <time>2016-10-06T15:54:11Z</time>
      </trkpt>
      <trkpt lat="49.00379" lon="1.14721">
        <ele>135.2</ele>
        <time>2016-10-06T15:54:14Z</time>
      </trkpt>
      <trkpt lat="49.0039" lon="1.1471">
        <ele>135.3</ele>
        <time>2016-10-06T15:54:17Z</time>
      </trkpt>
      <trkpt lat="49.00401" lon="1.14702">
        <ele>135.4</ele>
        <time>2016-10-06T15:54:20Z</time>
      </trkpt>
      <trkpt lat="49.00413" lon="1.14693">
        <ele>135.4</ele>
        <time>2016-10-06T15:54:23Z</time>
      </trkpt>
      <trkpt lat="49.00423" lon="1.14692">
        <ele>135.5</ele>
        <time>2016-10-06T15:54:27Z</time>
      </trkpt>
      <trkpt lat="49.00434" lon="1.14696">
        <ele>135.5</ele>
        <time>2016-10-06T15:54:31Z</time>
      </trkpt>
      <trkpt lat="49.00443" lon="1.14704">
        <ele>135.6</ele>
        <time>2016-10-06T15:54:34Z</time>
      </trkpt>
      <trkpt lat="49.00454" lon="1.14711">
        <ele>135.6</ele>
        <time>2016-10-06T15:54:37Z</time>
      </trkpt>
      <trkpt lat="49.00464" lon="1.14714">
        <ele>135.6</ele>
        <time>2016-10-06T15:54:40Z</time>
      </trkpt>
      <trkpt lat="49.00475" lon="1.14703">
        <ele>135.6</ele>
        <time>2016-10-06T15:54:43Z</time>
      </trkpt>
      <trkpt lat="49.00483" lon="1.14691">
        <ele>135.6</ele>
        <time>2016-10-06T15:54:45Z</time>
      </trkpt>
      <trkpt lat="49.00491" lon="1.1468">
        <ele>135.6</ele>
        <time>2016-10-06T15:54:47Z</time>
      </trkpt>
      <trkpt lat="49.00498" lon="1.14669">
        <ele>135.6</ele>
        <time>2016-10-06T15:54:49Z</time>
      </trkpt>
      <trkpt lat="49.00509" lon="1.14665">
        <ele>135.6</ele>
        <time>2016-10-06T15:54:52Z</time>
      </trkpt>
      <trkpt lat="49.00518" lon="1.14659">
        <ele>135.6</ele>
        <time>2016-10-06T15:54:55Z</time>
      </trkpt>
      <trkpt lat="49.00528" lon="1.14658">
        <ele>135.5</ele>
        <time>2016-10-06T15:54:58Z</time>
      </trkpt>
      <trkpt lat="49.00523" lon="1.14673">
        <ele>136.1</ele>
        <time>2016-10-06T15:55:16Z</time>
      </trkpt>
      <trkpt lat="49.00512" lon="1.14682">
        <ele>136.3</ele>
        <time>2016-10-06T15:55:21Z</time>
      </trkpt>
      <trkpt lat="49.00501" lon="1.14695">
        <ele>136.5</ele>
        <time>2016-10-06T15:55:26Z</time>
      </trkpt>
      <trkpt lat="49.00493" lon="1.14704">
        <ele>136.8</ele>
        <time>2016-10-06T15:55:29Z</time>
      </trkpt>
      <trkpt lat="49.0048" lon="1.14719">
        <ele>137.2</ele>
        <time>2016-10-06T15:55:34Z</time>
      </trkpt>
      <trkpt lat="49.0047" lon="1.14733">
        <ele>137.5</ele>
        <time>2016-10-06T15:55:39Z</time>
      </trkpt>
      <trkpt lat="49.00459" lon="1.14743">
        <ele>137.7</ele>
        <time>2016-10-06T15:55:43Z</time>
      </trkpt>
      <trkpt lat="49.00444" lon="1.14759">
        <ele>137.9</ele>
        <time>2016-10-06T15:55:48Z</time>
      </trkpt>
      <trkpt lat="49.00437" lon="1.14768">
        <ele>138.1</ele>
        <time>2016-10-06T15:55:51Z</time>
      </trkpt>
      <trkpt lat="49.00427" lon="1.1478">
        <ele>138.3</ele>
        <time>2016-10-06T15:55:55Z</time>
      </trkpt>
      <trkpt lat="49.00418" lon="1.14791">
        <ele>138.5</ele>
        <time>2016-10-06T15:55:58Z</time>
      </trkpt>
      <trkpt lat="49.0041" lon="1.14802">
        <ele>138.8</ele>
        <time>2016-10-06T15:56:01Z</time>
      </trkpt>
      <trkpt lat="49.00403" lon="1.14813">
        <ele>139</ele>
        <time>2016-10-06T15:56:05Z</time>
      </trkpt>
      <trkpt lat="49.00395" lon="1.1482">
        <ele>139.6</ele>
        <time>2016-10-06T15:56:09Z</time>
      </trkpt>
      <trkpt lat="49.00392" lon="1.14835">
        <ele>139.7</ele>
        <time>2016-10-06T15:56:13Z</time>
      </trkpt>
      <trkpt lat="49.00385" lon="1.14844">
        <ele>139.5</ele>
        <time>2016-10-06T15:56:16Z</time>
      </trkpt>
      <trkpt lat="49.00374" lon="1.1485">
        <ele>139.3</ele>
        <time>2016-10-06T15:56:19Z</time>
      </trkpt>
      <trkpt lat="49.00366" lon="1.14865">
        <ele>139.1</ele>
        <time>2016-10-06T15:56:22Z</time>
      </trkpt>
      <trkpt lat="49.00363" lon="1.14878">
        <ele>139</ele>
        <time>2016-10-06T15:56:24Z</time>
      </trkpt>
      <trkpt lat="49.00365" lon="1.14897">
        <ele>138.9</ele>
        <time>2016-10-06T15:56:27Z</time>
      </trkpt>
      <trkpt lat="49.00373" lon="1.14912">
        <ele>138.9</ele>
        <time>2016-10-06T15:56:30Z</time>
      </trkpt>
      <trkpt lat="49.00374" lon="1.14931">
        <ele>138.9</ele>
        <time>2016-10-06T15:56:33Z</time>
      </trkpt>
      <trkpt lat="49.00368" lon="1.1495">
        <ele>139</ele>
        <time>2016-10-06T15:56:36Z</time>
      </trkpt>
      <trkpt lat="49.00367" lon="1.14971">
        <ele>139.1</ele>
        <time>2016-10-06T15:56:39Z</time>
      </trkpt>
      <trkpt lat="49.00368" lon="1.14985">
        <ele>139.2</ele>
        <time>2016-10-06T15:56:41Z</time>
      </trkpt>
      <trkpt lat="49.00369" lon="1.14999">
        <ele>139.3</ele>
        <time>2016-10-06T15:56:43Z</time>
      </trkpt>
      <trkpt lat="49.0037" lon="1.15013">
        <ele>139.4</ele>
        <time>2016-10-06T15:56:45Z</time>
      </trkpt>
      <trkpt lat="49.00372" lon="1.15034">
        <ele>139.5</ele>
        <time>2016-10-06T15:56:48Z</time>
      </trkpt>
      <trkpt lat="49.00375" lon="1.15047">
        <ele>139.6</ele>
        <time>2016-10-06T15:56:50Z</time>
      </trkpt>
      <trkpt lat="49.00378" lon="1.15061">
        <ele>139.7</ele>
        <time>2016-10-06T15:56:52Z</time>
      </trkpt>
      <trkpt lat="49.0038" lon="1.15075">
        <ele>139.8</ele>
        <time>2016-10-06T15:56:54Z</time>
      </trkpt>
      <trkpt lat="49.00381" lon="1.15089">
        <ele>140</ele>
        <time>2016-10-06T15:56:56Z</time>
      </trkpt>
      <trkpt lat="49.00378" lon="1.15108">
        <ele>140.1</ele>
        <time>2016-10-06T15:56:59Z</time>
      </trkpt>
      <trkpt lat="49.00382" lon="1.15123">
        <ele>140.3</ele>
        <time>2016-10-06T15:57:02Z</time>
      </trkpt>
      <trkpt lat="49.00394" lon="1.15127">
        <ele>140.6</ele>
        <time>2016-10-06T15:57:05Z</time>
      </trkpt>
      <trkpt lat="49.00403" lon="1.15127">
        <ele>140.8</ele>
        <time>2016-10-06T15:57:07Z</time>
      </trkpt>
      <trkpt lat="49.00414" lon="1.15128">
        <ele>140.9</ele>
        <time>2016-10-06T15:57:09Z</time>
      </trkpt>
      <trkpt lat="49.00423" lon="1.15128">
        <ele>141.1</ele>
        <time>2016-10-06T15:57:11Z</time>
      </trkpt>
      <trkpt lat="49.00434" lon="1.15129">
        <ele>141.4</ele>
        <time>2016-10-06T15:57:14Z</time>
      </trkpt>
      <trkpt lat="49.00443" lon="1.1514">
        <ele>141.7</ele>
        <time>2016-10-06T15:57:22Z</time>
      </trkpt>
      <trkpt lat="49.00455" lon="1.1514">
        <ele>141.8</ele>
        <time>2016-10-06T15:57:25Z</time>
      </trkpt>
      <trkpt lat="49.00465" lon="1.15136">
        <ele>141.9</ele>
        <time>2016-10-06T15:57:27Z</time>
      </trkpt>
      <trkpt lat="49.00475" lon="1.15133">
        <ele>141.9</ele>
        <time>2016-10-06T15:57:29Z</time>
      </trkpt>
      <trkpt lat="49.00486" lon="1.1513">
        <ele>142</ele>
        <time>2016-10-06T15:57:31Z</time>
      </trkpt>
      <trkpt lat="49.00495" lon="1.15128">
        <ele>142</ele>
        <time>2016-10-06T15:57:33Z</time>
      </trkpt>
      <trkpt lat="49.00506" lon="1.15135">
        <ele>142.1</ele>
        <time>2016-10-06T15:57:36Z</time>
      </trkpt>
      <trkpt lat="49.0051" lon="1.15151">
        <ele>142.1</ele>
        <time>2016-10-06T15:57:39Z</time>
      </trkpt>
      <trkpt lat="49.00511" lon="1.15165">
        <ele>142.1</ele>
        <time>2016-10-06T15:57:42Z</time>
      </trkpt>
      <trkpt lat="49.00501" lon="1.15172">
        <ele>142.1</ele>
        <time>2016-10-06T15:57:45Z</time>
      </trkpt>
      <trkpt lat="49.00492" lon="1.15171">
        <ele>142.1</ele>
        <time>2016-10-06T15:57:48Z</time>
      </trkpt>
      <trkpt lat="49.00479" lon="1.15167">
        <ele>142.1</ele>
        <time>2016-10-06T15:57:52Z</time>
      </trkpt>
      <trkpt lat="49.00468" lon="1.15162">
        <ele>142.1</ele>
        <time>2016-10-06T15:57:55Z</time>
      </trkpt>
      <trkpt lat="49.00454" lon="1.15164">
        <ele>142.1</ele>
        <time>2016-10-06T15:57:58Z</time>
      </trkpt>
      <trkpt lat="49.00446" lon="1.1517">
        <ele>142.1</ele>
        <time>2016-10-06T15:58:00Z</time>
      </trkpt>
      <trkpt lat="49.00437" lon="1.15176">
        <ele>142.1</ele>
        <time>2016-10-06T15:58:02Z</time>
      </trkpt>
      <trkpt lat="49.00428" lon="1.15183">
        <ele>142.2</ele>
        <time>2016-10-06T15:58:04Z</time>
      </trkpt>
      <trkpt lat="49.00419" lon="1.1519">
        <ele>142.3</ele>
        <time>2016-10-06T15:58:06Z</time>
      </trkpt>
      <trkpt lat="49.0041" lon="1.15198">
        <ele>142.4</ele>
        <time>2016-10-06T15:58:08Z</time>
      </trkpt>
      <trkpt lat="49.00402" lon="1.15206">
        <ele>142.4</ele>
        <time>2016-10-06T15:58:10Z</time>
      </trkpt>
      <trkpt lat="49.00394" lon="1.15214">
        <ele>142.5</ele>
        <time>2016-10-06T15:58:12Z</time>
      </trkpt>
      <trkpt lat="49.00387" lon="1.15224">
        <ele>142.5</ele>
        <time>2016-10-06T15:58:14Z</time>
      </trkpt>
      <trkpt lat="49.00381" lon="1.15236">
        <ele>142.6</ele>
        <time>2016-10-06T15:58:17Z</time>
      </trkpt>
      <trkpt lat="49.00377" lon="1.15251">
        <ele>142.7</ele>
        <time>2016-10-06T15:58:20Z</time>
      </trkpt>
      <trkpt lat="49.00376" lon="1.15265">
        <ele>142.7</ele>
        <time>2016-10-06T15:58:22Z</time>
      </trkpt>
      <trkpt lat="49.00376" lon="1.15284">
        <ele>142.8</ele>
        <time>2016-10-06T15:58:25Z</time>
      </trkpt>
      <trkpt lat="49.00378" lon="1.15298">
        <ele>142.8</ele>
        <time>2016-10-06T15:58:27Z</time>
      </trkpt>
      <trkpt lat="49.0038" lon="1.15312">
        <ele>142.9</ele>
        <time>2016-10-06T15:58:29Z</time>
      </trkpt>
      <trkpt lat="49.00382" lon="1.15326">
        <ele>142.9</ele>
        <time>2016-10-06T15:58:31Z</time>
      </trkpt>
      <trkpt lat="49.00384" lon="1.15341">
        <ele>143</ele>
        <time>2016-10-06T15:58:33Z</time>
      </trkpt>
      <trkpt lat="49.00388" lon="1.15354">
        <ele>143</ele>
        <time>2016-10-06T15:58:35Z</time>
      </trkpt>
      <trkpt lat="49.0039" lon="1.15367">
        <ele>143.1</ele>
        <time>2016-10-06T15:58:38Z</time>
      </trkpt>
      <trkpt lat="49.0039" lon="1.15387">
        <ele>143.1</ele>
        <time>2016-10-06T15:58:41Z</time>
      </trkpt>
      <trkpt lat="49.00392" lon="1.154">
        <ele>143.2</ele>
        <time>2016-10-06T15:58:43Z</time>
      </trkpt>
      <trkpt lat="49.00392" lon="1.15414">
        <ele>143.3</ele>
        <time>2016-10-06T15:58:45Z</time>
      </trkpt>
      <trkpt lat="49.00393" lon="1.15429">
        <ele>143.3</ele>
        <time>2016-10-06T15:58:47Z</time>
      </trkpt>
      <trkpt lat="49.00396" lon="1.15443">
        <ele>143.4</ele>
        <time>2016-10-06T15:58:49Z</time>
      </trkpt>
      <trkpt lat="49.00398" lon="1.15463">
        <ele>143.5</ele>
        <time>2016-10-06T15:58:52Z</time>
      </trkpt>
      <trkpt lat="49.004" lon="1.15477">
        <ele>143.5</ele>
        <time>2016-10-06T15:58:54Z</time>
      </trkpt>
      <trkpt lat="49.00404" lon="1.15492">
        <ele>143.6</ele>
        <time>2016-10-06T15:58:56Z</time>
      </trkpt>
      <trkpt lat="49.0041" lon="1.15507">
        <ele>143.7</ele>
        <time>2016-10-06T15:58:58Z</time>
      </trkpt>
      <trkpt lat="49.00414" lon="1.15523">
        <ele>143.8</ele>
        <time>2016-10-06T15:59:00Z</time>
      </trkpt>
      <trkpt lat="49.00419" lon="1.1554">
        <ele>143.9</ele>
        <time>2016-10-06T15:59:02Z</time>
      </trkpt>
      <trkpt lat="49.00423" lon="1.15555">
        <ele>144</ele>
        <time>2016-10-06T15:59:04Z</time>
      </trkpt>
      <trkpt lat="49.00426" lon="1.15571">
        <ele>144</ele>
        <time>2016-10-06T15:59:06Z</time>
      </trkpt>
      <trkpt lat="49.00429" lon="1.15585">
        <ele>144</ele>
        <time>2016-10-06T15:59:08Z</time>
      </trkpt>
      <trkpt lat="49.00433" lon="1.15599">
        <ele>143.9</ele>
        <time>2016-10-06T15:59:10Z</time>
      </trkpt>
      <trkpt lat="49.00436" lon="1.15614">
        <ele>143.8</ele>
        <time>2016-10-06T15:59:12Z</time>
      </trkpt>
      <trkpt lat="49.00439" lon="1.15628">
        <ele>143.8</ele>
        <time>2016-10-06T15:59:14Z</time>
      </trkpt>
      <trkpt lat="49.00443" lon="1.15647">
        <ele>143.6</ele>
        <time>2016-10-06T15:59:17Z</time>
      </trkpt>
      <trkpt lat="49.00449" lon="1.15664">
        <ele>143.6</ele>
        <time>2016-10-06T15:59:20Z</time>
      </trkpt>
      <trkpt lat="49.00453" lon="1.15676">
        <ele>143.5</ele>
        <time>2016-10-06T15:59:23Z</time>
      </trkpt>
      <trkpt lat="49.00465" lon="1.1567">
        <ele>143.4</ele>
        <time>2016-10-06T15:59:27Z</time>
      </trkpt>
      <trkpt lat="49.00478" lon="1.15663">
        <ele>143.3</ele>
        <time>2016-10-06T15:59:30Z</time>
      </trkpt>
      <trkpt lat="49.0049" lon="1.15655">
        <ele>143.3</ele>
        <time>2016-10-06T15:59:33Z</time>
      </trkpt>
      <trkpt lat="49.00501" lon="1.15648">
        <ele>143.3</ele>
        <time>2016-10-06T15:59:36Z</time>
      </trkpt>
      <trkpt lat="49.00514" lon="1.15641">
        <ele>143.1</ele>
        <time>2016-10-06T15:59:39Z</time>
      </trkpt>
      <trkpt lat="49.00523" lon="1.15636">
        <ele>143.1</ele>
        <time>2016-10-06T15:59:41Z</time>
      </trkpt>
      <trkpt lat="49.00532" lon="1.15633">
        <ele>143</ele>
        <time>2016-10-06T15:59:43Z</time>
      </trkpt>
      <trkpt lat="49.00543" lon="1.15634">
        <ele>142.9</ele>
        <time>2016-10-06T15:59:46Z</time>
      </trkpt>
      <trkpt lat="49.00553" lon="1.15628">
        <ele>142.7</ele>
        <time>2016-10-06T15:59:50Z</time>
      </trkpt>
      <trkpt lat="49.00562" lon="1.15619">
        <ele>142.6</ele>
        <time>2016-10-06T15:59:53Z</time>
      </trkpt>
      <trkpt lat="49.00571" lon="1.15613">
        <ele>142.5</ele>
        <time>2016-10-06T15:59:55Z</time>
      </trkpt>
      <trkpt lat="49.00581" lon="1.15609">
        <ele>142.3</ele>
        <time>2016-10-06T15:59:57Z</time>
      </trkpt>
      <trkpt lat="49.00592" lon="1.15607">
        <ele>142.1</ele>
        <time>2016-10-06T15:59:59Z</time>
      </trkpt>
      <trkpt lat="49.00602" lon="1.15603">
        <ele>142</ele>
        <time>2016-10-06T16:00:01Z</time>
      </trkpt>
      <trkpt lat="49.00611" lon="1.15596">
        <ele>141.8</ele>
        <time>2016-10-06T16:00:03Z</time>
      </trkpt>
      <trkpt lat="49.0062" lon="1.1559">
        <ele>141.7</ele>
        <time>2016-10-06T16:00:05Z</time>
      </trkpt>
      <trkpt lat="49.00627" lon="1.15581">
        <ele>141.6</ele>
        <time>2016-10-06T16:00:07Z</time>
      </trkpt>
      <trkpt lat="49.00636" lon="1.15576">
        <ele>141.5</ele>
        <time>2016-10-06T16:00:09Z</time>
      </trkpt>
      <trkpt lat="49.00645" lon="1.15579">
        <ele>141.4</ele>
        <time>2016-10-06T16:00:11Z</time>
      </trkpt>
      <trkpt lat="49.00652" lon="1.15597">
        <ele>141.2</ele>
        <time>2016-10-06T16:00:14Z</time>
      </trkpt>
      <trkpt lat="49.00655" lon="1.15611">
        <ele>141</ele>
        <time>2016-10-06T16:00:16Z</time>
      </trkpt>
      <trkpt lat="49.00659" lon="1.15625">
        <ele>140.9</ele>
        <time>2016-10-06T16:00:18Z</time>
      </trkpt>
      <trkpt lat="49.00662" lon="1.15639">
        <ele>140.9</ele>
        <time>2016-10-06T16:00:20Z</time>
      </trkpt>
      <trkpt lat="49.00666" lon="1.15653">
        <ele>140.8</ele>
        <time>2016-10-06T16:00:22Z</time>
      </trkpt>
      <trkpt lat="49.0067" lon="1.15666">
        <ele>140.7</ele>
        <time>2016-10-06T16:00:24Z</time>
      </trkpt>
      <trkpt lat="49.00676" lon="1.15678">
        <ele>140.6</ele>
        <time>2016-10-06T16:00:28Z</time>
      </trkpt>
      <trkpt lat="49.0068" lon="1.15692">
        <ele>140.6</ele>
        <time>2016-10-06T16:00:31Z</time>
      </trkpt>
      <trkpt lat="49.00686" lon="1.15707">
        <ele>140.6</ele>
        <time>2016-10-06T16:00:34Z</time>
      </trkpt>
      <trkpt lat="49.00698" lon="1.15704">
        <ele>140.6</ele>
        <time>2016-10-06T16:00:37Z</time>
      </trkpt>
      <trkpt lat="49.00707" lon="1.15698">
        <ele>140.5</ele>
        <time>2016-10-06T16:00:39Z</time>
      </trkpt>
      <trkpt lat="49.00717" lon="1.15701">
        <ele>140.5</ele>
        <time>2016-10-06T16:00:41Z</time>
      </trkpt>
      <trkpt lat="49.00725" lon="1.15713">
        <ele>140.5</ele>
        <time>2016-10-06T16:00:44Z</time>
      </trkpt>
      <trkpt lat="49.00733" lon="1.15727">
        <ele>140.5</ele>
        <time>2016-10-06T16:00:47Z</time>
      </trkpt>
      <trkpt lat="49.00745" lon="1.15735">
        <ele>140.5</ele>
        <time>2016-10-06T16:00:50Z</time>
      </trkpt>
      <trkpt lat="49.00753" lon="1.15742">
        <ele>140.5</ele>
        <time>2016-10-06T16:00:52Z</time>
      </trkpt>
      <trkpt lat="49.00758" lon="1.15759">
        <ele>140.5</ele>
        <time>2016-10-06T16:00:55Z</time>
      </trkpt>
      <trkpt lat="49.00756" lon="1.15777">
        <ele>140.5</ele>
        <time>2016-10-06T16:00:58Z</time>
      </trkpt>
      <trkpt lat="49.00758" lon="1.15796">
        <ele>140.3</ele>
        <time>2016-10-06T16:01:01Z</time>
      </trkpt>
      <trkpt lat="49.00764" lon="1.15814">
        <ele>140.2</ele>
        <time>2016-10-06T16:01:04Z</time>
      </trkpt>
      <trkpt lat="49.00768" lon="1.15827">
        <ele>140.1</ele>
        <time>2016-10-06T16:01:06Z</time>
      </trkpt>
      <trkpt lat="49.00772" lon="1.15846">
        <ele>140.1</ele>
        <time>2016-10-06T16:01:09Z</time>
      </trkpt>
      <trkpt lat="49.00771" lon="1.15866">
        <ele>140</ele>
        <time>2016-10-06T16:01:12Z</time>
      </trkpt>
      <trkpt lat="49.00769" lon="1.15886">
        <ele>140</ele>
        <time>2016-10-06T16:01:15Z</time>
      </trkpt>
      <trkpt lat="49.00774" lon="1.15903">
        <ele>140</ele>
        <time>2016-10-06T16:01:18Z</time>
      </trkpt>
      <trkpt lat="49.00769" lon="1.15915">
        <ele>140.1</ele>
        <time>2016-10-06T16:01:21Z</time>
      </trkpt>
      <trkpt lat="49.00762" lon="1.15926">
        <ele>140.1</ele>
        <time>2016-10-06T16:01:25Z</time>
      </trkpt>
      <trkpt lat="49.00765" lon="1.15942">
        <ele>140.2</ele>
        <time>2016-10-06T16:01:28Z</time>
      </trkpt>
      <trkpt lat="49.0077" lon="1.15958">
        <ele>140.3</ele>
        <time>2016-10-06T16:01:31Z</time>
      </trkpt>
      <trkpt lat="49.00775" lon="1.15979">
        <ele>140</ele>
        <time>2016-10-06T16:01:34Z</time>
      </trkpt>
      <trkpt lat="49.00779" lon="1.16001">
        <ele>140.5</ele>
        <time>2016-10-06T16:01:37Z</time>
      </trkpt>
      <trkpt lat="49.00779" lon="1.16017">
        <ele>140.6</ele>
        <time>2016-10-06T16:01:39Z</time>
      </trkpt>
      <trkpt lat="49.00774" lon="1.16032">
        <ele>140.6</ele>
        <time>2016-10-06T16:01:41Z</time>
      </trkpt>
      <trkpt lat="49.0077" lon="1.16046">
        <ele>140.7</ele>
        <time>2016-10-06T16:01:43Z</time>
      </trkpt>
      <trkpt lat="49.00761" lon="1.16062">
        <ele>140.7</ele>
        <time>2016-10-06T16:01:46Z</time>
      </trkpt>
      <trkpt lat="49.00756" lon="1.16074">
        <ele>140.7</ele>
        <time>2016-10-06T16:01:48Z</time>
      </trkpt>
      <trkpt lat="49.0075" lon="1.16086">
        <ele>140.8</ele>
        <time>2016-10-06T16:01:50Z</time>
      </trkpt>
      <trkpt lat="49.00743" lon="1.16097">
        <ele>140.9</ele>
        <time>2016-10-06T16:01:52Z</time>
      </trkpt>
      <trkpt lat="49.00739" lon="1.16112">
        <ele>141.1</ele>
        <time>2016-10-06T16:01:54Z</time>
      </trkpt>
      <trkpt lat="49.00735" lon="1.16128">
        <ele>141.2</ele>
        <time>2016-10-06T16:01:56Z</time>
      </trkpt>
      <trkpt lat="49.00731" lon="1.16143">
        <ele>141.3</ele>
        <time>2016-10-06T16:01:58Z</time>
      </trkpt>
      <trkpt lat="49.0073" lon="1.16158">
        <ele>141.4</ele>
        <time>2016-10-06T16:02:00Z</time>
      </trkpt>
      <trkpt lat="49.00726" lon="1.16171">
        <ele>141.4</ele>
        <time>2016-10-06T16:02:02Z</time>
      </trkpt>
      <trkpt lat="49.00718" lon="1.16177">
        <ele>141.5</ele>
        <time>2016-10-06T16:02:04Z</time>
      </trkpt>
      <trkpt lat="49.00709" lon="1.16182">
        <ele>141.6</ele>
        <time>2016-10-06T16:02:06Z</time>
      </trkpt>
      <trkpt lat="49.00699" lon="1.16187">
        <ele>141.6</ele>
        <time>2016-10-06T16:02:08Z</time>
      </trkpt>
      <trkpt lat="49.00689" lon="1.16196">
        <ele>141.7</ele>
        <time>2016-10-06T16:02:10Z</time>
      </trkpt>
      <trkpt lat="49.0068" lon="1.16202">
        <ele>141.7</ele>
        <time>2016-10-06T16:02:12Z</time>
      </trkpt>
      <trkpt lat="49.00671" lon="1.16209">
        <ele>141.8</ele>
        <time>2016-10-06T16:02:14Z</time>
      </trkpt>
      <trkpt lat="49.00661" lon="1.16215">
        <ele>141.8</ele>
        <time>2016-10-06T16:02:16Z</time>
      </trkpt>
      <trkpt lat="49.00651" lon="1.16214">
        <ele>141.8</ele>
        <time>2016-10-06T16:02:18Z</time>
      </trkpt>
      <trkpt lat="49.00646" lon="1.16202">
        <ele>141.8</ele>
        <time>2016-10-06T16:02:20Z</time>
      </trkpt>
      <trkpt lat="49.00642" lon="1.16188">
        <ele>141.9</ele>
        <time>2016-10-06T16:02:22Z</time>
      </trkpt>
      <trkpt lat="49.00633" lon="1.16191">
        <ele>141.9</ele>
        <time>2016-10-06T16:02:25Z</time>
      </trkpt>
      <trkpt lat="49.00627" lon="1.1618">
        <ele>143</ele>
        <time>2016-10-06T16:02:34Z</time>
      </trkpt>
      <trkpt lat="49.00616" lon="1.16189">
        <ele>143.9</ele>
        <time>2016-10-06T16:02:37Z</time>
      </trkpt>
      <trkpt lat="49.00608" lon="1.16196">
        <ele>144.5</ele>
        <time>2016-10-06T16:02:39Z</time>
      </trkpt>
      <trkpt lat="49.00601" lon="1.16212">
        <ele>145.2</ele>
        <time>2016-10-06T16:02:42Z</time>
      </trkpt>
      <trkpt lat="49.00607" lon="1.16222">
        <ele>145.6</ele>
        <time>2016-10-06T16:02:45Z</time>
      </trkpt>
      <trkpt lat="49.00599" lon="1.16231">
        <ele>145.3</ele>
        <time>2016-10-06T16:02:52Z</time>
      </trkpt>
      <trkpt lat="49.00594" lon="1.16244">
        <ele>145.1</ele>
        <time>2016-10-06T16:02:54Z</time>
      </trkpt>
      <trkpt lat="49.00588" lon="1.16257">
        <ele>144.9</ele>
        <time>2016-10-06T16:02:56Z</time>
      </trkpt>
      <trkpt lat="49.0058" lon="1.16264">
        <ele>144.7</ele>
        <time>2016-10-06T16:02:58Z</time>
      </trkpt>
      <trkpt lat="49.00569" lon="1.16278">
        <ele>144.4</ele>
        <time>2016-10-06T16:03:01Z</time>
      </trkpt>
      <trkpt lat="49.00568" lon="1.16292">
        <ele>144.3</ele>
        <time>2016-10-06T16:03:03Z</time>
      </trkpt>
      <trkpt lat="49.00569" lon="1.16307">
        <ele>144.1</ele>
        <time>2016-10-06T16:03:05Z</time>
      </trkpt>
      <trkpt lat="49.00567" lon="1.16321">
        <ele>144</ele>
        <time>2016-10-06T16:03:07Z</time>
      </trkpt>
      <trkpt lat="49.00566" lon="1.16342">
        <ele>143.9</ele>
        <time>2016-10-06T16:03:10Z</time>
      </trkpt>
      <trkpt lat="49.00567" lon="1.16357">
        <ele>143.8</ele>
        <time>2016-10-06T16:03:12Z</time>
      </trkpt>
      <trkpt lat="49.00568" lon="1.16373">
        <ele>143.7</ele>
        <time>2016-10-06T16:03:14Z</time>
      </trkpt>
      <trkpt lat="49.0057" lon="1.16389">
        <ele>143.6</ele>
        <time>2016-10-06T16:03:16Z</time>
      </trkpt>
      <trkpt lat="49.00573" lon="1.16405">
        <ele>143.6</ele>
        <time>2016-10-06T16:03:18Z</time>
      </trkpt>
      <trkpt lat="49.00575" lon="1.1642">
        <ele>143.5</ele>
        <time>2016-10-06T16:03:20Z</time>
      </trkpt>
      <trkpt lat="49.00577" lon="1.16436">
        <ele>143.5</ele>
        <time>2016-10-06T16:03:22Z</time>
      </trkpt>
      <trkpt lat="49.00581" lon="1.16451">
        <ele>143.4</ele>
        <time>2016-10-06T16:03:24Z</time>
      </trkpt>
      <trkpt lat="49.00585" lon="1.16466">
        <ele>143.4</ele>
        <time>2016-10-06T16:03:26Z</time>
      </trkpt>
      <trkpt lat="49.00587" lon="1.16481">
        <ele>143.3</ele>
        <time>2016-10-06T16:03:28Z</time>
      </trkpt>
      <trkpt lat="49.00588" lon="1.16497">
        <ele>143.3</ele>
        <time>2016-10-06T16:03:30Z</time>
      </trkpt>
      <trkpt lat="49.0059" lon="1.16513">
        <ele>143.3</ele>
        <time>2016-10-06T16:03:32Z</time>
      </trkpt>
      <trkpt lat="49.00592" lon="1.16528">
        <ele>143.3</ele>
        <time>2016-10-06T16:03:34Z</time>
      </trkpt>
      <trkpt lat="49.0059" lon="1.16542">
        <ele>143.1</ele>
        <time>2016-10-06T16:03:37Z</time>
      </trkpt>
      <trkpt lat="49.00582" lon="1.16548">
        <ele>143</ele>
        <time>2016-10-06T16:03:40Z</time>
      </trkpt>
      <trkpt lat="49.00573" lon="1.16557">
        <ele>142.9</ele>
        <time>2016-10-06T16:03:44Z</time>
      </trkpt>
      <trkpt lat="49.00564" lon="1.16564">
        <ele>142.8</ele>
        <time>2016-10-06T16:03:47Z</time>
      </trkpt>
      <trkpt lat="49.00555" lon="1.16571">
        <ele>142.8</ele>
        <time>2016-10-06T16:03:50Z</time>
      </trkpt>
      <trkpt lat="49.00544" lon="1.1658">
        <ele>142.7</ele>
        <time>2016-10-06T16:03:53Z</time>
      </trkpt>
      <trkpt lat="49.00534" lon="1.16588">
        <ele>142.7</ele>
        <time>2016-10-06T16:03:56Z</time>
      </trkpt>
      <trkpt lat="49.00523" lon="1.16598">
        <ele>142.7</ele>
        <time>2016-10-06T16:03:59Z</time>
      </trkpt>
      <trkpt lat="49.00513" lon="1.16606">
        <ele>142.6</ele>
        <time>2016-10-06T16:04:02Z</time>
      </trkpt>
      <trkpt lat="49.00502" lon="1.16611">
        <ele>142.6</ele>
        <time>2016-10-06T16:04:05Z</time>
      </trkpt>
      <trkpt lat="49.0049" lon="1.16613">
        <ele>142.5</ele>
        <time>2016-10-06T16:04:08Z</time>
      </trkpt>
      <trkpt lat="49.00478" lon="1.16616">
        <ele>142.4</ele>
        <time>2016-10-06T16:04:11Z</time>
      </trkpt>
      <trkpt lat="49.00469" lon="1.16618">
        <ele>142.3</ele>
        <time>2016-10-06T16:04:13Z</time>
      </trkpt>
      <trkpt lat="49.00459" lon="1.1662">
        <ele>142.3</ele>
        <time>2016-10-06T16:04:15Z</time>
      </trkpt>
      <trkpt lat="49.00449" lon="1.16622">
        <ele>142.3</ele>
        <time>2016-10-06T16:04:17Z</time>
      </trkpt>
      <trkpt lat="49.00439" lon="1.16625">
        <ele>142.2</ele>
        <time>2016-10-06T16:04:19Z</time>
      </trkpt>
      <trkpt lat="49.00428" lon="1.16628">
        <ele>142.2</ele>
        <time>2016-10-06T16:04:21Z</time>
      </trkpt>
      <trkpt lat="49.00417" lon="1.16632">
        <ele>142.2</ele>
        <time>2016-10-06T16:04:23Z</time>
      </trkpt>
      <trkpt lat="49.00407" lon="1.16635">
        <ele>142.2</ele>
        <time>2016-10-06T16:04:25Z</time>
      </trkpt>
      <trkpt lat="49.00396" lon="1.16639">
        <ele>142.2</ele>
        <time>2016-10-06T16:04:27Z</time>
      </trkpt>
      <trkpt lat="49.00385" lon="1.16644">
        <ele>142.1</ele>
        <time>2016-10-06T16:04:29Z</time>
      </trkpt>
      <trkpt lat="49.00375" lon="1.16649">
        <ele>142.1</ele>
        <time>2016-10-06T16:04:31Z</time>
      </trkpt>
      <trkpt lat="49.00364" lon="1.16654">
        <ele>142.1</ele>
        <time>2016-10-06T16:04:33Z</time>
      </trkpt>
      <trkpt lat="49.00354" lon="1.16659">
        <ele>142.1</ele>
        <time>2016-10-06T16:04:35Z</time>
      </trkpt>
      <trkpt lat="49.00343" lon="1.16665">
        <ele>142.1</ele>
        <time>2016-10-06T16:04:37Z</time>
      </trkpt>
      <trkpt lat="49.00332" lon="1.16671">
        <ele>142.1</ele>
        <time>2016-10-06T16:04:39Z</time>
      </trkpt>
      <trkpt lat="49.00322" lon="1.16677">
        <ele>142.1</ele>
        <time>2016-10-06T16:04:41Z</time>
      </trkpt>
      <trkpt lat="49.00311" lon="1.16682">
        <ele>142.1</ele>
        <time>2016-10-06T16:04:43Z</time>
      </trkpt>
      <trkpt lat="49.003" lon="1.16687">
        <ele>142.1</ele>
        <time>2016-10-06T16:04:45Z</time>
      </trkpt>
      <trkpt lat="49.00289" lon="1.16692">
        <ele>142.1</ele>
        <time>2016-10-06T16:04:47Z</time>
      </trkpt>
      <trkpt lat="49.00278" lon="1.16697">
        <ele>142.1</ele>
        <time>2016-10-06T16:04:49Z</time>
      </trkpt>
      <trkpt lat="49.00268" lon="1.16702">
        <ele>142.1</ele>
        <time>2016-10-06T16:04:51Z</time>
      </trkpt>
      <trkpt lat="49.00256" lon="1.16707">
        <ele>142.1</ele>
        <time>2016-10-06T16:04:53Z</time>
      </trkpt>
      <trkpt lat="49.00246" lon="1.16712">
        <ele>142</ele>
        <time>2016-10-06T16:04:55Z</time>
      </trkpt>
      <trkpt lat="49.00235" lon="1.16717">
        <ele>142</ele>
        <time>2016-10-06T16:04:57Z</time>
      </trkpt>
      <trkpt lat="49.00223" lon="1.16722">
        <ele>142</ele>
        <time>2016-10-06T16:04:59Z</time>
      </trkpt>
      <trkpt lat="49.00212" lon="1.16727">
        <ele>142</ele>
        <time>2016-10-06T16:05:01Z</time>
      </trkpt>
      <trkpt lat="49.002" lon="1.16732">
        <ele>142</ele>
        <time>2016-10-06T16:05:03Z</time>
      </trkpt>
      <trkpt lat="49.00189" lon="1.16737">
        <ele>142</ele>
        <time>2016-10-06T16:05:05Z</time>
      </trkpt>
      <trkpt lat="49.00178" lon="1.16742">
        <ele>141.9</ele>
        <time>2016-10-06T16:05:07Z</time>
      </trkpt>
      <trkpt lat="49.00167" lon="1.16747">
        <ele>141.9</ele>
        <time>2016-10-06T16:05:09Z</time>
      </trkpt>
      <trkpt lat="49.00156" lon="1.16753">
        <ele>141.9</ele>
        <time>2016-10-06T16:05:11Z</time>
      </trkpt>
      <trkpt lat="49.00147" lon="1.16757">
        <ele>141.8</ele>
        <time>2016-10-06T16:05:13Z</time>
      </trkpt>
      <trkpt lat="49.00136" lon="1.16762">
        <ele>141.8</ele>
        <time>2016-10-06T16:05:15Z</time>
      </trkpt>
      <trkpt lat="49.00126" lon="1.16768">
        <ele>141.8</ele>
        <time>2016-10-06T16:05:17Z</time>
      </trkpt>
      <trkpt lat="49.00114" lon="1.16774">
        <ele>141.8</ele>
        <time>2016-10-06T16:05:19Z</time>
      </trkpt>
      <trkpt lat="49.00103" lon="1.1678">
        <ele>141.7</ele>
        <time>2016-10-06T16:05:21Z</time>
      </trkpt>
      <trkpt lat="49.00093" lon="1.16785">
        <ele>141.7</ele>
        <time>2016-10-06T16:05:23Z</time>
      </trkpt>
      <trkpt lat="49.00083" lon="1.16791">
        <ele>141.7</ele>
        <time>2016-10-06T16:05:25Z</time>
      </trkpt>
      <trkpt lat="49.00074" lon="1.16796">
        <ele>141.7</ele>
        <time>2016-10-06T16:05:27Z</time>
      </trkpt>
      <trkpt lat="49.0007" lon="1.16811">
        <ele>141.6</ele>
        <time>2016-10-06T16:05:30Z</time>
      </trkpt>
      <trkpt lat="49.00079" lon="1.16827">
        <ele>141.7</ele>
        <time>2016-10-06T16:05:33Z</time>
      </trkpt>
      <trkpt lat="49.00086" lon="1.16838">
        <ele>141.7</ele>
        <time>2016-10-06T16:05:35Z</time>
      </trkpt>
      <trkpt lat="49.00093" lon="1.1685">
        <ele>141.8</ele>
        <time>2016-10-06T16:05:37Z</time>
      </trkpt>
      <trkpt lat="49.00099" lon="1.16862">
        <ele>141.9</ele>
        <time>2016-10-06T16:05:39Z</time>
      </trkpt>
      <trkpt lat="49.00106" lon="1.16873">
        <ele>141.9</ele>
        <time>2016-10-06T16:05:41Z</time>
      </trkpt>
      <trkpt lat="49.00114" lon="1.16885">
        <ele>142</ele>
        <time>2016-10-06T16:05:43Z</time>
      </trkpt>
      <trkpt lat="49.00121" lon="1.16898">
        <ele>142</ele>
        <time>2016-10-06T16:05:45Z</time>
      </trkpt>
      <trkpt lat="49.00128" lon="1.16911">
        <ele>142.1</ele>
        <time>2016-10-06T16:05:47Z</time>
      </trkpt>
      <trkpt lat="49.00136" lon="1.16924">
        <ele>142.1</ele>
        <time>2016-10-06T16:05:49Z</time>
      </trkpt>
      <trkpt lat="49.00143" lon="1.16937">
        <ele>142.1</ele>
        <time>2016-10-06T16:05:51Z</time>
      </trkpt>
      <trkpt lat="49.00151" lon="1.16951">
        <ele>142.1</ele>
        <time>2016-10-06T16:05:53Z</time>
      </trkpt>
      <trkpt lat="49.00159" lon="1.16964">
        <ele>142.1</ele>
        <time>2016-10-06T16:05:55Z</time>
      </trkpt>
      <trkpt lat="49.00167" lon="1.16978">
        <ele>142.1</ele>
        <time>2016-10-06T16:05:57Z</time>
      </trkpt>
      <trkpt lat="49.00175" lon="1.16991">
        <ele>142.1</ele>
        <time>2016-10-06T16:05:59Z</time>
      </trkpt>
      <trkpt lat="49.00182" lon="1.17005">
        <ele>142.1</ele>
        <time>2016-10-06T16:06:01Z</time>
      </trkpt>
      <trkpt lat="49.0019" lon="1.17018">
        <ele>142.1</ele>
        <time>2016-10-06T16:06:03Z</time>
      </trkpt>
      <trkpt lat="49.00197" lon="1.17032">
        <ele>142.1</ele>
        <time>2016-10-06T16:06:05Z</time>
      </trkpt>
      <trkpt lat="49.00204" lon="1.17046">
        <ele>142</ele>
        <time>2016-10-06T16:06:07Z</time>
      </trkpt>
      <trkpt lat="49.00211" lon="1.17061">
        <ele>142</ele>
        <time>2016-10-06T16:06:09Z</time>
      </trkpt>
      <trkpt lat="49.00218" lon="1.17075">
        <ele>142</ele>
        <time>2016-10-06T16:06:11Z</time>
      </trkpt>
      <trkpt lat="49.00223" lon="1.17091">
        <ele>142</ele>
        <time>2016-10-06T16:06:13Z</time>
      </trkpt>
      <trkpt lat="49.00229" lon="1.17106">
        <ele>142</ele>
        <time>2016-10-06T16:06:15Z</time>
      </trkpt>
      <trkpt lat="49.00235" lon="1.17121">
        <ele>142</ele>
        <time>2016-10-06T16:06:17Z</time>
      </trkpt>
      <trkpt lat="49.00238" lon="1.17134">
        <ele>142</ele>
        <time>2016-10-06T16:06:19Z</time>
      </trkpt>
      <trkpt lat="49.00241" lon="1.17149">
        <ele>141.7</ele>
        <time>2016-10-06T16:06:23Z</time>
      </trkpt>
      <trkpt lat="49.00246" lon="1.17162">
        <ele>141.5</ele>
        <time>2016-10-06T16:06:26Z</time>
      </trkpt>
      <trkpt lat="49.00251" lon="1.1718">
        <ele>141.3</ele>
        <time>2016-10-06T16:06:29Z</time>
      </trkpt>
      <trkpt lat="49.00257" lon="1.17199">
        <ele>141.1</ele>
        <time>2016-10-06T16:06:32Z</time>
      </trkpt>
      <trkpt lat="49.00261" lon="1.17211">
        <ele>141.1</ele>
        <time>2016-10-06T16:06:34Z</time>
      </trkpt>
      <trkpt lat="49.00267" lon="1.17223">
        <ele>141</ele>
        <time>2016-10-06T16:06:36Z</time>
      </trkpt>
      <trkpt lat="49.00273" lon="1.17235">
        <ele>140.9</ele>
        <time>2016-10-06T16:06:38Z</time>
      </trkpt>
      <trkpt lat="49.0028" lon="1.17247">
        <ele>140.9</ele>
        <time>2016-10-06T16:06:40Z</time>
      </trkpt>
      <trkpt lat="49.00287" lon="1.17258">
        <ele>140.9</ele>
        <time>2016-10-06T16:06:42Z</time>
      </trkpt>
      <trkpt lat="49.00295" lon="1.17266">
        <ele>140.9</ele>
        <time>2016-10-06T16:06:44Z</time>
      </trkpt>
      <trkpt lat="49.00304" lon="1.17279">
        <ele>140.9</ele>
        <time>2016-10-06T16:06:47Z</time>
      </trkpt>
      <trkpt lat="49.00299" lon="1.17296">
        <ele>141</ele>
        <time>2016-10-06T16:06:50Z</time>
      </trkpt>
      <trkpt lat="49.00291" lon="1.17308">
        <ele>141</ele>
        <time>2016-10-06T16:06:52Z</time>
      </trkpt>
      <trkpt lat="49.00284" lon="1.17321">
        <ele>141</ele>
        <time>2016-10-06T16:06:54Z</time>
      </trkpt>
      <trkpt lat="49.00277" lon="1.17335">
        <ele>141</ele>
        <time>2016-10-06T16:06:56Z</time>
      </trkpt>
      <trkpt lat="49.00269" lon="1.17349">
        <ele>141</ele>
        <time>2016-10-06T16:06:58Z</time>
      </trkpt>
      <trkpt lat="49.00261" lon="1.17363">
        <ele>141</ele>
        <time>2016-10-06T16:07:00Z</time>
      </trkpt>
      <trkpt lat="49.00253" lon="1.17378">
        <ele>141</ele>
        <time>2016-10-06T16:07:02Z</time>
      </trkpt>
      <trkpt lat="49.00245" lon="1.17393">
        <ele>141</ele>
        <time>2016-10-06T16:07:04Z</time>
      </trkpt>
      <trkpt lat="49.00237" lon="1.17408">
        <ele>141</ele>
        <time>2016-10-06T16:07:06Z</time>
      </trkpt>
      <trkpt lat="49.0023" lon="1.17423">
        <ele>141.1</ele>
        <time>2016-10-06T16:07:08Z</time>
      </trkpt>
      <trkpt lat="49.00224" lon="1.17439">
        <ele>141.1</ele>
        <time>2016-10-06T16:07:10Z</time>
      </trkpt>
      <trkpt lat="49.00219" lon="1.17456">
        <ele>141.1</ele>
        <time>2016-10-06T16:07:12Z</time>
      </trkpt>
      <trkpt lat="49.00218" lon="1.17473">
        <ele>141.1</ele>
        <time>2016-10-06T16:07:14Z</time>
      </trkpt>
      <trkpt lat="49.00215" lon="1.17489">
        <ele>141.2</ele>
        <time>2016-10-06T16:07:16Z</time>
      </trkpt>
      <trkpt lat="49.00208" lon="1.17503">
        <ele>141.2</ele>
        <time>2016-10-06T16:07:18Z</time>
      </trkpt>
      <trkpt lat="49.00199" lon="1.17516">
        <ele>141.2</ele>
        <time>2016-10-06T16:07:20Z</time>
      </trkpt>
      <trkpt lat="49.00189" lon="1.1753">
        <ele>141.2</ele>
        <time>2016-10-06T16:07:22Z</time>
      </trkpt>
      <trkpt lat="49.0018" lon="1.17544">
        <ele>141.2</ele>
        <time>2016-10-06T16:07:24Z</time>
      </trkpt>
      <trkpt lat="49.0017" lon="1.17558">
        <ele>141.2</ele>
        <time>2016-10-06T16:07:26Z</time>
      </trkpt>
      <trkpt lat="49.0016" lon="1.17571">
        <ele>141.2</ele>
        <time>2016-10-06T16:07:28Z</time>
      </trkpt>
      <trkpt lat="49.00149" lon="1.17585">
        <ele>141.1</ele>
        <time>2016-10-06T16:07:30Z</time>
      </trkpt>
      <trkpt lat="49.00139" lon="1.17598">
        <ele>141</ele>
        <time>2016-10-06T16:07:32Z</time>
      </trkpt>
      <trkpt lat="49.00128" lon="1.1761">
        <ele>140.9</ele>
        <time>2016-10-06T16:07:34Z</time>
      </trkpt>
      <trkpt lat="49.00117" lon="1.17622">
        <ele>140.8</ele>
        <time>2016-10-06T16:07:36Z</time>
      </trkpt>
      <trkpt lat="49.00106" lon="1.17633">
        <ele>140.8</ele>
        <time>2016-10-06T16:07:38Z</time>
      </trkpt>
      <trkpt lat="49.00096" lon="1.17644">
        <ele>140.7</ele>
        <time>2016-10-06T16:07:40Z</time>
      </trkpt>
      <trkpt lat="49.00085" lon="1.17656">
        <ele>140.6</ele>
        <time>2016-10-06T16:07:42Z</time>
      </trkpt>
      <trkpt lat="49.00076" lon="1.17667">
        <ele>140.6</ele>
        <time>2016-10-06T16:07:44Z</time>
      </trkpt>
      <trkpt lat="49.00065" lon="1.17679">
        <ele>140.6</ele>
        <time>2016-10-06T16:07:46Z</time>
      </trkpt>
      <trkpt lat="49.00055" lon="1.17689">
        <ele>140.6</ele>
        <time>2016-10-06T16:07:48Z</time>
      </trkpt>
      <trkpt lat="49.00045" lon="1.17699">
        <ele>140.6</ele>
        <time>2016-10-06T16:07:50Z</time>
      </trkpt>
      <trkpt lat="49.00033" lon="1.17706">
        <ele>140.6</ele>
        <time>2016-10-06T16:07:52Z</time>
      </trkpt>
      <trkpt lat="49.00021" lon="1.17708">
        <ele>140.6</ele>
        <time>2016-10-06T16:07:54Z</time>
      </trkpt>
      <trkpt lat="49.00012" lon="1.17717">
        <ele>140.6</ele>
        <time>2016-10-06T16:07:56Z</time>
      </trkpt>
      <trkpt lat="49.00007" lon="1.17732">
        <ele>140.6</ele>
        <time>2016-10-06T16:07:58Z</time>
      </trkpt>
      <trkpt lat="49" lon="1.17741">
        <ele>140.7</ele>
        <time>2016-10-06T16:08:00Z</time>
      </trkpt>
      <trkpt lat="48.99993" lon="1.17756">
        <ele>140.8</ele>
        <time>2016-10-06T16:08:03Z</time>
      </trkpt>
      <trkpt lat="49" lon="1.17769">
        <ele>140.9</ele>
        <time>2016-10-06T16:08:06Z</time>
      </trkpt>
      <trkpt lat="49.00009" lon="1.17774">
        <ele>141.1</ele>
        <time>2016-10-06T16:08:09Z</time>
      </trkpt>
      <trkpt lat="49.00021" lon="1.1777">
        <ele>141.5</ele>
        <time>2016-10-06T16:08:13Z</time>
      </trkpt>
      <trkpt lat="49.0003" lon="1.17763">
        <ele>141.8</ele>
        <time>2016-10-06T16:08:16Z</time>
      </trkpt>
      <trkpt lat="49.00039" lon="1.17757">
        <ele>142.1</ele>
        <time>2016-10-06T16:08:19Z</time>
      </trkpt>
      <trkpt lat="49.00048" lon="1.17754">
        <ele>142.3</ele>
        <time>2016-10-06T16:08:22Z</time>
      </trkpt>
      <trkpt lat="49.00059" lon="1.17754">
        <ele>142.5</ele>
        <time>2016-10-06T16:08:25Z</time>
      </trkpt>
      <trkpt lat="49.0007" lon="1.17758">
        <ele>142.7</ele>
        <time>2016-10-06T16:08:28Z</time>
      </trkpt>
      <trkpt lat="49.00079" lon="1.17764">
        <ele>142.8</ele>
        <time>2016-10-06T16:08:31Z</time>
      </trkpt>
      <trkpt lat="49.00089" lon="1.1777">
        <ele>142.9</ele>
        <time>2016-10-06T16:08:34Z</time>
      </trkpt>
      <trkpt lat="49.00099" lon="1.17775">
        <ele>143</ele>
        <time>2016-10-06T16:08:37Z</time>
      </trkpt>
      <trkpt lat="49.00109" lon="1.17775">
        <ele>143.2</ele>
        <time>2016-10-06T16:08:40Z</time>
      </trkpt>
      <trkpt lat="49.00118" lon="1.17765">
        <ele>143.3</ele>
        <time>2016-10-06T16:08:43Z</time>
      </trkpt>
      <trkpt lat="49.00127" lon="1.17755">
        <ele>143.5</ele>
        <time>2016-10-06T16:08:46Z</time>
      </trkpt>
      <trkpt lat="49.00135" lon="1.17745">
        <ele>143.7</ele>
        <time>2016-10-06T16:08:49Z</time>
      </trkpt>
      <trkpt lat="49.00144" lon="1.17735">
        <ele>143.9</ele>
        <time>2016-10-06T16:08:52Z</time>
      </trkpt>
      <trkpt lat="49.00152" lon="1.17724">
        <ele>144.1</ele>
        <time>2016-10-06T16:08:55Z</time>
      </trkpt>
      <trkpt lat="49.00161" lon="1.17714">
        <ele>144.2</ele>
        <time>2016-10-06T16:08:58Z</time>
      </trkpt>
      <trkpt lat="49.0017" lon="1.17704">
        <ele>144.3</ele>
        <time>2016-10-06T16:09:02Z</time>
      </trkpt>
      <trkpt lat="49.00177" lon="1.17694">
        <ele>144.3</ele>
        <time>2016-10-06T16:09:06Z</time>
      </trkpt>
      <trkpt lat="49.00185" lon="1.17684">
        <ele>144.3</ele>
        <time>2016-10-06T16:09:09Z</time>
      </trkpt>
      <trkpt lat="49.00194" lon="1.17678">
        <ele>144.3</ele>
        <time>2016-10-06T16:09:14Z</time>
      </trkpt>
      <trkpt lat="49.00204" lon="1.1768">
        <ele>144</ele>
        <time>2016-10-06T16:09:17Z</time>
      </trkpt>
      <trkpt lat="49.00214" lon="1.17671">
        <ele>143.5</ele>
        <time>2016-10-06T16:09:20Z</time>
      </trkpt>
      <trkpt lat="49.00223" lon="1.1766">
        <ele>143.1</ele>
        <time>2016-10-06T16:09:23Z</time>
      </trkpt>
      <trkpt lat="49.00231" lon="1.17644">
        <ele>142.7</ele>
        <time>2016-10-06T16:09:26Z</time>
      </trkpt>
      <trkpt lat="49.00238" lon="1.17628">
        <ele>142.4</ele>
        <time>2016-10-06T16:09:29Z</time>
      </trkpt>
      <trkpt lat="49.00243" lon="1.17611">
        <ele>142.2</ele>
        <time>2016-10-06T16:09:32Z</time>
      </trkpt>
      <trkpt lat="49.00249" lon="1.17597">
        <ele>142</ele>
        <time>2016-10-06T16:09:35Z</time>
      </trkpt>
      <trkpt lat="49.00259" lon="1.17602">
        <ele>141.9</ele>
        <time>2016-10-06T16:09:38Z</time>
      </trkpt>
      <trkpt lat="49.00269" lon="1.17613">
        <ele>141.8</ele>
        <time>2016-10-06T16:09:41Z</time>
      </trkpt>
      <trkpt lat="49.00279" lon="1.17625">
        <ele>141.7</ele>
        <time>2016-10-06T16:09:44Z</time>
      </trkpt>
      <trkpt lat="49.00287" lon="1.17633">
        <ele>141.7</ele>
        <time>2016-10-06T16:09:46Z</time>
      </trkpt>
      <trkpt lat="49.00298" lon="1.17644">
        <ele>141.8</ele>
        <time>2016-10-06T16:09:49Z</time>
      </trkpt>
      <trkpt lat="49.00309" lon="1.17643">
        <ele>141.9</ele>
        <time>2016-10-06T16:09:52Z</time>
      </trkpt>
      <trkpt lat="49.0032" lon="1.17635">
        <ele>141.9</ele>
        <time>2016-10-06T16:09:55Z</time>
      </trkpt>
      <trkpt lat="49.00329" lon="1.17635">
        <ele>141.9</ele>
        <time>2016-10-06T16:09:57Z</time>
      </trkpt>
      <trkpt lat="49.00336" lon="1.17644">
        <ele>141.9</ele>
        <time>2016-10-06T16:09:59Z</time>
      </trkpt>
      <trkpt lat="49.00337" lon="1.17662">
        <ele>141.9</ele>
        <time>2016-10-06T16:10:02Z</time>
      </trkpt>
      <trkpt lat="49.00335" lon="1.17681">
        <ele>141.9</ele>
        <time>2016-10-06T16:10:05Z</time>
      </trkpt>
      <trkpt lat="49.00334" lon="1.17695">
        <ele>141.9</ele>
        <time>2016-10-06T16:10:07Z</time>
      </trkpt>
      <trkpt lat="49.00329" lon="1.17712">
        <ele>141.9</ele>
        <time>2016-10-06T16:10:10Z</time>
      </trkpt>
      <trkpt lat="49.00318" lon="1.17724">
        <ele>141.9</ele>
        <time>2016-10-06T16:10:13Z</time>
      </trkpt>
      <trkpt lat="49.00308" lon="1.17737">
        <ele>141.9</ele>
        <time>2016-10-06T16:10:16Z</time>
      </trkpt>
      <trkpt lat="49.00298" lon="1.17748">
        <ele>141.8</ele>
        <time>2016-10-06T16:10:19Z</time>
      </trkpt>
      <trkpt lat="49.00291" lon="1.17756">
        <ele>141.7</ele>
        <time>2016-10-06T16:10:21Z</time>
      </trkpt>
      <trkpt lat="49.00283" lon="1.17765">
        <ele>141.5</ele>
        <time>2016-10-06T16:10:23Z</time>
      </trkpt>
      <trkpt lat="49.00275" lon="1.17774">
        <ele>141.4</ele>
        <time>2016-10-06T16:10:25Z</time>
      </trkpt>
      <trkpt lat="49.00267" lon="1.17782">
        <ele>141.3</ele>
        <time>2016-10-06T16:10:27Z</time>
      </trkpt>
      <trkpt lat="49.00259" lon="1.17788">
        <ele>141.2</ele>
        <time>2016-10-06T16:10:29Z</time>
      </trkpt>
      <trkpt lat="49.00251" lon="1.17794">
        <ele>141.1</ele>
        <time>2016-10-06T16:10:31Z</time>
      </trkpt>
      <trkpt lat="49.00239" lon="1.17803">
        <ele>140.9</ele>
        <time>2016-10-06T16:10:34Z</time>
      </trkpt>
      <trkpt lat="49.0023" lon="1.17809">
        <ele>140.8</ele>
        <time>2016-10-06T16:10:36Z</time>
      </trkpt>
      <trkpt lat="49.00221" lon="1.17814">
        <ele>140.7</ele>
        <time>2016-10-06T16:10:38Z</time>
      </trkpt>
      <trkpt lat="49.00211" lon="1.17819">
        <ele>140.5</ele>
        <time>2016-10-06T16:10:41Z</time>
      </trkpt>
      <trkpt lat="49.00205" lon="1.17829">
        <ele>140.9</ele>
        <time>2016-10-06T16:11:01Z</time>
      </trkpt>
      <trkpt lat="49.00198" lon="1.17843">
        <ele>140.9</ele>
        <time>2016-10-06T16:11:14Z</time>
      </trkpt>
      <trkpt lat="49.00188" lon="1.1785">
        <ele>140.9</ele>
        <time>2016-10-06T16:11:17Z</time>
      </trkpt>
      <trkpt lat="49.00178" lon="1.17852">
        <ele>140.9</ele>
        <time>2016-10-06T16:11:19Z</time>
      </trkpt>
      <trkpt lat="49.00169" lon="1.17853">
        <ele>141</ele>
        <time>2016-10-06T16:11:21Z</time>
      </trkpt>
      <trkpt lat="49.0016" lon="1.17855">
        <ele>140.9</ele>
        <time>2016-10-06T16:11:23Z</time>
      </trkpt>
      <trkpt lat="49.0015" lon="1.17857">
        <ele>140.8</ele>
        <time>2016-10-06T16:11:25Z</time>
      </trkpt>
      <trkpt lat="49.00137" lon="1.17857">
        <ele>140.7</ele>
        <time>2016-10-06T16:11:28Z</time>
      </trkpt>
      <trkpt lat="49.00127" lon="1.17856">
        <ele>140.7</ele>
        <time>2016-10-06T16:11:30Z</time>
      </trkpt>
      <trkpt lat="49.00115" lon="1.17858">
        <ele>140.6</ele>
        <time>2016-10-06T16:11:33Z</time>
      </trkpt>
      <trkpt lat="49.00107" lon="1.17865">
        <ele>140.6</ele>
        <time>2016-10-06T16:11:37Z</time>
      </trkpt>
      <trkpt lat="49.00097" lon="1.17864">
        <ele>140.5</ele>
        <time>2016-10-06T16:11:40Z</time>
      </trkpt>
      <trkpt lat="49.00084" lon="1.17862">
        <ele>140.5</ele>
        <time>2016-10-06T16:11:43Z</time>
      </trkpt>
      <trkpt lat="49.00075" lon="1.17858">
        <ele>140.5</ele>
        <time>2016-10-06T16:11:45Z</time>
      </trkpt>
      <trkpt lat="49.00065" lon="1.17854">
        <ele>140.5</ele>
        <time>2016-10-06T16:11:47Z</time>
      </trkpt>
      <trkpt lat="49.00055" lon="1.17851">
        <ele>140.5</ele>
        <time>2016-10-06T16:11:49Z</time>
      </trkpt>
      <trkpt lat="49.00045" lon="1.1785">
        <ele>140.5</ele>
        <time>2016-10-06T16:11:51Z</time>
      </trkpt>
      <trkpt lat="49.00035" lon="1.17849">
        <ele>140.5</ele>
        <time>2016-10-06T16:11:53Z</time>
      </trkpt>
      <trkpt lat="49.00024" lon="1.17848">
        <ele>140.4</ele>
        <time>2016-10-06T16:11:55Z</time>
      </trkpt>
      <trkpt lat="49.00014" lon="1.17849">
        <ele>140.4</ele>
        <time>2016-10-06T16:11:57Z</time>
      </trkpt>
      <trkpt lat="49.00003" lon="1.1785">
        <ele>140.4</ele>
        <time>2016-10-06T16:11:59Z</time>
      </trkpt>
      <trkpt lat="48.99993" lon="1.1785">
        <ele>140.4</ele>
        <time>2016-10-06T16:12:01Z</time>
      </trkpt>
      <trkpt lat="48.99982" lon="1.17852">
        <ele>140.4</ele>
        <time>2016-10-06T16:12:03Z</time>
      </trkpt>
      <trkpt lat="48.9997" lon="1.17855">
        <ele>140.4</ele>
        <time>2016-10-06T16:12:05Z</time>
      </trkpt>
      <trkpt lat="48.99959" lon="1.17858">
        <ele>140.4</ele>
        <time>2016-10-06T16:12:07Z</time>
      </trkpt>
      <trkpt lat="48.99949" lon="1.17862">
        <ele>140.3</ele>
        <time>2016-10-06T16:12:09Z</time>
      </trkpt>
      <trkpt lat="48.99938" lon="1.17869">
        <ele>140.3</ele>
        <time>2016-10-06T16:12:11Z</time>
      </trkpt>
      <trkpt lat="48.99928" lon="1.17877">
        <ele>140.2</ele>
        <time>2016-10-06T16:12:13Z</time>
      </trkpt>
      <trkpt lat="48.99918" lon="1.17886">
        <ele>140</ele>
        <time>2016-10-06T16:12:15Z</time>
      </trkpt>
      <trkpt lat="48.99909" lon="1.17895">
        <ele>139.9</ele>
        <time>2016-10-06T16:12:17Z</time>
      </trkpt>
      <trkpt lat="48.99899" lon="1.17905">
        <ele>139.8</ele>
        <time>2016-10-06T16:12:19Z</time>
      </trkpt>
      <trkpt lat="48.9989" lon="1.17914">
        <ele>139.8</ele>
        <time>2016-10-06T16:12:21Z</time>
      </trkpt>
      <trkpt lat="48.9988" lon="1.17925">
        <ele>139.7</ele>
        <time>2016-10-06T16:12:23Z</time>
      </trkpt>
      <trkpt lat="48.99871" lon="1.17935">
        <ele>139.6</ele>
        <time>2016-10-06T16:12:25Z</time>
      </trkpt>
      <trkpt lat="48.99862" lon="1.17944">
        <ele>139.6</ele>
        <time>2016-10-06T16:12:27Z</time>
      </trkpt>
      <trkpt lat="48.99858" lon="1.17959">
        <ele>139.5</ele>
        <time>2016-10-06T16:12:29Z</time>
      </trkpt>
      <trkpt lat="48.99862" lon="1.17973">
        <ele>139.5</ele>
        <time>2016-10-06T16:12:31Z</time>
      </trkpt>
      <trkpt lat="48.99868" lon="1.17986">
        <ele>139.4</ele>
        <time>2016-10-06T16:12:33Z</time>
      </trkpt>
      <trkpt lat="48.99874" lon="1.18">
        <ele>139.4</ele>
        <time>2016-10-06T16:12:35Z</time>
      </trkpt>
      <trkpt lat="48.9988" lon="1.18012">
        <ele>139.4</ele>
        <time>2016-10-06T16:12:37Z</time>
      </trkpt>
      <trkpt lat="48.99886" lon="1.18025">
        <ele>139.4</ele>
        <time>2016-10-06T16:12:39Z</time>
      </trkpt>
      <trkpt lat="48.99893" lon="1.18037">
        <ele>139.4</ele>
        <time>2016-10-06T16:12:41Z</time>
      </trkpt>
      <trkpt lat="48.99899" lon="1.1805">
        <ele>139.3</ele>
        <time>2016-10-06T16:12:43Z</time>
      </trkpt>
      <trkpt lat="48.99906" lon="1.18063">
        <ele>139.3</ele>
        <time>2016-10-06T16:12:45Z</time>
      </trkpt>
      <trkpt lat="48.99912" lon="1.18075">
        <ele>139.4</ele>
        <time>2016-10-06T16:12:47Z</time>
      </trkpt>
      <trkpt lat="48.99918" lon="1.18088">
        <ele>139.4</ele>
        <time>2016-10-06T16:12:49Z</time>
      </trkpt>
      <trkpt lat="48.99925" lon="1.181">
        <ele>139.5</ele>
        <time>2016-10-06T16:12:51Z</time>
      </trkpt>
      <trkpt lat="48.99932" lon="1.18111">
        <ele>139.5</ele>
        <time>2016-10-06T16:12:53Z</time>
      </trkpt>
      <trkpt lat="48.99938" lon="1.18123">
        <ele>139.5</ele>
        <time>2016-10-06T16:12:55Z</time>
      </trkpt>
      <trkpt lat="48.99946" lon="1.18134">
        <ele>139.5</ele>
        <time>2016-10-06T16:12:57Z</time>
      </trkpt>
      <trkpt lat="48.99953" lon="1.18145">
        <ele>139.5</ele>
        <time>2016-10-06T16:12:59Z</time>
      </trkpt>
      <trkpt lat="48.9996" lon="1.18156">
        <ele>139.5</ele>
        <time>2016-10-06T16:13:01Z</time>
      </trkpt>
      <trkpt lat="48.99967" lon="1.18168">
        <ele>139.5</ele>
        <time>2016-10-06T16:13:03Z</time>
      </trkpt>
      <trkpt lat="48.99974" lon="1.18179">
        <ele>139.5</ele>
        <time>2016-10-06T16:13:05Z</time>
      </trkpt>
      <trkpt lat="48.9998" lon="1.1819">
        <ele>139.5</ele>
        <time>2016-10-06T16:13:07Z</time>
      </trkpt>
      <trkpt lat="48.99987" lon="1.18201">
        <ele>139.5</ele>
        <time>2016-10-06T16:13:09Z</time>
      </trkpt>
      <trkpt lat="48.99995" lon="1.18211">
        <ele>139.5</ele>
        <time>2016-10-06T16:13:11Z</time>
      </trkpt>
      <trkpt lat="49.00002" lon="1.18221">
        <ele>139.5</ele>
        <time>2016-10-06T16:13:13Z</time>
      </trkpt>
      <trkpt lat="49.00008" lon="1.18231">
        <ele>139.5</ele>
        <time>2016-10-06T16:13:15Z</time>
      </trkpt>
      <trkpt lat="49.00015" lon="1.18242">
        <ele>139.5</ele>
        <time>2016-10-06T16:13:17Z</time>
      </trkpt>
      <trkpt lat="49.00022" lon="1.18251">
        <ele>139.5</ele>
        <time>2016-10-06T16:13:19Z</time>
      </trkpt>
      <trkpt lat="49.00028" lon="1.18261">
        <ele>139.5</ele>
        <time>2016-10-06T16:13:21Z</time>
      </trkpt>
      <trkpt lat="49.00035" lon="1.1827">
        <ele>139.5</ele>
        <time>2016-10-06T16:13:23Z</time>
      </trkpt>
      <trkpt lat="49.00043" lon="1.18279">
        <ele>139.6</ele>
        <time>2016-10-06T16:13:25Z</time>
      </trkpt>
      <trkpt lat="49.0005" lon="1.18288">
        <ele>139.6</ele>
        <time>2016-10-06T16:13:27Z</time>
      </trkpt>
      <trkpt lat="49.0006" lon="1.18302">
        <ele>139.6</ele>
        <time>2016-10-06T16:13:30Z</time>
      </trkpt>
      <trkpt lat="49.00068" lon="1.18315">
        <ele>139.7</ele>
        <time>2016-10-06T16:13:33Z</time>
      </trkpt>
      <trkpt lat="49.00076" lon="1.18327">
        <ele>139.8</ele>
        <time>2016-10-06T16:13:36Z</time>
      </trkpt>
      <trkpt lat="49.00084" lon="1.18339">
        <ele>139.8</ele>
        <time>2016-10-06T16:13:39Z</time>
      </trkpt>
      <trkpt lat="49.00093" lon="1.18334">
        <ele>139.9</ele>
        <time>2016-10-06T16:13:44Z</time>
      </trkpt>
      <trkpt lat="49.00103" lon="1.18331">
        <ele>139.9</ele>
        <time>2016-10-06T16:13:49Z</time>
      </trkpt>
      <trkpt lat="49.00113" lon="1.18341">
        <ele>139.9</ele>
        <time>2016-10-06T16:13:53Z</time>
      </trkpt>
      <trkpt lat="49.00121" lon="1.18349">
        <ele>140</ele>
        <time>2016-10-06T16:13:56Z</time>
      </trkpt>
      <trkpt lat="49.00129" lon="1.18356">
        <ele>140</ele>
        <time>2016-10-06T16:13:59Z</time>
      </trkpt>
      <trkpt lat="49.00139" lon="1.18363">
        <ele>140</ele>
        <time>2016-10-06T16:14:02Z</time>
      </trkpt>
      <trkpt lat="49.00148" lon="1.1837">
        <ele>140.1</ele>
        <time>2016-10-06T16:14:05Z</time>
      </trkpt>
      <trkpt lat="49.00156" lon="1.18375">
        <ele>140.3</ele>
        <time>2016-10-06T16:14:08Z</time>
      </trkpt>
      <trkpt lat="49.00165" lon="1.1838">
        <ele>140.5</ele>
        <time>2016-10-06T16:14:11Z</time>
      </trkpt>
      <trkpt lat="49.00176" lon="1.18386">
        <ele>140.7</ele>
        <time>2016-10-06T16:14:15Z</time>
      </trkpt>
      <trkpt lat="49.00186" lon="1.18386">
        <ele>140.9</ele>
        <time>2016-10-06T16:14:19Z</time>
      </trkpt>
      <trkpt lat="49.00195" lon="1.18385">
        <ele>141</ele>
        <time>2016-10-06T16:14:22Z</time>
      </trkpt>
      <trkpt lat="49.00204" lon="1.1839">
        <ele>141</ele>
        <time>2016-10-06T16:14:25Z</time>
      </trkpt>
      <trkpt lat="49.00215" lon="1.18396">
        <ele>141.2</ele>
        <time>2016-10-06T16:14:29Z</time>
      </trkpt>
      <trkpt lat="49.00224" lon="1.18401">
        <ele>141.4</ele>
        <time>2016-10-06T16:14:32Z</time>
      </trkpt>
      <trkpt lat="49.00233" lon="1.18407">
        <ele>141.5</ele>
        <time>2016-10-06T16:14:35Z</time>
      </trkpt>
      <trkpt lat="49.00243" lon="1.18413">
        <ele>141.6</ele>
        <time>2016-10-06T16:14:38Z</time>
      </trkpt>
      <trkpt lat="49.00251" lon="1.18417">
        <ele>141.6</ele>
        <time>2016-10-06T16:14:41Z</time>
      </trkpt>
      <trkpt lat="49.00263" lon="1.18423">
        <ele>141.7</ele>
        <time>2016-10-06T16:14:45Z</time>
      </trkpt>
      <trkpt lat="49.00272" lon="1.18427">
        <ele>141.7</ele>
        <time>2016-10-06T16:14:48Z</time>
      </trkpt>
      <trkpt lat="49.00282" lon="1.18432">
        <ele>141.8</ele>
        <time>2016-10-06T16:14:51Z</time>
      </trkpt>
      <trkpt lat="49.00292" lon="1.18437">
        <ele>141.7</ele>
        <time>2016-10-06T16:14:54Z</time>
      </trkpt>
      <trkpt lat="49.00302" lon="1.18442">
        <ele>141.7</ele>
        <time>2016-10-06T16:14:57Z</time>
      </trkpt>
      <trkpt lat="49.00312" lon="1.18446">
        <ele>141.6</ele>
        <time>2016-10-06T16:15:00Z</time>
      </trkpt>
      <trkpt lat="49.00323" lon="1.18449">
        <ele>141.5</ele>
        <time>2016-10-06T16:15:03Z</time>
      </trkpt>
      <trkpt lat="49.00334" lon="1.18453">
        <ele>141.3</ele>
        <time>2016-10-06T16:15:06Z</time>
      </trkpt>
      <trkpt lat="49.00345" lon="1.18457">
        <ele>141.2</ele>
        <time>2016-10-06T16:15:09Z</time>
      </trkpt>
      <trkpt lat="49.00355" lon="1.1846">
        <ele>141.1</ele>
        <time>2016-10-06T16:15:12Z</time>
      </trkpt>
      <trkpt lat="49.00366" lon="1.18463">
        <ele>141</ele>
        <time>2016-10-06T16:15:15Z</time>
      </trkpt>
      <trkpt lat="49.00377" lon="1.18466">
        <ele>140.8</ele>
        <time>2016-10-06T16:15:18Z</time>
      </trkpt>
      <trkpt lat="49.00387" lon="1.18469">
        <ele>140.6</ele>
        <time>2016-10-06T16:15:21Z</time>
      </trkpt>
      <trkpt lat="49.00398" lon="1.18471">
        <ele>140.5</ele>
        <time>2016-10-06T16:15:24Z</time>
      </trkpt>
      <trkpt lat="49.00409" lon="1.18471">
        <ele>140.3</ele>
        <time>2016-10-06T16:15:27Z</time>
      </trkpt>
      <trkpt lat="49.0042" lon="1.1847">
        <ele>140.2</ele>
        <time>2016-10-06T16:15:30Z</time>
      </trkpt>
      <trkpt lat="49.00431" lon="1.1847">
        <ele>140.1</ele>
        <time>2016-10-06T16:15:33Z</time>
      </trkpt>
      <trkpt lat="49.00441" lon="1.18468">
        <ele>140</ele>
        <time>2016-10-06T16:15:36Z</time>
      </trkpt>
      <trkpt lat="49.00451" lon="1.18466">
        <ele>139.9</ele>
        <time>2016-10-06T16:15:39Z</time>
      </trkpt>
      <trkpt lat="49.0046" lon="1.18464">
        <ele>139.8</ele>
        <time>2016-10-06T16:15:42Z</time>
      </trkpt>
      <trkpt lat="49.0047" lon="1.18463">
        <ele>139.7</ele>
        <time>2016-10-06T16:15:45Z</time>
      </trkpt>
      <trkpt lat="49.00479" lon="1.18462">
        <ele>139.6</ele>
        <time>2016-10-06T16:15:48Z</time>
      </trkpt>
      <trkpt lat="49.00488" lon="1.18461">
        <ele>139.6</ele>
        <time>2016-10-06T16:15:51Z</time>
      </trkpt>
      <trkpt lat="49.00499" lon="1.1846">
        <ele>139.5</ele>
        <time>2016-10-06T16:15:54Z</time>
      </trkpt>
      <trkpt lat="49.0051" lon="1.18459">
        <ele>139.5</ele>
        <time>2016-10-06T16:15:57Z</time>
      </trkpt>
      <trkpt lat="49.00521" lon="1.18456">
        <ele>139.4</ele>
        <time>2016-10-06T16:16:00Z</time>
      </trkpt>
      <trkpt lat="49.00531" lon="1.18454">
        <ele>139.2</ele>
        <time>2016-10-06T16:16:03Z</time>
      </trkpt>
      <trkpt lat="49.00541" lon="1.18451">
        <ele>139.1</ele>
        <time>2016-10-06T16:16:06Z</time>
      </trkpt>
      <trkpt lat="49.0055" lon="1.18448">
        <ele>139</ele>
        <time>2016-10-06T16:16:09Z</time>
      </trkpt>
      <trkpt lat="49.0056" lon="1.18445">
        <ele>138.9</ele>
        <time>2016-10-06T16:16:12Z</time>
      </trkpt>
      <trkpt lat="49.00569" lon="1.18442">
        <ele>138.8</ele>
        <time>2016-10-06T16:16:15Z</time>
      </trkpt>
      <trkpt lat="49.00579" lon="1.18439">
        <ele>138.8</ele>
        <time>2016-10-06T16:16:18Z</time>
      </trkpt>
      <trkpt lat="49.00589" lon="1.18436">
        <ele>138.9</ele>
        <time>2016-10-06T16:16:21Z</time>
      </trkpt>
      <trkpt lat="49.00599" lon="1.18434">
        <ele>139</ele>
        <time>2016-10-06T16:16:24Z</time>
      </trkpt>
      <trkpt lat="49.00609" lon="1.18431">
        <ele>139</ele>
        <time>2016-10-06T16:16:27Z</time>
      </trkpt>
      <trkpt lat="49.00619" lon="1.18429">
        <ele>139</ele>
        <time>2016-10-06T16:16:30Z</time>
      </trkpt>
      <trkpt lat="49.00629" lon="1.18427">
        <ele>139</ele>
        <time>2016-10-06T16:16:33Z</time>
      </trkpt>
      <trkpt lat="49.00639" lon="1.18425">
        <ele>139.1</ele>
        <time>2016-10-06T16:16:36Z</time>
      </trkpt>
      <trkpt lat="49.00649" lon="1.18423">
        <ele>139</ele>
        <time>2016-10-06T16:16:39Z</time>
      </trkpt>
      <trkpt lat="49.00658" lon="1.18421">
        <ele>139</ele>
        <time>2016-10-06T16:16:42Z</time>
      </trkpt>
      <trkpt lat="49.00668" lon="1.18419">
        <ele>138.9</ele>
        <time>2016-10-06T16:16:45Z</time>
      </trkpt>
      <trkpt lat="49.00677" lon="1.18416">
        <ele>138.9</ele>
        <time>2016-10-06T16:16:48Z</time>
      </trkpt>
      <trkpt lat="49.00686" lon="1.1841">
        <ele>138.8</ele>
        <time>2016-10-06T16:16:51Z</time>
      </trkpt>
      <trkpt lat="49.00695" lon="1.18401">
        <ele>138.8</ele>
        <time>2016-10-06T16:16:55Z</time>
      </trkpt>
      <trkpt lat="49.00704" lon="1.18396">
        <ele>138.7</ele>
        <time>2016-10-06T16:16:59Z</time>
      </trkpt>
      <trkpt lat="49.00714" lon="1.18389">
        <ele>139.1</ele>
        <time>2016-10-06T16:17:05Z</time>
      </trkpt>
      <trkpt lat="49.00723" lon="1.18383">
        <ele>139.7</ele>
        <time>2016-10-06T16:17:10Z</time>
      </trkpt>
      <trkpt lat="49.00733" lon="1.18385">
        <ele>140.7</ele>
        <time>2016-10-06T16:17:16Z</time>
      </trkpt>
      <trkpt lat="49.00743" lon="1.18387">
        <ele>141.8</ele>
        <time>2016-10-06T16:17:22Z</time>
      </trkpt>
      <trkpt lat="49.00752" lon="1.18393">
        <ele>142.6</ele>
        <time>2016-10-06T16:17:28Z</time>
      </trkpt>
      <trkpt lat="49.00758" lon="1.18406">
        <ele>143.3</ele>
        <time>2016-10-06T16:17:34Z</time>
      </trkpt>
      <trkpt lat="49.00765" lon="1.18414">
        <ele>145</ele>
        <time>2016-10-06T16:18:50Z</time>
      </trkpt>
      <trkpt lat="49.00774" lon="1.18418">
        <ele>145</ele>
        <time>2016-10-06T16:18:54Z</time>
      </trkpt>
      <trkpt lat="49.00784" lon="1.18423">
        <ele>145</ele>
        <time>2016-10-06T16:18:57Z</time>
      </trkpt>
      <trkpt lat="49.00796" lon="1.18431">
        <ele>145</ele>
        <time>2016-10-06T16:19:00Z</time>
      </trkpt>
      <trkpt lat="49.00809" lon="1.18438">
        <ele>145</ele>
        <time>2016-10-06T16:19:03Z</time>
      </trkpt>
      <trkpt lat="49.00817" lon="1.18443">
        <ele>145</ele>
        <time>2016-10-06T16:19:05Z</time>
      </trkpt>
      <trkpt lat="49.00826" lon="1.18447">
        <ele>145</ele>
        <time>2016-10-06T16:19:07Z</time>
      </trkpt>
      <trkpt lat="49.00835" lon="1.18452">
        <ele>144.9</ele>
        <time>2016-10-06T16:19:09Z</time>
      </trkpt>
      <trkpt lat="49.00843" lon="1.18457">
        <ele>144.9</ele>
        <time>2016-10-06T16:19:11Z</time>
      </trkpt>
      <trkpt lat="49.00852" lon="1.18462">
        <ele>144.8</ele>
        <time>2016-10-06T16:19:13Z</time>
      </trkpt>
      <trkpt lat="49.00861" lon="1.18467">
        <ele>144.7</ele>
        <time>2016-10-06T16:19:15Z</time>
      </trkpt>
      <trkpt lat="49.00872" lon="1.18473">
        <ele>144.5</ele>
        <time>2016-10-06T16:19:17Z</time>
      </trkpt>
      <trkpt lat="49.00881" lon="1.18478">
        <ele>144</ele>
        <time>2016-10-06T16:19:19Z</time>
      </trkpt>
      <trkpt lat="49.00888" lon="1.18486">
        <ele>143.4</ele>
        <time>2016-10-06T16:19:21Z</time>
      </trkpt>
      <trkpt lat="49.00896" lon="1.18493">
        <ele>142.7</ele>
        <time>2016-10-06T16:19:23Z</time>
      </trkpt>
      <trkpt lat="49.00904" lon="1.18502">
        <ele>142</ele>
        <time>2016-10-06T16:19:25Z</time>
      </trkpt>
      <trkpt lat="49.00913" lon="1.1851">
        <ele>141.4</ele>
        <time>2016-10-06T16:19:27Z</time>
      </trkpt>
      <trkpt lat="49.00923" lon="1.18517">
        <ele>140.8</ele>
        <time>2016-10-06T16:19:29Z</time>
      </trkpt>
      <trkpt lat="49.00933" lon="1.18521">
        <ele>140.3</ele>
        <time>2016-10-06T16:19:31Z</time>
      </trkpt>
      <trkpt lat="49.00943" lon="1.18525">
        <ele>139.9</ele>
        <time>2016-10-06T16:19:33Z</time>
      </trkpt>
      <trkpt lat="49.00953" lon="1.18528">
        <ele>139.5</ele>
        <time>2016-10-06T16:19:35Z</time>
      </trkpt>
      <trkpt lat="49.00963" lon="1.18531">
        <ele>139.2</ele>
        <time>2016-10-06T16:19:37Z</time>
      </trkpt>
      <trkpt lat="49.00973" lon="1.18533">
        <ele>138.9</ele>
        <time>2016-10-06T16:19:39Z</time>
      </trkpt>
      <trkpt lat="49.00983" lon="1.18536">
        <ele>138.7</ele>
        <time>2016-10-06T16:19:41Z</time>
      </trkpt>
      <trkpt lat="49.00993" lon="1.1854">
        <ele>138.4</ele>
        <time>2016-10-06T16:19:43Z</time>
      </trkpt>
      <trkpt lat="49.01002" lon="1.18546">
        <ele>138.3</ele>
        <time>2016-10-06T16:19:45Z</time>
      </trkpt>
      <trkpt lat="49.0101" lon="1.18556">
        <ele>138.1</ele>
        <time>2016-10-06T16:19:47Z</time>
      </trkpt>
      <trkpt lat="49.01016" lon="1.18569">
        <ele>138</ele>
        <time>2016-10-06T16:19:49Z</time>
      </trkpt>
      <trkpt lat="49.01021" lon="1.18583">
        <ele>137.8</ele>
        <time>2016-10-06T16:19:51Z</time>
      </trkpt>
      <trkpt lat="49.01025" lon="1.18598">
        <ele>137.7</ele>
        <time>2016-10-06T16:19:53Z</time>
      </trkpt>
      <trkpt lat="49.0103" lon="1.18613">
        <ele>137.6</ele>
        <time>2016-10-06T16:19:55Z</time>
      </trkpt>
      <trkpt lat="49.01036" lon="1.18627">
        <ele>137.5</ele>
        <time>2016-10-06T16:19:57Z</time>
      </trkpt>
      <trkpt lat="49.01042" lon="1.18641">
        <ele>137.4</ele>
        <time>2016-10-06T16:19:59Z</time>
      </trkpt>
      <trkpt lat="49.01048" lon="1.18654">
        <ele>137.4</ele>
        <time>2016-10-06T16:20:01Z</time>
      </trkpt>
      <trkpt lat="49.01054" lon="1.18668">
        <ele>137.3</ele>
        <time>2016-10-06T16:20:03Z</time>
      </trkpt>
      <trkpt lat="49.01061" lon="1.18681">
        <ele>137.2</ele>
        <time>2016-10-06T16:20:05Z</time>
      </trkpt>
      <trkpt lat="49.01068" lon="1.18693">
        <ele>137.2</ele>
        <time>2016-10-06T16:20:07Z</time>
      </trkpt>
      <trkpt lat="49.01077" lon="1.18702">
        <ele>137.2</ele>
        <time>2016-10-06T16:20:09Z</time>
      </trkpt>
      <trkpt lat="49.01087" lon="1.18706">
        <ele>137.2</ele>
        <time>2016-10-06T16:20:11Z</time>
      </trkpt>
      <trkpt lat="49.01098" lon="1.18707">
        <ele>137.1</ele>
        <time>2016-10-06T16:20:13Z</time>
      </trkpt>
      <trkpt lat="49.01108" lon="1.18709">
        <ele>137.1</ele>
        <time>2016-10-06T16:20:15Z</time>
      </trkpt>
      <trkpt lat="49.01118" lon="1.18712">
        <ele>137.1</ele>
        <time>2016-10-06T16:20:17Z</time>
      </trkpt>
      <trkpt lat="49.01127" lon="1.1872">
        <ele>137.1</ele>
        <time>2016-10-06T16:20:19Z</time>
      </trkpt>
      <trkpt lat="49.01135" lon="1.1873">
        <ele>137.1</ele>
        <time>2016-10-06T16:20:21Z</time>
      </trkpt>
      <trkpt lat="49.0114" lon="1.18744">
        <ele>137</ele>
        <time>2016-10-06T16:20:23Z</time>
      </trkpt>
      <trkpt lat="49.01144" lon="1.18759">
        <ele>137</ele>
        <time>2016-10-06T16:20:25Z</time>
      </trkpt>
      <trkpt lat="49.01147" lon="1.18776">
        <ele>137</ele>
        <time>2016-10-06T16:20:27Z</time>
      </trkpt>
      <trkpt lat="49.01149" lon="1.18792">
        <ele>137</ele>
        <time>2016-10-06T16:20:29Z</time>
      </trkpt>
      <trkpt lat="49.01153" lon="1.18808">
        <ele>137</ele>
        <time>2016-10-06T16:20:31Z</time>
      </trkpt>
      <trkpt lat="49.01159" lon="1.18822">
        <ele>137</ele>
        <time>2016-10-06T16:20:33Z</time>
      </trkpt>
      <trkpt lat="49.01167" lon="1.18834">
        <ele>137</ele>
        <time>2016-10-06T16:20:35Z</time>
      </trkpt>
      <trkpt lat="49.01176" lon="1.18843">
        <ele>137</ele>
        <time>2016-10-06T16:20:37Z</time>
      </trkpt>
      <trkpt lat="49.01185" lon="1.18852">
        <ele>137</ele>
        <time>2016-10-06T16:20:39Z</time>
      </trkpt>
      <trkpt lat="49.01194" lon="1.1886">
        <ele>137</ele>
        <time>2016-10-06T16:20:41Z</time>
      </trkpt>
      <trkpt lat="49.01204" lon="1.18867">
        <ele>137</ele>
        <time>2016-10-06T16:20:43Z</time>
      </trkpt>
      <trkpt lat="49.01214" lon="1.18872">
        <ele>136.9</ele>
        <time>2016-10-06T16:20:45Z</time>
      </trkpt>
      <trkpt lat="49.01225" lon="1.18876">
        <ele>136.9</ele>
        <time>2016-10-06T16:20:47Z</time>
      </trkpt>
      <trkpt lat="49.01235" lon="1.18879">
        <ele>136.9</ele>
        <time>2016-10-06T16:20:49Z</time>
      </trkpt>
      <trkpt lat="49.01246" lon="1.18881">
        <ele>136.8</ele>
        <time>2016-10-06T16:20:51Z</time>
      </trkpt>
      <trkpt lat="49.01256" lon="1.1888">
        <ele>136.7</ele>
        <time>2016-10-06T16:20:53Z</time>
      </trkpt>
      <trkpt lat="49.01267" lon="1.18875">
        <ele>136.7</ele>
        <time>2016-10-06T16:20:55Z</time>
      </trkpt>
      <trkpt lat="49.01274" lon="1.18863">
        <ele>136.6</ele>
        <time>2016-10-06T16:20:57Z</time>
      </trkpt>
      <trkpt lat="49.01277" lon="1.18847">
        <ele>136.5</ele>
        <time>2016-10-06T16:20:59Z</time>
      </trkpt>
      <trkpt lat="49.01278" lon="1.1883">
        <ele>136.4</ele>
        <time>2016-10-06T16:21:01Z</time>
      </trkpt>
      <trkpt lat="49.01278" lon="1.18812">
        <ele>136.3</ele>
        <time>2016-10-06T16:21:03Z</time>
      </trkpt>
      <trkpt lat="49.01278" lon="1.18795">
        <ele>136.3</ele>
        <time>2016-10-06T16:21:05Z</time>
      </trkpt>
      <trkpt lat="49.01277" lon="1.18777">
        <ele>136.3</ele>
        <time>2016-10-06T16:21:07Z</time>
      </trkpt>
      <trkpt lat="49.01276" lon="1.18759">
        <ele>136.2</ele>
        <time>2016-10-06T16:21:09Z</time>
      </trkpt>
      <trkpt lat="49.01275" lon="1.18741">
        <ele>136.2</ele>
        <time>2016-10-06T16:21:11Z</time>
      </trkpt>
      <trkpt lat="49.01273" lon="1.18723">
        <ele>136.2</ele>
        <time>2016-10-06T16:21:13Z</time>
      </trkpt>
      <trkpt lat="49.01269" lon="1.18706">
        <ele>136.1</ele>
        <time>2016-10-06T16:21:15Z</time>
      </trkpt>
      <trkpt lat="49.01263" lon="1.1869">
        <ele>136.1</ele>
        <time>2016-10-06T16:21:17Z</time>
      </trkpt>
      <trkpt lat="49.01253" lon="1.18679">
        <ele>136.1</ele>
        <time>2016-10-06T16:21:19Z</time>
      </trkpt>
      <trkpt lat="49.01242" lon="1.1867">
        <ele>136.1</ele>
        <time>2016-10-06T16:21:21Z</time>
      </trkpt>
      <trkpt lat="49.01231" lon="1.18663">
        <ele>136.1</ele>
        <time>2016-10-06T16:21:23Z</time>
      </trkpt>
      <trkpt lat="49.01219" lon="1.18658">
        <ele>136.1</ele>
        <time>2016-10-06T16:21:25Z</time>
      </trkpt>
      <trkpt lat="49.01208" lon="1.18652">
        <ele>136.1</ele>
        <time>2016-10-06T16:21:27Z</time>
      </trkpt>
      <trkpt lat="49.01198" lon="1.18646">
        <ele>136.1</ele>
        <time>2016-10-06T16:21:29Z</time>
      </trkpt>
      <trkpt lat="49.0119" lon="1.18638">
        <ele>136.1</ele>
        <time>2016-10-06T16:21:31Z</time>
      </trkpt>
      <trkpt lat="49.01182" lon="1.18629">
        <ele>136.1</ele>
        <time>2016-10-06T16:21:33Z</time>
      </trkpt>
      <trkpt lat="49.01175" lon="1.18619">
        <ele>136</ele>
        <time>2016-10-06T16:21:35Z</time>
      </trkpt>
      <trkpt lat="49.01175" lon="1.18601">
        <ele>136</ele>
        <time>2016-10-06T16:21:38Z</time>
      </trkpt>
      <trkpt lat="49.01183" lon="1.1859">
        <ele>136</ele>
        <time>2016-10-06T16:21:42Z</time>
      </trkpt>
      <trkpt lat="49.01192" lon="1.18582">
        <ele>136</ele>
        <time>2016-10-06T16:21:47Z</time>
      </trkpt>
      <trkpt lat="49.01202" lon="1.18589">
        <ele>135.9</ele>
        <time>2016-10-06T16:21:51Z</time>
      </trkpt>
      <trkpt lat="49.01213" lon="1.18597">
        <ele>135.9</ele>
        <time>2016-10-06T16:21:54Z</time>
      </trkpt>
      <trkpt lat="49.01224" lon="1.18607">
        <ele>135.9</ele>
        <time>2016-10-06T16:21:57Z</time>
      </trkpt>
      <trkpt lat="49.01232" lon="1.18614">
        <ele>135.8</ele>
        <time>2016-10-06T16:21:59Z</time>
      </trkpt>
      <trkpt lat="49.01241" lon="1.1862">
        <ele>135.8</ele>
        <time>2016-10-06T16:22:01Z</time>
      </trkpt>
      <trkpt lat="49.0125" lon="1.18627">
        <ele>135.8</ele>
        <time>2016-10-06T16:22:03Z</time>
      </trkpt>
      <trkpt lat="49.0126" lon="1.18635">
        <ele>135.9</ele>
        <time>2016-10-06T16:22:05Z</time>
      </trkpt>
      <trkpt lat="49.01269" lon="1.18642">
        <ele>135.9</ele>
        <time>2016-10-06T16:22:07Z</time>
      </trkpt>
      <trkpt lat="49.01279" lon="1.18649">
        <ele>136</ele>
        <time>2016-10-06T16:22:09Z</time>
      </trkpt>
      <trkpt lat="49.01288" lon="1.18657">
        <ele>136</ele>
        <time>2016-10-06T16:22:11Z</time>
      </trkpt>
      <trkpt lat="49.01298" lon="1.18665">
        <ele>136.1</ele>
        <time>2016-10-06T16:22:13Z</time>
      </trkpt>
      <trkpt lat="49.01309" lon="1.18672">
        <ele>136.2</ele>
        <time>2016-10-06T16:22:15Z</time>
      </trkpt>
      <trkpt lat="49.01319" lon="1.1868">
        <ele>136.3</ele>
        <time>2016-10-06T16:22:17Z</time>
      </trkpt>
      <trkpt lat="49.01328" lon="1.18688">
        <ele>136.4</ele>
        <time>2016-10-06T16:22:19Z</time>
      </trkpt>
      <trkpt lat="49.01338" lon="1.18696">
        <ele>136.5</ele>
        <time>2016-10-06T16:22:21Z</time>
      </trkpt>
      <trkpt lat="49.01347" lon="1.18704">
        <ele>136.6</ele>
        <time>2016-10-06T16:22:23Z</time>
      </trkpt>
      <trkpt lat="49.01356" lon="1.18711">
        <ele>136.6</ele>
        <time>2016-10-06T16:22:25Z</time>
      </trkpt>
      <trkpt lat="49.01364" lon="1.18721">
        <ele>136.7</ele>
        <time>2016-10-06T16:22:27Z</time>
      </trkpt>
      <trkpt lat="49.01367" lon="1.18734">
        <ele>136.8</ele>
        <time>2016-10-06T16:22:29Z</time>
      </trkpt>
      <trkpt lat="49.01373" lon="1.18746">
        <ele>136.8</ele>
        <time>2016-10-06T16:22:31Z</time>
      </trkpt>
      <trkpt lat="49.01381" lon="1.18755">
        <ele>137</ele>
        <time>2016-10-06T16:22:34Z</time>
      </trkpt>
      <trkpt lat="49.01393" lon="1.18755">
        <ele>137.1</ele>
        <time>2016-10-06T16:22:38Z</time>
      </trkpt>
      <trkpt lat="49.01402" lon="1.18748">
        <ele>137.2</ele>
        <time>2016-10-06T16:22:41Z</time>
      </trkpt>
      <trkpt lat="49.01413" lon="1.18736">
        <ele>137.2</ele>
        <time>2016-10-06T16:22:44Z</time>
      </trkpt>
      <trkpt lat="49.01422" lon="1.18736">
        <ele>137.3</ele>
        <time>2016-10-06T16:22:46Z</time>
      </trkpt>
      <trkpt lat="49.01433" lon="1.18737">
        <ele>137.3</ele>
        <time>2016-10-06T16:22:48Z</time>
      </trkpt>
      <trkpt lat="49.01444" lon="1.18738">
        <ele>137.3</ele>
        <time>2016-10-06T16:22:50Z</time>
      </trkpt>
      <trkpt lat="49.01455" lon="1.18738">
        <ele>137.3</ele>
        <time>2016-10-06T16:22:52Z</time>
      </trkpt>
      <trkpt lat="49.01465" lon="1.18738">
        <ele>137.4</ele>
        <time>2016-10-06T16:22:54Z</time>
      </trkpt>
      <trkpt lat="49.01475" lon="1.18739">
        <ele>137.4</ele>
        <time>2016-10-06T16:22:56Z</time>
      </trkpt>
      <trkpt lat="49.01485" lon="1.1874">
        <ele>137.4</ele>
        <time>2016-10-06T16:22:58Z</time>
      </trkpt>
      <trkpt lat="49.01494" lon="1.18741">
        <ele>137.4</ele>
        <time>2016-10-06T16:23:00Z</time>
      </trkpt>
      <trkpt lat="49.01504" lon="1.18745">
        <ele>137.5</ele>
        <time>2016-10-06T16:23:04Z</time>
      </trkpt>
      <trkpt lat="49.01513" lon="1.18756">
        <ele>137.5</ele>
        <time>2016-10-06T16:23:08Z</time>
      </trkpt>
      <trkpt lat="49.01518" lon="1.18767">
        <ele>137.6</ele>
        <time>2016-10-06T16:23:11Z</time>
      </trkpt>
      <trkpt lat="49.01522" lon="1.1878">
        <ele>138</ele>
        <time>2016-10-06T16:23:24Z</time>
      </trkpt>
      <trkpt lat="49.01532" lon="1.18778">
        <ele>138.1</ele>
        <time>2016-10-06T16:23:29Z</time>
      </trkpt>
      <trkpt lat="49.01542" lon="1.18772">
        <ele>138.2</ele>
        <time>2016-10-06T16:23:33Z</time>
      </trkpt>
      <trkpt lat="49.01549" lon="1.18758">
        <ele>138.2</ele>
        <time>2016-10-06T16:23:36Z</time>
      </trkpt>
      <trkpt lat="49.01555" lon="1.18747">
        <ele>138.2</ele>
        <time>2016-10-06T16:23:38Z</time>
      </trkpt>
      <trkpt lat="49.01562" lon="1.18734">
        <ele>138.3</ele>
        <time>2016-10-06T16:23:40Z</time>
      </trkpt>
      <trkpt lat="49.01571" lon="1.18725">
        <ele>138.3</ele>
        <time>2016-10-06T16:23:42Z</time>
      </trkpt>
      <trkpt lat="49.01581" lon="1.18718">
        <ele>138.3</ele>
        <time>2016-10-06T16:23:44Z</time>
      </trkpt>
      <trkpt lat="49.0159" lon="1.18709">
        <ele>138.3</ele>
        <time>2016-10-06T16:23:46Z</time>
      </trkpt>
      <trkpt lat="49.016" lon="1.18698">
        <ele>138.3</ele>
        <time>2016-10-06T16:23:48Z</time>
      </trkpt>
      <trkpt lat="49.0161" lon="1.18688">
        <ele>138.4</ele>
        <time>2016-10-06T16:23:50Z</time>
      </trkpt>
      <trkpt lat="49.0162" lon="1.18677">
        <ele>138.4</ele>
        <time>2016-10-06T16:23:52Z</time>
      </trkpt>
      <trkpt lat="49.0163" lon="1.18667">
        <ele>138.4</ele>
        <time>2016-10-06T16:23:54Z</time>
      </trkpt>
      <trkpt lat="49.01639" lon="1.18657">
        <ele>138.5</ele>
        <time>2016-10-06T16:23:56Z</time>
      </trkpt>
      <trkpt lat="49.01649" lon="1.18647">
        <ele>138.5</ele>
        <time>2016-10-06T16:23:58Z</time>
      </trkpt>
      <trkpt lat="49.01659" lon="1.18638">
        <ele>138.6</ele>
        <time>2016-10-06T16:24:00Z</time>
      </trkpt>
      <trkpt lat="49.01669" lon="1.18628">
        <ele>138.8</ele>
        <time>2016-10-06T16:24:02Z</time>
      </trkpt>
      <trkpt lat="49.01678" lon="1.18618">
        <ele>138.9</ele>
        <time>2016-10-06T16:24:04Z</time>
      </trkpt>
      <trkpt lat="49.01687" lon="1.18608">
        <ele>138.9</ele>
        <time>2016-10-06T16:24:06Z</time>
      </trkpt>
      <trkpt lat="49.01697" lon="1.18598">
        <ele>139.1</ele>
        <time>2016-10-06T16:24:08Z</time>
      </trkpt>
      <trkpt lat="49.01707" lon="1.18589">
        <ele>139.2</ele>
        <time>2016-10-06T16:24:10Z</time>
      </trkpt>
      <trkpt lat="49.01716" lon="1.18579">
        <ele>139.3</ele>
        <time>2016-10-06T16:24:12Z</time>
      </trkpt>
      <trkpt lat="49.01726" lon="1.18569">
        <ele>139.4</ele>
        <time>2016-10-06T16:24:14Z</time>
      </trkpt>
      <trkpt lat="49.01735" lon="1.18559">
        <ele>139.5</ele>
        <time>2016-10-06T16:24:16Z</time>
      </trkpt>
      <trkpt lat="49.01744" lon="1.1855">
        <ele>139.6</ele>
        <time>2016-10-06T16:24:18Z</time>
      </trkpt>
      <trkpt lat="49.01754" lon="1.1854">
        <ele>139.7</ele>
        <time>2016-10-06T16:24:20Z</time>
      </trkpt>
      <trkpt lat="49.01763" lon="1.1853">
        <ele>139.8</ele>
        <time>2016-10-06T16:24:22Z</time>
      </trkpt>
      <trkpt lat="49.01773" lon="1.1852">
        <ele>139.9</ele>
        <time>2016-10-06T16:24:24Z</time>
      </trkpt>
      <trkpt lat="49.01783" lon="1.1851">
        <ele>139.9</ele>
        <time>2016-10-06T16:24:26Z</time>
      </trkpt>
      <trkpt lat="49.01793" lon="1.18499">
        <ele>140</ele>
        <time>2016-10-06T16:24:28Z</time>
      </trkpt>
      <trkpt lat="49.01804" lon="1.18489">
        <ele>140.1</ele>
        <time>2016-10-06T16:24:30Z</time>
      </trkpt>
      <trkpt lat="49.01814" lon="1.18479">
        <ele>140.2</ele>
        <time>2016-10-06T16:24:32Z</time>
      </trkpt>
      <trkpt lat="49.01824" lon="1.18468">
        <ele>140.2</ele>
        <time>2016-10-06T16:24:34Z</time>
      </trkpt>
      <trkpt lat="49.01834" lon="1.18457">
        <ele>140.3</ele>
        <time>2016-10-06T16:24:36Z</time>
      </trkpt>
      <trkpt lat="49.01845" lon="1.18446">
        <ele>140.4</ele>
        <time>2016-10-06T16:24:38Z</time>
      </trkpt>
      <trkpt lat="49.01856" lon="1.18435">
        <ele>140.4</ele>
        <time>2016-10-06T16:24:40Z</time>
      </trkpt>
      <trkpt lat="49.01867" lon="1.18424">
        <ele>140.5</ele>
        <time>2016-10-06T16:24:42Z</time>
      </trkpt>
      <trkpt lat="49.01878" lon="1.18412">
        <ele>140.5</ele>
        <time>2016-10-06T16:24:44Z</time>
      </trkpt>
      <trkpt lat="49.01889" lon="1.184">
        <ele>140.5</ele>
        <time>2016-10-06T16:24:46Z</time>
      </trkpt>
      <trkpt lat="49.019" lon="1.18389">
        <ele>140.5</ele>
        <time>2016-10-06T16:24:48Z</time>
      </trkpt>
      <trkpt lat="49.01911" lon="1.18378">
        <ele>140.6</ele>
        <time>2016-10-06T16:24:50Z</time>
      </trkpt>
      <trkpt lat="49.01922" lon="1.18366">
        <ele>140.5</ele>
        <time>2016-10-06T16:24:52Z</time>
      </trkpt>
      <trkpt lat="49.01933" lon="1.18354">
        <ele>140.4</ele>
        <time>2016-10-06T16:24:54Z</time>
      </trkpt>
      <trkpt lat="49.01945" lon="1.18342">
        <ele>140.3</ele>
        <time>2016-10-06T16:24:56Z</time>
      </trkpt>
      <trkpt lat="49.01956" lon="1.18329">
        <ele>140.2</ele>
        <time>2016-10-06T16:24:58Z</time>
      </trkpt>
      <trkpt lat="49.01967" lon="1.18316">
        <ele>140.1</ele>
        <time>2016-10-06T16:25:00Z</time>
      </trkpt>
      <trkpt lat="49.01978" lon="1.18303">
        <ele>139.9</ele>
        <time>2016-10-06T16:25:02Z</time>
      </trkpt>
      <trkpt lat="49.01989" lon="1.18289">
        <ele>139.8</ele>
        <time>2016-10-06T16:25:04Z</time>
      </trkpt>
      <trkpt lat="49.02" lon="1.18276">
        <ele>139.6</ele>
        <time>2016-10-06T16:25:06Z</time>
      </trkpt>
      <trkpt lat="49.02011" lon="1.18263">
        <ele>139.5</ele>
        <time>2016-10-06T16:25:08Z</time>
      </trkpt>
      <trkpt lat="49.02022" lon="1.18252">
        <ele>139.4</ele>
        <time>2016-10-06T16:25:10Z</time>
      </trkpt>
      <trkpt lat="49.02032" lon="1.18241">
        <ele>139.2</ele>
        <time>2016-10-06T16:25:12Z</time>
      </trkpt>
      <trkpt lat="49.02043" lon="1.18234">
        <ele>139.1</ele>
        <time>2016-10-06T16:25:14Z</time>
      </trkpt>
      <trkpt lat="49.02055" lon="1.18237">
        <ele>139</ele>
        <time>2016-10-06T16:25:16Z</time>
      </trkpt>
      <trkpt lat="49.02066" lon="1.18242">
        <ele>138.8</ele>
        <time>2016-10-06T16:25:18Z</time>
      </trkpt>
      <trkpt lat="49.02077" lon="1.18243">
        <ele>138.7</ele>
        <time>2016-10-06T16:25:20Z</time>
      </trkpt>
      <trkpt lat="49.02089" lon="1.18242">
        <ele>138.7</ele>
        <time>2016-10-06T16:25:22Z</time>
      </trkpt>
      <trkpt lat="49.021" lon="1.18239">
        <ele>138.6</ele>
        <time>2016-10-06T16:25:24Z</time>
      </trkpt>
      <trkpt lat="49.02111" lon="1.18234">
        <ele>138.5</ele>
        <time>2016-10-06T16:25:26Z</time>
      </trkpt>
      <trkpt lat="49.02122" lon="1.18227">
        <ele>138.4</ele>
        <time>2016-10-06T16:25:28Z</time>
      </trkpt>
      <trkpt lat="49.02132" lon="1.18219">
        <ele>138.4</ele>
        <time>2016-10-06T16:25:30Z</time>
      </trkpt>
      <trkpt lat="49.02142" lon="1.1821">
        <ele>138.3</ele>
        <time>2016-10-06T16:25:32Z</time>
      </trkpt>
      <trkpt lat="49.02152" lon="1.182">
        <ele>138.2</ele>
        <time>2016-10-06T16:25:34Z</time>
      </trkpt>
      <trkpt lat="49.02162" lon="1.18199">
        <ele>138.1</ele>
        <time>2016-10-06T16:25:36Z</time>
      </trkpt>
      <trkpt lat="49.02171" lon="1.18202">
        <ele>138</ele>
        <time>2016-10-06T16:25:38Z</time>
      </trkpt>
      <trkpt lat="49.02182" lon="1.18204">
        <ele>137.2</ele>
        <time>2016-10-06T16:26:04Z</time>
      </trkpt>
      <trkpt lat="49.02192" lon="1.18215">
        <ele>137</ele>
        <time>2016-10-06T16:26:08Z</time>
      </trkpt>
      <trkpt lat="49.02197" lon="1.18233">
        <ele>137</ele>
        <time>2016-10-06T16:26:11Z</time>
      </trkpt>
      <trkpt lat="49.022" lon="1.18246">
        <ele>137</ele>
        <time>2016-10-06T16:26:13Z</time>
      </trkpt>
      <trkpt lat="49.02204" lon="1.1826">
        <ele>137.1</ele>
        <time>2016-10-06T16:26:15Z</time>
      </trkpt>
      <trkpt lat="49.02207" lon="1.18275">
        <ele>137.1</ele>
        <time>2016-10-06T16:26:17Z</time>
      </trkpt>
      <trkpt lat="49.0221" lon="1.18292">
        <ele>137.1</ele>
        <time>2016-10-06T16:26:19Z</time>
      </trkpt>
      <trkpt lat="49.02211" lon="1.1831">
        <ele>137.1</ele>
        <time>2016-10-06T16:26:21Z</time>
      </trkpt>
      <trkpt lat="49.02211" lon="1.18328">
        <ele>137.1</ele>
        <time>2016-10-06T16:26:23Z</time>
      </trkpt>
      <trkpt lat="49.02212" lon="1.18346">
        <ele>137.1</ele>
        <time>2016-10-06T16:26:25Z</time>
      </trkpt>
      <trkpt lat="49.02213" lon="1.18364">
        <ele>137.2</ele>
        <time>2016-10-06T16:26:27Z</time>
      </trkpt>
      <trkpt lat="49.02215" lon="1.18381">
        <ele>137.2</ele>
        <time>2016-10-06T16:26:29Z</time>
      </trkpt>
      <trkpt lat="49.02216" lon="1.18399">
        <ele>137.2</ele>
        <time>2016-10-06T16:26:31Z</time>
      </trkpt>
      <trkpt lat="49.02217" lon="1.18418">
        <ele>137.2</ele>
        <time>2016-10-06T16:26:33Z</time>
      </trkpt>
      <trkpt lat="49.02218" lon="1.18436">
        <ele>137.2</ele>
        <time>2016-10-06T16:26:35Z</time>
      </trkpt>
      <trkpt lat="49.02219" lon="1.18455">
        <ele>137.2</ele>
        <time>2016-10-06T16:26:37Z</time>
      </trkpt>
      <trkpt lat="49.0222" lon="1.18474">
        <ele>137.2</ele>
        <time>2016-10-06T16:26:39Z</time>
      </trkpt>
      <trkpt lat="49.02221" lon="1.18494">
        <ele>137.2</ele>
        <time>2016-10-06T16:26:41Z</time>
      </trkpt>
      <trkpt lat="49.02222" lon="1.18513">
        <ele>137.2</ele>
        <time>2016-10-06T16:26:43Z</time>
      </trkpt>
      <trkpt lat="49.02223" lon="1.18532">
        <ele>137.2</ele>
        <time>2016-10-06T16:26:45Z</time>
      </trkpt>
      <trkpt lat="49.02224" lon="1.18551">
        <ele>137.2</ele>
        <time>2016-10-06T16:26:47Z</time>
      </trkpt>
      <trkpt lat="49.02225" lon="1.1857">
        <ele>137.2</ele>
        <time>2016-10-06T16:26:49Z</time>
      </trkpt>
      <trkpt lat="49.02226" lon="1.18588">
        <ele>137.2</ele>
        <time>2016-10-06T16:26:51Z</time>
      </trkpt>
      <trkpt lat="49.02227" lon="1.18606">
        <ele>137.2</ele>
        <time>2016-10-06T16:26:53Z</time>
      </trkpt>
      <trkpt lat="49.02228" lon="1.18624">
        <ele>137.2</ele>
        <time>2016-10-06T16:26:55Z</time>
      </trkpt>
      <trkpt lat="49.02229" lon="1.18642">
        <ele>137.2</ele>
        <time>2016-10-06T16:26:57Z</time>
      </trkpt>
      <trkpt lat="49.02231" lon="1.1866">
        <ele>137.2</ele>
        <time>2016-10-06T16:26:59Z</time>
      </trkpt>
      <trkpt lat="49.02232" lon="1.18678">
        <ele>137.2</ele>
        <time>2016-10-06T16:27:01Z</time>
      </trkpt>
      <trkpt lat="49.02233" lon="1.18696">
        <ele>137.2</ele>
        <time>2016-10-06T16:27:03Z</time>
      </trkpt>
      <trkpt lat="49.02234" lon="1.18715">
        <ele>137.2</ele>
        <time>2016-10-06T16:27:05Z</time>
      </trkpt>
      <trkpt lat="49.02235" lon="1.18733">
        <ele>137.2</ele>
        <time>2016-10-06T16:27:07Z</time>
      </trkpt>
      <trkpt lat="49.02236" lon="1.18751">
        <ele>137.2</ele>
        <time>2016-10-06T16:27:09Z</time>
      </trkpt>
      <trkpt lat="49.02237" lon="1.1877">
        <ele>137.2</ele>
        <time>2016-10-06T16:27:11Z</time>
      </trkpt>
      <trkpt lat="49.02238" lon="1.18789">
        <ele>137.2</ele>
        <time>2016-10-06T16:27:13Z</time>
      </trkpt>
      <trkpt lat="49.02239" lon="1.18807">
        <ele>137.2</ele>
        <time>2016-10-06T16:27:15Z</time>
      </trkpt>
      <trkpt lat="49.0224" lon="1.18824">
        <ele>137.1</ele>
        <time>2016-10-06T16:27:17Z</time>
      </trkpt>
      <trkpt lat="49.02241" lon="1.18841">
        <ele>137.1</ele>
        <time>2016-10-06T16:27:19Z</time>
      </trkpt>
      <trkpt lat="49.02242" lon="1.18857">
        <ele>137.1</ele>
        <time>2016-10-06T16:27:21Z</time>
      </trkpt>
      <trkpt lat="49.02242" lon="1.18873">
        <ele>137.1</ele>
        <time>2016-10-06T16:27:23Z</time>
      </trkpt>
      <trkpt lat="49.02242" lon="1.18889">
        <ele>137.2</ele>
        <time>2016-10-06T16:27:25Z</time>
      </trkpt>
      <trkpt lat="49.02238" lon="1.18904">
        <ele>137.2</ele>
        <time>2016-10-06T16:27:27Z</time>
      </trkpt>
      <trkpt lat="49.02232" lon="1.18916">
        <ele>137.2</ele>
        <time>2016-10-06T16:27:29Z</time>
      </trkpt>
      <trkpt lat="49.02226" lon="1.1893">
        <ele>137.2</ele>
        <time>2016-10-06T16:27:31Z</time>
      </trkpt>
      <trkpt lat="49.02224" lon="1.18945">
        <ele>137.2</ele>
        <time>2016-10-06T16:27:33Z</time>
      </trkpt>
      <trkpt lat="49.02227" lon="1.18961">
        <ele>137.2</ele>
        <time>2016-10-06T16:27:35Z</time>
      </trkpt>
      <trkpt lat="49.02234" lon="1.18973">
        <ele>137.2</ele>
        <time>2016-10-06T16:27:37Z</time>
      </trkpt>
      <trkpt lat="49.02244" lon="1.18979">
        <ele>137.2</ele>
        <time>2016-10-06T16:27:39Z</time>
      </trkpt>
      <trkpt lat="49.02254" lon="1.18979">
        <ele>137.2</ele>
        <time>2016-10-06T16:27:41Z</time>
      </trkpt>
      <trkpt lat="49.02264" lon="1.18972">
        <ele>137.2</ele>
        <time>2016-10-06T16:27:43Z</time>
      </trkpt>
      <trkpt lat="49.02272" lon="1.1896">
        <ele>137.2</ele>
        <time>2016-10-06T16:27:45Z</time>
      </trkpt>
      <trkpt lat="49.0228" lon="1.18948">
        <ele>137.2</ele>
        <time>2016-10-06T16:27:47Z</time>
      </trkpt>
      <trkpt lat="49.02291" lon="1.18942">
        <ele>137.2</ele>
        <time>2016-10-06T16:27:49Z</time>
      </trkpt>
      <trkpt lat="49.02303" lon="1.1894">
        <ele>137.2</ele>
        <time>2016-10-06T16:27:51Z</time>
      </trkpt>
      <trkpt lat="49.02316" lon="1.18938">
        <ele>137.2</ele>
        <time>2016-10-06T16:27:53Z</time>
      </trkpt>
      <trkpt lat="49.02327" lon="1.18939">
        <ele>137.2</ele>
        <time>2016-10-06T16:27:55Z</time>
      </trkpt>
      <trkpt lat="49.02338" lon="1.18944">
        <ele>137.1</ele>
        <time>2016-10-06T16:27:58Z</time>
      </trkpt>
      <trkpt lat="49.0235" lon="1.18943">
        <ele>137</ele>
        <time>2016-10-06T16:28:01Z</time>
      </trkpt>
      <trkpt lat="49.02362" lon="1.18942">
        <ele>136.9</ele>
        <time>2016-10-06T16:28:04Z</time>
      </trkpt>
      <trkpt lat="49.02373" lon="1.1894">
        <ele>136.8</ele>
        <time>2016-10-06T16:28:07Z</time>
      </trkpt>
      <trkpt lat="49.02383" lon="1.18939">
        <ele>136.6</ele>
        <time>2016-10-06T16:28:10Z</time>
      </trkpt>
      <trkpt lat="49.02394" lon="1.18938">
        <ele>136.4</ele>
        <time>2016-10-06T16:28:13Z</time>
      </trkpt>
      <trkpt lat="49.02403" lon="1.18937">
        <ele>136.1</ele>
        <time>2016-10-06T16:28:17Z</time>
      </trkpt>
      <trkpt lat="49.02414" lon="1.18934">
        <ele>135.8</ele>
        <time>2016-10-06T16:28:20Z</time>
      </trkpt>
      <trkpt lat="49.02424" lon="1.18932">
        <ele>135.6</ele>
        <time>2016-10-06T16:28:23Z</time>
      </trkpt>
      <trkpt lat="49.02435" lon="1.18927">
        <ele>135.5</ele>
        <time>2016-10-06T16:28:26Z</time>
      </trkpt>
      <trkpt lat="49.02445" lon="1.18924">
        <ele>135.3</ele>
        <time>2016-10-06T16:28:29Z</time>
      </trkpt>
      <trkpt lat="49.02454" lon="1.18915">
        <ele>135.2</ele>
        <time>2016-10-06T16:28:32Z</time>
      </trkpt>
      <trkpt lat="49.02464" lon="1.18908">
        <ele>135.1</ele>
        <time>2016-10-06T16:28:36Z</time>
      </trkpt>
      <trkpt lat="49.02475" lon="1.18902">
        <ele>135</ele>
        <time>2016-10-06T16:28:39Z</time>
      </trkpt>
      <trkpt lat="49.02487" lon="1.18894">
        <ele>134.9</ele>
        <time>2016-10-06T16:28:42Z</time>
      </trkpt>
      <trkpt lat="49.025" lon="1.18893">
        <ele>134.8</ele>
        <time>2016-10-06T16:28:45Z</time>
      </trkpt>
      <trkpt lat="49.0251" lon="1.18889">
        <ele>134.8</ele>
        <time>2016-10-06T16:28:48Z</time>
      </trkpt>
      <trkpt lat="49.02518" lon="1.18882">
        <ele>134.7</ele>
        <time>2016-10-06T16:28:51Z</time>
      </trkpt>
      <trkpt lat="49.02528" lon="1.1887">
        <ele>134.4</ele>
        <time>2016-10-06T16:28:54Z</time>
      </trkpt>
      <trkpt lat="49.02539" lon="1.18859">
        <ele>134.3</ele>
        <time>2016-10-06T16:28:57Z</time>
      </trkpt>
      <trkpt lat="49.02548" lon="1.18847">
        <ele>134.1</ele>
        <time>2016-10-06T16:29:00Z</time>
      </trkpt>
      <trkpt lat="49.02558" lon="1.18837">
        <ele>134</ele>
        <time>2016-10-06T16:29:03Z</time>
      </trkpt>
      <trkpt lat="49.02567" lon="1.18831">
        <ele>133.9</ele>
        <time>2016-10-06T16:29:07Z</time>
      </trkpt>
      <trkpt lat="49.02574" lon="1.18818">
        <ele>133.7</ele>
        <time>2016-10-06T16:29:10Z</time>
      </trkpt>
      <trkpt lat="49.02582" lon="1.18811">
        <ele>133.7</ele>
        <time>2016-10-06T16:29:12Z</time>
      </trkpt>
      <trkpt lat="49.02591" lon="1.18803">
        <ele>133.6</ele>
        <time>2016-10-06T16:29:14Z</time>
      </trkpt>
      <trkpt lat="49.026" lon="1.18795">
        <ele>133.6</ele>
        <time>2016-10-06T16:29:16Z</time>
      </trkpt>
      <trkpt lat="49.0261" lon="1.18788">
        <ele>133.5</ele>
        <time>2016-10-06T16:29:18Z</time>
      </trkpt>
      <trkpt lat="49.02621" lon="1.18786">
        <ele>133.5</ele>
        <time>2016-10-06T16:29:20Z</time>
      </trkpt>
      <trkpt lat="49.02632" lon="1.18788">
        <ele>133.5</ele>
        <time>2016-10-06T16:29:22Z</time>
      </trkpt>
      <trkpt lat="49.02643" lon="1.18786">
        <ele>133.4</ele>
        <time>2016-10-06T16:29:24Z</time>
      </trkpt>
      <trkpt lat="49.02653" lon="1.1878">
        <ele>133.4</ele>
        <time>2016-10-06T16:29:26Z</time>
      </trkpt>
      <trkpt lat="49.02663" lon="1.18771">
        <ele>133.4</ele>
        <time>2016-10-06T16:29:28Z</time>
      </trkpt>
      <trkpt lat="49.02673" lon="1.18762">
        <ele>133.4</ele>
        <time>2016-10-06T16:29:30Z</time>
      </trkpt>
      <trkpt lat="49.02682" lon="1.18753">
        <ele>133.4</ele>
        <time>2016-10-06T16:29:32Z</time>
      </trkpt>
      <trkpt lat="49.02692" lon="1.18744">
        <ele>133.3</ele>
        <time>2016-10-06T16:29:34Z</time>
      </trkpt>
      <trkpt lat="49.027" lon="1.18735">
        <ele>133.3</ele>
        <time>2016-10-06T16:29:36Z</time>
      </trkpt>
      <trkpt lat="49.02705" lon="1.18722">
        <ele>133.3</ele>
        <time>2016-10-06T16:29:38Z</time>
      </trkpt>
      <trkpt lat="49.02713" lon="1.18706">
        <ele>133.3</ele>
        <time>2016-10-06T16:29:41Z</time>
      </trkpt>
      <trkpt lat="49.02722" lon="1.18692">
        <ele>133.3</ele>
        <time>2016-10-06T16:29:44Z</time>
      </trkpt>
      <trkpt lat="49.02726" lon="1.18679">
        <ele>133.3</ele>
        <time>2016-10-06T16:29:46Z</time>
      </trkpt>
      <trkpt lat="49.02728" lon="1.18663">
        <ele>133.2</ele>
        <time>2016-10-06T16:29:48Z</time>
      </trkpt>
      <trkpt lat="49.0273" lon="1.18646">
        <ele>133.1</ele>
        <time>2016-10-06T16:29:50Z</time>
      </trkpt>
      <trkpt lat="49.0273" lon="1.18629">
        <ele>133.1</ele>
        <time>2016-10-06T16:29:52Z</time>
      </trkpt>
      <trkpt lat="49.0273" lon="1.1861">
        <ele>133</ele>
        <time>2016-10-06T16:29:54Z</time>
      </trkpt>
      <trkpt lat="49.02729" lon="1.18592">
        <ele>133</ele>
        <time>2016-10-06T16:29:56Z</time>
      </trkpt>
      <trkpt lat="49.02728" lon="1.18573">
        <ele>132.9</ele>
        <time>2016-10-06T16:29:58Z</time>
      </trkpt>
      <trkpt lat="49.02727" lon="1.18554">
        <ele>132.9</ele>
        <time>2016-10-06T16:30:00Z</time>
      </trkpt>
      <trkpt lat="49.02726" lon="1.18536">
        <ele>132.8</ele>
        <time>2016-10-06T16:30:02Z</time>
      </trkpt>
      <trkpt lat="49.02725" lon="1.1852">
        <ele>132.8</ele>
        <time>2016-10-06T16:30:04Z</time>
      </trkpt>
      <trkpt lat="49.02732" lon="1.18506">
        <ele>132.8</ele>
        <time>2016-10-06T16:30:07Z</time>
      </trkpt>
      <trkpt lat="49.02741" lon="1.18502">
        <ele>132.7</ele>
        <time>2016-10-06T16:30:09Z</time>
      </trkpt>
      <trkpt lat="49.02752" lon="1.18502">
        <ele>132.7</ele>
        <time>2016-10-06T16:30:11Z</time>
      </trkpt>
      <trkpt lat="49.02762" lon="1.185">
        <ele>132.7</ele>
        <time>2016-10-06T16:30:14Z</time>
      </trkpt>
      <trkpt lat="49.02772" lon="1.18505">
        <ele>132.6</ele>
        <time>2016-10-06T16:30:20Z</time>
      </trkpt>
      <trkpt lat="49.02783" lon="1.18506">
        <ele>132.6</ele>
        <time>2016-10-06T16:30:24Z</time>
      </trkpt>
      <trkpt lat="49.02796" lon="1.18505">
        <ele>132.6</ele>
        <time>2016-10-06T16:30:27Z</time>
      </trkpt>
      <trkpt lat="49.02808" lon="1.18504">
        <ele>132.6</ele>
        <time>2016-10-06T16:30:30Z</time>
      </trkpt>
      <trkpt lat="49.02821" lon="1.18502">
        <ele>132.6</ele>
        <time>2016-10-06T16:30:33Z</time>
      </trkpt>
      <trkpt lat="49.02832" lon="1.18505">
        <ele>132.5</ele>
        <time>2016-10-06T16:30:36Z</time>
      </trkpt>
      <trkpt lat="49.02841" lon="1.18512">
        <ele>132.5</ele>
        <time>2016-10-06T16:30:38Z</time>
      </trkpt>
      <trkpt lat="49.02851" lon="1.18522">
        <ele>132.4</ele>
        <time>2016-10-06T16:30:41Z</time>
      </trkpt>
      <trkpt lat="49.02854" lon="1.18542">
        <ele>132.4</ele>
        <time>2016-10-06T16:30:44Z</time>
      </trkpt>
      <trkpt lat="49.02856" lon="1.18558">
        <ele>132.3</ele>
        <time>2016-10-06T16:30:46Z</time>
      </trkpt>
      <trkpt lat="49.02858" lon="1.18575">
        <ele>132.3</ele>
        <time>2016-10-06T16:30:48Z</time>
      </trkpt>
      <trkpt lat="49.02859" lon="1.18592">
        <ele>132.3</ele>
        <time>2016-10-06T16:30:50Z</time>
      </trkpt>
      <trkpt lat="49.02861" lon="1.18609">
        <ele>132.2</ele>
        <time>2016-10-06T16:30:52Z</time>
      </trkpt>
      <trkpt lat="49.02864" lon="1.18626">
        <ele>132.2</ele>
        <time>2016-10-06T16:30:54Z</time>
      </trkpt>
      <trkpt lat="49.02866" lon="1.18643">
        <ele>132.4</ele>
        <time>2016-10-06T16:30:56Z</time>
      </trkpt>
      <trkpt lat="49.02868" lon="1.18659">
        <ele>132.6</ele>
        <time>2016-10-06T16:30:58Z</time>
      </trkpt>
      <trkpt lat="49.02871" lon="1.18675">
        <ele>132.8</ele>
        <time>2016-10-06T16:31:00Z</time>
      </trkpt>
      <trkpt lat="49.02874" lon="1.18692">
        <ele>132.9</ele>
        <time>2016-10-06T16:31:02Z</time>
      </trkpt>
      <trkpt lat="49.02877" lon="1.18708">
        <ele>133.3</ele>
        <time>2016-10-06T16:31:04Z</time>
      </trkpt>
      <trkpt lat="49.0288" lon="1.18724">
        <ele>133.5</ele>
        <time>2016-10-06T16:31:06Z</time>
      </trkpt>
      <trkpt lat="49.02883" lon="1.18741">
        <ele>133.8</ele>
        <time>2016-10-06T16:31:08Z</time>
      </trkpt>
      <trkpt lat="49.02886" lon="1.18758">
        <ele>134</ele>
        <time>2016-10-06T16:31:10Z</time>
      </trkpt>
      <trkpt lat="49.0289" lon="1.18776">
        <ele>134.2</ele>
        <time>2016-10-06T16:31:12Z</time>
      </trkpt>
      <trkpt lat="49.02893" lon="1.18794">
        <ele>134.4</ele>
        <time>2016-10-06T16:31:14Z</time>
      </trkpt>
      <trkpt lat="49.02897" lon="1.18813">
        <ele>134.5</ele>
        <time>2016-10-06T16:31:16Z</time>
      </trkpt>
      <trkpt lat="49.029" lon="1.18832">
        <ele>134.6</ele>
        <time>2016-10-06T16:31:18Z</time>
      </trkpt>
      <trkpt lat="49.02904" lon="1.18853">
        <ele>134.8</ele>
        <time>2016-10-06T16:31:20Z</time>
      </trkpt>
      <trkpt lat="49.02908" lon="1.18874">
        <ele>134.9</ele>
        <time>2016-10-06T16:31:22Z</time>
      </trkpt>
      <trkpt lat="49.02914" lon="1.18895">
        <ele>134.9</ele>
        <time>2016-10-06T16:31:24Z</time>
      </trkpt>
      <trkpt lat="49.02919" lon="1.18916">
        <ele>135</ele>
        <time>2016-10-06T16:31:26Z</time>
      </trkpt>
      <trkpt lat="49.02925" lon="1.18938">
        <ele>134.9</ele>
        <time>2016-10-06T16:31:28Z</time>
      </trkpt>
      <trkpt lat="49.02932" lon="1.18959">
        <ele>134.8</ele>
        <time>2016-10-06T16:31:30Z</time>
      </trkpt>
      <trkpt lat="49.02939" lon="1.18979">
        <ele>134.6</ele>
        <time>2016-10-06T16:31:32Z</time>
      </trkpt>
      <trkpt lat="49.02946" lon="1.19">
        <ele>134.4</ele>
        <time>2016-10-06T16:31:34Z</time>
      </trkpt>
      <trkpt lat="49.02954" lon="1.1902">
        <ele>134.2</ele>
        <time>2016-10-06T16:31:36Z</time>
      </trkpt>
      <trkpt lat="49.02961" lon="1.19039">
        <ele>134</ele>
        <time>2016-10-06T16:31:38Z</time>
      </trkpt>
      <trkpt lat="49.02968" lon="1.19058">
        <ele>133.8</ele>
        <time>2016-10-06T16:31:40Z</time>
      </trkpt>
      <trkpt lat="49.02975" lon="1.19078">
        <ele>133.5</ele>
        <time>2016-10-06T16:31:42Z</time>
      </trkpt>
      <trkpt lat="49.02983" lon="1.19097">
        <ele>133.3</ele>
        <time>2016-10-06T16:31:44Z</time>
      </trkpt>
      <trkpt lat="49.02989" lon="1.19117">
        <ele>133.1</ele>
        <time>2016-10-06T16:31:46Z</time>
      </trkpt>
      <trkpt lat="49.02995" lon="1.19137">
        <ele>132.9</ele>
        <time>2016-10-06T16:31:48Z</time>
      </trkpt>
      <trkpt lat="49.03" lon="1.19157">
        <ele>132.8</ele>
        <time>2016-10-06T16:31:50Z</time>
      </trkpt>
      <trkpt lat="49.03005" lon="1.19177">
        <ele>132.6</ele>
        <time>2016-10-06T16:31:52Z</time>
      </trkpt>
      <trkpt lat="49.0301" lon="1.19197">
        <ele>132.4</ele>
        <time>2016-10-06T16:31:54Z</time>
      </trkpt>
      <trkpt lat="49.03016" lon="1.19218">
        <ele>132.3</ele>
        <time>2016-10-06T16:31:56Z</time>
      </trkpt>
      <trkpt lat="49.03021" lon="1.19239">
        <ele>132.2</ele>
        <time>2016-10-06T16:31:58Z</time>
      </trkpt>
      <trkpt lat="49.03026" lon="1.19259">
        <ele>131.9</ele>
        <time>2016-10-06T16:32:00Z</time>
      </trkpt>
      <trkpt lat="49.03031" lon="1.1928">
        <ele>131.7</ele>
        <time>2016-10-06T16:32:02Z</time>
      </trkpt>
      <trkpt lat="49.03038" lon="1.193">
        <ele>131.4</ele>
        <time>2016-10-06T16:32:04Z</time>
      </trkpt>
      <trkpt lat="49.03045" lon="1.1932">
        <ele>131.1</ele>
        <time>2016-10-06T16:32:06Z</time>
      </trkpt>
      <trkpt lat="49.03053" lon="1.19339">
        <ele>130.8</ele>
        <time>2016-10-06T16:32:08Z</time>
      </trkpt>
      <trkpt lat="49.0306" lon="1.19358">
        <ele>130.6</ele>
        <time>2016-10-06T16:32:10Z</time>
      </trkpt>
      <trkpt lat="49.03066" lon="1.19378">
        <ele>130.4</ele>
        <time>2016-10-06T16:32:12Z</time>
      </trkpt>
      <trkpt lat="49.0307" lon="1.19398">
        <ele>130.2</ele>
        <time>2016-10-06T16:32:14Z</time>
      </trkpt>
      <trkpt lat="49.03071" lon="1.19419">
        <ele>130.1</ele>
        <time>2016-10-06T16:32:16Z</time>
      </trkpt>
      <trkpt lat="49.0307" lon="1.1944">
        <ele>129.9</ele>
        <time>2016-10-06T16:32:18Z</time>
      </trkpt>
      <trkpt lat="49.03067" lon="1.1946">
        <ele>129.8</ele>
        <time>2016-10-06T16:32:20Z</time>
      </trkpt>
      <trkpt lat="49.03063" lon="1.19479">
        <ele>129.7</ele>
        <time>2016-10-06T16:32:22Z</time>
      </trkpt>
      <trkpt lat="49.03061" lon="1.19498">
        <ele>129.6</ele>
        <time>2016-10-06T16:32:24Z</time>
      </trkpt>
      <trkpt lat="49.03062" lon="1.19517">
        <ele>129.6</ele>
        <time>2016-10-06T16:32:26Z</time>
      </trkpt>
      <trkpt lat="49.03067" lon="1.19534">
        <ele>129.8</ele>
        <time>2016-10-06T16:32:28Z</time>
      </trkpt>
      <trkpt lat="49.03073" lon="1.19549">
        <ele>129.9</ele>
        <time>2016-10-06T16:32:30Z</time>
      </trkpt>
      <trkpt lat="49.0308" lon="1.19563">
        <ele>130.1</ele>
        <time>2016-10-06T16:32:32Z</time>
      </trkpt>
      <trkpt lat="49.03088" lon="1.19578">
        <ele>130.2</ele>
        <time>2016-10-06T16:32:34Z</time>
      </trkpt>
      <trkpt lat="49.03095" lon="1.19593">
        <ele>130.3</ele>
        <time>2016-10-06T16:32:36Z</time>
      </trkpt>
      <trkpt lat="49.03102" lon="1.19608">
        <ele>130.4</ele>
        <time>2016-10-06T16:32:38Z</time>
      </trkpt>
      <trkpt lat="49.0311" lon="1.19622">
        <ele>130.5</ele>
        <time>2016-10-06T16:32:40Z</time>
      </trkpt>
      <trkpt lat="49.03117" lon="1.19636">
        <ele>130.6</ele>
        <time>2016-10-06T16:32:42Z</time>
      </trkpt>
      <trkpt lat="49.03125" lon="1.19648">
        <ele>130.7</ele>
        <time>2016-10-06T16:32:44Z</time>
      </trkpt>
      <trkpt lat="49.03133" lon="1.19659">
        <ele>130.9</ele>
        <time>2016-10-06T16:32:46Z</time>
      </trkpt>
      <trkpt lat="49.03144" lon="1.19664">
        <ele>131</ele>
        <time>2016-10-06T16:32:48Z</time>
      </trkpt>
      <trkpt lat="49.03156" lon="1.19663">
        <ele>131.2</ele>
        <time>2016-10-06T16:32:50Z</time>
      </trkpt>
      <trkpt lat="49.03168" lon="1.19661">
        <ele>131.4</ele>
        <time>2016-10-06T16:32:52Z</time>
      </trkpt>
      <trkpt lat="49.0318" lon="1.19659">
        <ele>131.6</ele>
        <time>2016-10-06T16:32:54Z</time>
      </trkpt>
      <trkpt lat="49.03192" lon="1.19657">
        <ele>131.7</ele>
        <time>2016-10-06T16:32:56Z</time>
      </trkpt>
      <trkpt lat="49.03204" lon="1.19654">
        <ele>131.8</ele>
        <time>2016-10-06T16:32:58Z</time>
      </trkpt>
      <trkpt lat="49.03217" lon="1.19651">
        <ele>131.9</ele>
        <time>2016-10-06T16:33:00Z</time>
      </trkpt>
      <trkpt lat="49.03229" lon="1.19647">
        <ele>132</ele>
        <time>2016-10-06T16:33:02Z</time>
      </trkpt>
      <trkpt lat="49.03241" lon="1.19643">
        <ele>132.1</ele>
        <time>2016-10-06T16:33:04Z</time>
      </trkpt>
      <trkpt lat="49.03252" lon="1.19638">
        <ele>132.2</ele>
        <time>2016-10-06T16:33:06Z</time>
      </trkpt>
      <trkpt lat="49.03264" lon="1.1963">
        <ele>132.3</ele>
        <time>2016-10-06T16:33:08Z</time>
      </trkpt>
      <trkpt lat="49.03273" lon="1.19618">
        <ele>132.4</ele>
        <time>2016-10-06T16:33:10Z</time>
      </trkpt>
      <trkpt lat="49.03283" lon="1.19605">
        <ele>132.4</ele>
        <time>2016-10-06T16:33:12Z</time>
      </trkpt>
      <trkpt lat="49.03293" lon="1.19592">
        <ele>132.5</ele>
        <time>2016-10-06T16:33:14Z</time>
      </trkpt>
      <trkpt lat="49.03304" lon="1.1958">
        <ele>132.5</ele>
        <time>2016-10-06T16:33:16Z</time>
      </trkpt>
      <trkpt lat="49.03316" lon="1.19574">
        <ele>132.5</ele>
        <time>2016-10-06T16:33:18Z</time>
      </trkpt>
      <trkpt lat="49.03329" lon="1.1957">
        <ele>132.6</ele>
        <time>2016-10-06T16:33:20Z</time>
      </trkpt>
      <trkpt lat="49.03343" lon="1.19568">
        <ele>132.6</ele>
        <time>2016-10-06T16:33:22Z</time>
      </trkpt>
      <trkpt lat="49.03357" lon="1.19564">
        <ele>132.6</ele>
        <time>2016-10-06T16:33:24Z</time>
      </trkpt>
      <trkpt lat="49.03371" lon="1.19558">
        <ele>132.6</ele>
        <time>2016-10-06T16:33:26Z</time>
      </trkpt>
      <trkpt lat="49.03384" lon="1.19549">
        <ele>132.5</ele>
        <time>2016-10-06T16:33:28Z</time>
      </trkpt>
      <trkpt lat="49.03397" lon="1.19538">
        <ele>132.4</ele>
        <time>2016-10-06T16:33:30Z</time>
      </trkpt>
      <trkpt lat="49.03409" lon="1.19527">
        <ele>132.2</ele>
        <time>2016-10-06T16:33:32Z</time>
      </trkpt>
      <trkpt lat="49.0342" lon="1.19514">
        <ele>132</ele>
        <time>2016-10-06T16:33:34Z</time>
      </trkpt>
      <trkpt lat="49.03431" lon="1.19499">
        <ele>131.8</ele>
        <time>2016-10-06T16:33:36Z</time>
      </trkpt>
      <trkpt lat="49.03441" lon="1.19484">
        <ele>131.6</ele>
        <time>2016-10-06T16:33:38Z</time>
      </trkpt>
      <trkpt lat="49.03451" lon="1.19467">
        <ele>131.2</ele>
        <time>2016-10-06T16:33:40Z</time>
      </trkpt>
      <trkpt lat="49.03462" lon="1.19456">
        <ele>130.9</ele>
        <time>2016-10-06T16:33:42Z</time>
      </trkpt>
      <trkpt lat="49.03473" lon="1.19457">
        <ele>130.6</ele>
        <time>2016-10-06T16:33:44Z</time>
      </trkpt>
      <trkpt lat="49.0348" lon="1.19474">
        <ele>130.3</ele>
        <time>2016-10-06T16:33:47Z</time>
      </trkpt>
      <trkpt lat="49.03486" lon="1.19493">
        <ele>130</ele>
        <time>2016-10-06T16:33:50Z</time>
      </trkpt>
      <trkpt lat="49.03489" lon="1.19508">
        <ele>129.8</ele>
        <time>2016-10-06T16:33:52Z</time>
      </trkpt>
      <trkpt lat="49.03492" lon="1.19526">
        <ele>129.6</ele>
        <time>2016-10-06T16:33:54Z</time>
      </trkpt>
      <trkpt lat="49.03495" lon="1.19544">
        <ele>129.5</ele>
        <time>2016-10-06T16:33:56Z</time>
      </trkpt>
      <trkpt lat="49.03499" lon="1.19563">
        <ele>129.3</ele>
        <time>2016-10-06T16:33:58Z</time>
      </trkpt>
      <trkpt lat="49.03503" lon="1.19581">
        <ele>129.1</ele>
        <time>2016-10-06T16:34:00Z</time>
      </trkpt>
      <trkpt lat="49.03506" lon="1.196">
        <ele>129</ele>
        <time>2016-10-06T16:34:02Z</time>
      </trkpt>
      <trkpt lat="49.03509" lon="1.19618">
        <ele>128.8</ele>
        <time>2016-10-06T16:34:04Z</time>
      </trkpt>
      <trkpt lat="49.03512" lon="1.19638">
        <ele>128.7</ele>
        <time>2016-10-06T16:34:06Z</time>
      </trkpt>
      <trkpt lat="49.03515" lon="1.19657">
        <ele>128.6</ele>
        <time>2016-10-06T16:34:08Z</time>
      </trkpt>
      <trkpt lat="49.03517" lon="1.19677">
        <ele>128.5</ele>
        <time>2016-10-06T16:34:10Z</time>
      </trkpt>
      <trkpt lat="49.03519" lon="1.19696">
        <ele>128.4</ele>
        <time>2016-10-06T16:34:12Z</time>
      </trkpt>
      <trkpt lat="49.0352" lon="1.19716">
        <ele>128.2</ele>
        <time>2016-10-06T16:34:14Z</time>
      </trkpt>
      <trkpt lat="49.03521" lon="1.19737">
        <ele>128</ele>
        <time>2016-10-06T16:34:16Z</time>
      </trkpt>
      <trkpt lat="49.03521" lon="1.19757">
        <ele>127.7</ele>
        <time>2016-10-06T16:34:18Z</time>
      </trkpt>
      <trkpt lat="49.03523" lon="1.19777">
        <ele>127.4</ele>
        <time>2016-10-06T16:34:20Z</time>
      </trkpt>
      <trkpt lat="49.03528" lon="1.19795">
        <ele>127.1</ele>
        <time>2016-10-06T16:34:22Z</time>
      </trkpt>
      <trkpt lat="49.03536" lon="1.19808">
        <ele>126.9</ele>
        <time>2016-10-06T16:34:24Z</time>
      </trkpt>
      <trkpt lat="49.03547" lon="1.19818">
        <ele>126.7</ele>
        <time>2016-10-06T16:34:26Z</time>
      </trkpt>
      <trkpt lat="49.03557" lon="1.19827">
        <ele>126.4</ele>
        <time>2016-10-06T16:34:28Z</time>
      </trkpt>
      <trkpt lat="49.03566" lon="1.19836">
        <ele>126.2</ele>
        <time>2016-10-06T16:34:30Z</time>
      </trkpt>
      <trkpt lat="49.03574" lon="1.19844">
        <ele>126.2</ele>
        <time>2016-10-06T16:34:32Z</time>
      </trkpt>
      <trkpt lat="49.03581" lon="1.19852">
        <ele>126.3</ele>
        <time>2016-10-06T16:34:34Z</time>
      </trkpt>
      <trkpt lat="49.03591" lon="1.19862">
        <ele>126.4</ele>
        <time>2016-10-06T16:34:37Z</time>
      </trkpt>
      <trkpt lat="49.036" lon="1.19863">
        <ele>126.6</ele>
        <time>2016-10-06T16:34:43Z</time>
      </trkpt>
      <trkpt lat="49.0361" lon="1.19854">
        <ele>126.8</ele>
        <time>2016-10-06T16:34:50Z</time>
      </trkpt>
      <trkpt lat="49.03618" lon="1.19845">
        <ele>127</ele>
        <time>2016-10-06T16:34:53Z</time>
      </trkpt>
      <trkpt lat="49.03618" lon="1.19824">
        <ele>127.2</ele>
        <time>2016-10-06T16:34:56Z</time>
      </trkpt>
      <trkpt lat="49.0362" lon="1.19804">
        <ele>127.5</ele>
        <time>2016-10-06T16:34:59Z</time>
      </trkpt>
      <trkpt lat="49.03616" lon="1.19785">
        <ele>127.7</ele>
        <time>2016-10-06T16:35:02Z</time>
      </trkpt>
      <trkpt lat="49.03615" lon="1.19771">
        <ele>127.8</ele>
        <time>2016-10-06T16:35:04Z</time>
      </trkpt>
      <trkpt lat="49.03618" lon="1.1975">
        <ele>127.9</ele>
        <time>2016-10-06T16:35:07Z</time>
      </trkpt>
      <trkpt lat="49.03625" lon="1.19736">
        <ele>128</ele>
        <time>2016-10-06T16:35:09Z</time>
      </trkpt>
      <trkpt lat="49.03631" lon="1.19724">
        <ele>128.1</ele>
        <time>2016-10-06T16:35:11Z</time>
      </trkpt>
      <trkpt lat="49.03638" lon="1.1971">
        <ele>128.2</ele>
        <time>2016-10-06T16:35:14Z</time>
      </trkpt>
      <trkpt lat="49.03646" lon="1.19697">
        <ele>128.4</ele>
        <time>2016-10-06T16:35:17Z</time>
      </trkpt>
      <trkpt lat="49.03657" lon="1.1969">
        <ele>128.7</ele>
        <time>2016-10-06T16:35:20Z</time>
      </trkpt>
      <trkpt lat="49.03668" lon="1.19681">
        <ele>128.9</ele>
        <time>2016-10-06T16:35:23Z</time>
      </trkpt>
      <trkpt lat="49.03675" lon="1.19668">
        <ele>129.2</ele>
        <time>2016-10-06T16:35:26Z</time>
      </trkpt>
      <trkpt lat="49.03682" lon="1.19658">
        <ele>129.4</ele>
        <time>2016-10-06T16:35:28Z</time>
      </trkpt>
      <trkpt lat="49.03694" lon="1.19649">
        <ele>129.7</ele>
        <time>2016-10-06T16:35:31Z</time>
      </trkpt>
      <trkpt lat="49.03701" lon="1.1964">
        <ele>130</ele>
        <time>2016-10-06T16:35:34Z</time>
      </trkpt>
      <trkpt lat="49.03713" lon="1.19626">
        <ele>130.2</ele>
        <time>2016-10-06T16:35:37Z</time>
      </trkpt>
      <trkpt lat="49.03718" lon="1.19615">
        <ele>130.4</ele>
        <time>2016-10-06T16:35:39Z</time>
      </trkpt>
      <trkpt lat="49.03726" lon="1.19603">
        <ele>130.6</ele>
        <time>2016-10-06T16:35:41Z</time>
      </trkpt>
      <trkpt lat="49.03732" lon="1.19592">
        <ele>130.7</ele>
        <time>2016-10-06T16:35:43Z</time>
      </trkpt>
      <trkpt lat="49.03739" lon="1.19581">
        <ele>130.8</ele>
        <time>2016-10-06T16:35:45Z</time>
      </trkpt>
      <trkpt lat="49.03747" lon="1.19568">
        <ele>130.9</ele>
        <time>2016-10-06T16:35:47Z</time>
      </trkpt>
      <trkpt lat="49.03754" lon="1.19553">
        <ele>131</ele>
        <time>2016-10-06T16:35:49Z</time>
      </trkpt>
      <trkpt lat="49.03761" lon="1.19539">
        <ele>131</ele>
        <time>2016-10-06T16:35:51Z</time>
      </trkpt>
      <trkpt lat="49.0377" lon="1.19527">
        <ele>131</ele>
        <time>2016-10-06T16:35:53Z</time>
      </trkpt>
      <trkpt lat="49.03778" lon="1.19517">
        <ele>130.9</ele>
        <time>2016-10-06T16:35:55Z</time>
      </trkpt>
      <trkpt lat="49.03786" lon="1.19506">
        <ele>130.8</ele>
        <time>2016-10-06T16:35:57Z</time>
      </trkpt>
      <trkpt lat="49.03794" lon="1.19494">
        <ele>130.8</ele>
        <time>2016-10-06T16:35:59Z</time>
      </trkpt>
      <trkpt lat="49.038" lon="1.19479">
        <ele>130.7</ele>
        <time>2016-10-06T16:36:01Z</time>
      </trkpt>
      <trkpt lat="49.03805" lon="1.19465">
        <ele>130.6</ele>
        <time>2016-10-06T16:36:03Z</time>
      </trkpt>
      <trkpt lat="49.03812" lon="1.19451">
        <ele>130.4</ele>
        <time>2016-10-06T16:36:05Z</time>
      </trkpt>
      <trkpt lat="49.0382" lon="1.19442">
        <ele>130.3</ele>
        <time>2016-10-06T16:36:07Z</time>
      </trkpt>
      <trkpt lat="49.03827" lon="1.19431">
        <ele>130.2</ele>
        <time>2016-10-06T16:36:09Z</time>
      </trkpt>
      <trkpt lat="49.03831" lon="1.19411">
        <ele>130</ele>
        <time>2016-10-06T16:36:12Z</time>
      </trkpt>
      <trkpt lat="49.03831" lon="1.19394">
        <ele>129.8</ele>
        <time>2016-10-06T16:36:14Z</time>
      </trkpt>
      <trkpt lat="49.03832" lon="1.19376">
        <ele>129.7</ele>
        <time>2016-10-06T16:36:16Z</time>
      </trkpt>
      <trkpt lat="49.03836" lon="1.19359">
        <ele>129.5</ele>
        <time>2016-10-06T16:36:18Z</time>
      </trkpt>
      <trkpt lat="49.03834" lon="1.19343">
        <ele>129.1</ele>
        <time>2016-10-06T16:36:20Z</time>
      </trkpt>
      <trkpt lat="49.0383" lon="1.19328">
        <ele>128.5</ele>
        <time>2016-10-06T16:36:22Z</time>
      </trkpt>
      <trkpt lat="49.03836" lon="1.19312">
        <ele>127.7</ele>
        <time>2016-10-06T16:36:25Z</time>
      </trkpt>
      <trkpt lat="49.03843" lon="1.19301">
        <ele>127.2</ele>
        <time>2016-10-06T16:36:27Z</time>
      </trkpt>
      <trkpt lat="49.03853" lon="1.19287">
        <ele>126.6</ele>
        <time>2016-10-06T16:36:30Z</time>
      </trkpt>
      <trkpt lat="49.03862" lon="1.19276">
        <ele>126.1</ele>
        <time>2016-10-06T16:36:33Z</time>
      </trkpt>
      <trkpt lat="49.0387" lon="1.1927">
        <ele>125.8</ele>
        <time>2016-10-06T16:36:35Z</time>
      </trkpt>
      <trkpt lat="49.03881" lon="1.19261">
        <ele>125.4</ele>
        <time>2016-10-06T16:36:38Z</time>
      </trkpt>
      <trkpt lat="49.03892" lon="1.19252">
        <ele>125.1</ele>
        <time>2016-10-06T16:36:41Z</time>
      </trkpt>
      <trkpt lat="49.03902" lon="1.1924">
        <ele>124.8</ele>
        <time>2016-10-06T16:36:44Z</time>
      </trkpt>
      <trkpt lat="49.03909" lon="1.19231">
        <ele>124.7</ele>
        <time>2016-10-06T16:36:46Z</time>
      </trkpt>
      <trkpt lat="49.03917" lon="1.19223">
        <ele>124.5</ele>
        <time>2016-10-06T16:36:48Z</time>
      </trkpt>
      <trkpt lat="49.03926" lon="1.19215">
        <ele>124.4</ele>
        <time>2016-10-06T16:36:51Z</time>
      </trkpt>
      <trkpt lat="49.03936" lon="1.19209">
        <ele>124.4</ele>
        <time>2016-10-06T16:36:55Z</time>
      </trkpt>
      <trkpt lat="49.03946" lon="1.19202">
        <ele>124.7</ele>
        <time>2016-10-06T16:36:59Z</time>
      </trkpt>
      <trkpt lat="49.03951" lon="1.1919">
        <ele>125.1</ele>
        <time>2016-10-06T16:37:03Z</time>
      </trkpt>
      <trkpt lat="49.03956" lon="1.19176">
        <ele>125.5</ele>
        <time>2016-10-06T16:37:08Z</time>
      </trkpt>
      <trkpt lat="49.03966" lon="1.19169">
        <ele>125.6</ele>
        <time>2016-10-06T16:37:13Z</time>
      </trkpt>
      <trkpt lat="49.03975" lon="1.19163">
        <ele>125.7</ele>
        <time>2016-10-06T16:37:17Z</time>
      </trkpt>
      <trkpt lat="49.03985" lon="1.19166">
        <ele>126</ele>
        <time>2016-10-06T16:37:22Z</time>
      </trkpt>
      <trkpt lat="49.03994" lon="1.19169">
        <ele>126.8</ele>
        <time>2016-10-06T16:37:27Z</time>
      </trkpt>
      <trkpt lat="49.04003" lon="1.19167">
        <ele>127.4</ele>
        <time>2016-10-06T16:37:31Z</time>
      </trkpt>
      <trkpt lat="49.04014" lon="1.19161">
        <ele>127.9</ele>
        <time>2016-10-06T16:37:35Z</time>
      </trkpt>
      <trkpt lat="49.04019" lon="1.19145">
        <ele>128.4</ele>
        <time>2016-10-06T16:37:40Z</time>
      </trkpt>
      <trkpt lat="49.04021" lon="1.1913">
        <ele>128.7</ele>
        <time>2016-10-06T16:37:43Z</time>
      </trkpt>
      <trkpt lat="49.04021" lon="1.1911">
        <ele>128.8</ele>
        <time>2016-10-06T16:37:46Z</time>
      </trkpt>
      <trkpt lat="49.04023" lon="1.19094">
        <ele>128.9</ele>
        <time>2016-10-06T16:37:48Z</time>
      </trkpt>
      <trkpt lat="49.04028" lon="1.19081">
        <ele>128.9</ele>
        <time>2016-10-06T16:37:50Z</time>
      </trkpt>
      <trkpt lat="49.04037" lon="1.19074">
        <ele>128.7</ele>
        <time>2016-10-06T16:37:52Z</time>
      </trkpt>
      <trkpt lat="49.04046" lon="1.1907">
        <ele>128.5</ele>
        <time>2016-10-06T16:37:54Z</time>
      </trkpt>
      <trkpt lat="49.04056" lon="1.19078">
        <ele>128.2</ele>
        <time>2016-10-06T16:37:57Z</time>
      </trkpt>
      <trkpt lat="49.04061" lon="1.19094">
        <ele>127.8</ele>
        <time>2016-10-06T16:38:00Z</time>
      </trkpt>
      <trkpt lat="49.04065" lon="1.19109">
        <ele>127.5</ele>
        <time>2016-10-06T16:38:03Z</time>
      </trkpt>
      <trkpt lat="49.0407" lon="1.19124">
        <ele>127.3</ele>
        <time>2016-10-06T16:38:06Z</time>
      </trkpt>
      <trkpt lat="49.04077" lon="1.19136">
        <ele>127.1</ele>
        <time>2016-10-06T16:38:08Z</time>
      </trkpt>
      <trkpt lat="49.04083" lon="1.19147">
        <ele>127</ele>
        <time>2016-10-06T16:38:10Z</time>
      </trkpt>
      <trkpt lat="49.0409" lon="1.19164">
        <ele>126.9</ele>
        <time>2016-10-06T16:38:13Z</time>
      </trkpt>
      <trkpt lat="49.04096" lon="1.1918">
        <ele>126.8</ele>
        <time>2016-10-06T16:38:16Z</time>
      </trkpt>
      <trkpt lat="49.04101" lon="1.19192">
        <ele>126.7</ele>
        <time>2016-10-06T16:38:18Z</time>
      </trkpt>
      <trkpt lat="49.04107" lon="1.19204">
        <ele>126.7</ele>
        <time>2016-10-06T16:38:20Z</time>
      </trkpt>
      <trkpt lat="49.04112" lon="1.19219">
        <ele>126.6</ele>
        <time>2016-10-06T16:38:23Z</time>
      </trkpt>
      <trkpt lat="49.04118" lon="1.19238">
        <ele>126.6</ele>
        <time>2016-10-06T16:38:26Z</time>
      </trkpt>
      <trkpt lat="49.04123" lon="1.19252">
        <ele>126.7</ele>
        <time>2016-10-06T16:38:28Z</time>
      </trkpt>
      <trkpt lat="49.04127" lon="1.19269">
        <ele>127</ele>
        <time>2016-10-06T16:38:31Z</time>
      </trkpt>
      <trkpt lat="49.0413" lon="1.19283">
        <ele>127.2</ele>
        <time>2016-10-06T16:38:33Z</time>
      </trkpt>
      <trkpt lat="49.04131" lon="1.19298">
        <ele>127.3</ele>
        <time>2016-10-06T16:38:35Z</time>
      </trkpt>
      <trkpt lat="49.04135" lon="1.19316">
        <ele>127.6</ele>
        <time>2016-10-06T16:38:37Z</time>
      </trkpt>
      <trkpt lat="49.0414" lon="1.19336">
        <ele>127.8</ele>
        <time>2016-10-06T16:38:39Z</time>
      </trkpt>
      <trkpt lat="49.04142" lon="1.19354">
        <ele>128.1</ele>
        <time>2016-10-06T16:38:41Z</time>
      </trkpt>
      <trkpt lat="49.04144" lon="1.19369">
        <ele>128.3</ele>
        <time>2016-10-06T16:38:43Z</time>
      </trkpt>
      <trkpt lat="49.04144" lon="1.19384">
        <ele>128.6</ele>
        <time>2016-10-06T16:38:45Z</time>
      </trkpt>
      <trkpt lat="49.04144" lon="1.194">
        <ele>128.8</ele>
        <time>2016-10-06T16:38:47Z</time>
      </trkpt>
      <trkpt lat="49.04142" lon="1.19416">
        <ele>129</ele>
        <time>2016-10-06T16:38:49Z</time>
      </trkpt>
      <trkpt lat="49.04142" lon="1.19432">
        <ele>129.3</ele>
        <time>2016-10-06T16:38:51Z</time>
      </trkpt>
      <trkpt lat="49.0414" lon="1.19446">
        <ele>129.5</ele>
        <time>2016-10-06T16:38:53Z</time>
      </trkpt>
      <trkpt lat="49.04138" lon="1.19461">
        <ele>129.7</ele>
        <time>2016-10-06T16:38:55Z</time>
      </trkpt>
      <trkpt lat="49.04135" lon="1.19475">
        <ele>130</ele>
        <time>2016-10-06T16:38:57Z</time>
      </trkpt>
      <trkpt lat="49.04133" lon="1.1949">
        <ele>130.3</ele>
        <time>2016-10-06T16:39:00Z</time>
      </trkpt>
      <trkpt lat="49.04129" lon="1.19506">
        <ele>130.6</ele>
        <time>2016-10-06T16:39:03Z</time>
      </trkpt>
      <trkpt lat="49.04123" lon="1.19522">
        <ele>130.9</ele>
        <time>2016-10-06T16:39:06Z</time>
      </trkpt>
      <trkpt lat="49.04117" lon="1.19536">
        <ele>131.2</ele>
        <time>2016-10-06T16:39:09Z</time>
      </trkpt>
      <trkpt lat="49.0411" lon="1.1955">
        <ele>131.5</ele>
        <time>2016-10-06T16:39:12Z</time>
      </trkpt>
      <trkpt lat="49.04102" lon="1.19566">
        <ele>131.7</ele>
        <time>2016-10-06T16:39:15Z</time>
      </trkpt>
      <trkpt lat="49.04093" lon="1.19583">
        <ele>131.9</ele>
        <time>2016-10-06T16:39:18Z</time>
      </trkpt>
      <trkpt lat="49.04084" lon="1.19597">
        <ele>132.1</ele>
        <time>2016-10-06T16:39:20Z</time>
      </trkpt>
      <trkpt lat="49.04079" lon="1.1961">
        <ele>132.2</ele>
        <time>2016-10-06T16:39:22Z</time>
      </trkpt>
      <trkpt lat="49.04076" lon="1.19624">
        <ele>132.4</ele>
        <time>2016-10-06T16:39:24Z</time>
      </trkpt>
      <trkpt lat="49.04073" lon="1.1964">
        <ele>132.5</ele>
        <time>2016-10-06T16:39:26Z</time>
      </trkpt>
      <trkpt lat="49.04069" lon="1.19659">
        <ele>132.8</ele>
        <time>2016-10-06T16:39:29Z</time>
      </trkpt>
      <trkpt lat="49.04066" lon="1.19672">
        <ele>133</ele>
        <time>2016-10-06T16:39:31Z</time>
      </trkpt>
      <trkpt lat="49.04062" lon="1.19688">
        <ele>133.3</ele>
        <time>2016-10-06T16:39:34Z</time>
      </trkpt>
      <trkpt lat="49.04058" lon="1.19708">
        <ele>133.6</ele>
        <time>2016-10-06T16:39:37Z</time>
      </trkpt>
      <trkpt lat="49.04058" lon="1.19726">
        <ele>133.8</ele>
        <time>2016-10-06T16:39:39Z</time>
      </trkpt>
      <trkpt lat="49.04055" lon="1.19739">
        <ele>134</ele>
        <time>2016-10-06T16:39:41Z</time>
      </trkpt>
      <trkpt lat="49.04051" lon="1.19757">
        <ele>134.2</ele>
        <time>2016-10-06T16:39:43Z</time>
      </trkpt>
      <trkpt lat="49.04048" lon="1.19773">
        <ele>134.3</ele>
        <time>2016-10-06T16:39:45Z</time>
      </trkpt>
      <trkpt lat="49.04037" lon="1.19786">
        <ele>134.3</ele>
        <time>2016-10-06T16:39:47Z</time>
      </trkpt>
      <trkpt lat="49.04026" lon="1.19794">
        <ele>134.2</ele>
        <time>2016-10-06T16:39:49Z</time>
      </trkpt>
      <trkpt lat="49.04021" lon="1.19807">
        <ele>134.2</ele>
        <time>2016-10-06T16:39:51Z</time>
      </trkpt>
      <trkpt lat="49.04016" lon="1.19822">
        <ele>134.2</ele>
        <time>2016-10-06T16:39:53Z</time>
      </trkpt>
      <trkpt lat="49.04008" lon="1.19834">
        <ele>134.3</ele>
        <time>2016-10-06T16:39:56Z</time>
      </trkpt>
      <trkpt lat="49.04003" lon="1.19846">
        <ele>134.4</ele>
        <time>2016-10-06T16:40:01Z</time>
      </trkpt>
      <trkpt lat="49.04002" lon="1.19861">
        <ele>134.5</ele>
        <time>2016-10-06T16:40:05Z</time>
      </trkpt>
      <trkpt lat="49.04013" lon="1.19857">
        <ele>134.6</ele>
        <time>2016-10-06T16:40:11Z</time>
      </trkpt>
      <trkpt lat="49.04023" lon="1.19852">
        <ele>134.6</ele>
        <time>2016-10-06T16:40:14Z</time>
      </trkpt>
      <trkpt lat="49.04032" lon="1.1985">
        <ele>134.6</ele>
        <time>2016-10-06T16:40:18Z</time>
      </trkpt>
      <trkpt lat="49.04043" lon="1.1985">
        <ele>134.7</ele>
        <time>2016-10-06T16:40:24Z</time>
      </trkpt>
      <trkpt lat="49.04051" lon="1.19847">
        <ele>134.7</ele>
        <time>2016-10-06T16:40:27Z</time>
      </trkpt>
      <trkpt lat="49.04063" lon="1.19845">
        <ele>134.7</ele>
        <time>2016-10-06T16:40:30Z</time>
      </trkpt>
      <trkpt lat="49.04073" lon="1.19844">
        <ele>134.7</ele>
        <time>2016-10-06T16:40:32Z</time>
      </trkpt>
      <trkpt lat="49.04083" lon="1.1984">
        <ele>134.7</ele>
        <time>2016-10-06T16:40:34Z</time>
      </trkpt>
      <trkpt lat="49.04092" lon="1.19838">
        <ele>134.6</ele>
        <time>2016-10-06T16:40:36Z</time>
      </trkpt>
      <trkpt lat="49.04101" lon="1.19834">
        <ele>134.6</ele>
        <time>2016-10-06T16:40:38Z</time>
      </trkpt>
      <trkpt lat="49.04112" lon="1.19829">
        <ele>134.5</ele>
        <time>2016-10-06T16:40:41Z</time>
      </trkpt>
      <trkpt lat="49.04126" lon="1.19827">
        <ele>134.4</ele>
        <time>2016-10-06T16:40:44Z</time>
      </trkpt>
      <trkpt lat="49.04137" lon="1.19833">
        <ele>134.3</ele>
        <time>2016-10-06T16:40:47Z</time>
      </trkpt>
      <trkpt lat="49.04145" lon="1.19842">
        <ele>134.2</ele>
        <time>2016-10-06T16:40:51Z</time>
      </trkpt>
      <trkpt lat="49.0415" lon="1.19853">
        <ele>134</ele>
        <time>2016-10-06T16:40:54Z</time>
      </trkpt>
      <trkpt lat="49.04162" lon="1.19864">
        <ele>133.9</ele>
        <time>2016-10-06T16:40:57Z</time>
      </trkpt>
      <trkpt lat="49.04173" lon="1.19872">
        <ele>133.8</ele>
        <time>2016-10-06T16:40:59Z</time>
      </trkpt>
      <trkpt lat="49.04181" lon="1.19878">
        <ele>133.7</ele>
        <time>2016-10-06T16:41:01Z</time>
      </trkpt>
      <trkpt lat="49.04189" lon="1.19884">
        <ele>133.5</ele>
        <time>2016-10-06T16:41:03Z</time>
      </trkpt>
      <trkpt lat="49.04203" lon="1.19894">
        <ele>133.3</ele>
        <time>2016-10-06T16:41:06Z</time>
      </trkpt>
      <trkpt lat="49.04213" lon="1.199">
        <ele>133.1</ele>
        <time>2016-10-06T16:41:08Z</time>
      </trkpt>
      <trkpt lat="49.04225" lon="1.19909">
        <ele>133</ele>
        <time>2016-10-06T16:41:11Z</time>
      </trkpt>
      <trkpt lat="49.04235" lon="1.19917">
        <ele>132.9</ele>
        <time>2016-10-06T16:41:13Z</time>
      </trkpt>
      <trkpt lat="49.04246" lon="1.19924">
        <ele>132.8</ele>
        <time>2016-10-06T16:41:15Z</time>
      </trkpt>
      <trkpt lat="49.04255" lon="1.19932">
        <ele>132.6</ele>
        <time>2016-10-06T16:41:17Z</time>
      </trkpt>
      <trkpt lat="49.04265" lon="1.1994">
        <ele>132.5</ele>
        <time>2016-10-06T16:41:19Z</time>
      </trkpt>
      <trkpt lat="49.04276" lon="1.19949">
        <ele>132.4</ele>
        <time>2016-10-06T16:41:21Z</time>
      </trkpt>
      <trkpt lat="49.04288" lon="1.19959">
        <ele>132.3</ele>
        <time>2016-10-06T16:41:23Z</time>
      </trkpt>
      <trkpt lat="49.04297" lon="1.19968">
        <ele>132.2</ele>
        <time>2016-10-06T16:41:25Z</time>
      </trkpt>
      <trkpt lat="49.04307" lon="1.19981">
        <ele>131.9</ele>
        <time>2016-10-06T16:41:27Z</time>
      </trkpt>
      <trkpt lat="49.04317" lon="1.19992">
        <ele>131.7</ele>
        <time>2016-10-06T16:41:29Z</time>
      </trkpt>
      <trkpt lat="49.04328" lon="1.20005">
        <ele>131.6</ele>
        <time>2016-10-06T16:41:31Z</time>
      </trkpt>
      <trkpt lat="49.04338" lon="1.20019">
        <ele>131.3</ele>
        <time>2016-10-06T16:41:33Z</time>
      </trkpt>
      <trkpt lat="49.04346" lon="1.20032">
        <ele>131.1</ele>
        <time>2016-10-06T16:41:35Z</time>
      </trkpt>
      <trkpt lat="49.04354" lon="1.20044">
        <ele>130.8</ele>
        <time>2016-10-06T16:41:37Z</time>
      </trkpt>
      <trkpt lat="49.04366" lon="1.20056">
        <ele>130.2</ele>
        <time>2016-10-06T16:41:39Z</time>
      </trkpt>
      <trkpt lat="49.04381" lon="1.2006">
        <ele>129.6</ele>
        <time>2016-10-06T16:41:41Z</time>
      </trkpt>
      <trkpt lat="49.04396" lon="1.20055">
        <ele>129.1</ele>
        <time>2016-10-06T16:41:43Z</time>
      </trkpt>
      <trkpt lat="49.0441" lon="1.20045">
        <ele>128.7</ele>
        <time>2016-10-06T16:41:45Z</time>
      </trkpt>
      <trkpt lat="49.04421" lon="1.20035">
        <ele>128.3</ele>
        <time>2016-10-06T16:41:47Z</time>
      </trkpt>
      <trkpt lat="49.04432" lon="1.20027">
        <ele>127.9</ele>
        <time>2016-10-06T16:41:49Z</time>
      </trkpt>
      <trkpt lat="49.04444" lon="1.20021">
        <ele>127.7</ele>
        <time>2016-10-06T16:41:52Z</time>
      </trkpt>
      <trkpt lat="49.04454" lon="1.20019">
        <ele>127.7</ele>
        <time>2016-10-06T16:41:54Z</time>
      </trkpt>
      <trkpt lat="49.04465" lon="1.20016">
        <ele>127.9</ele>
        <time>2016-10-06T16:41:57Z</time>
      </trkpt>
      <trkpt lat="49.04474" lon="1.20013">
        <ele>128.1</ele>
        <time>2016-10-06T16:41:59Z</time>
      </trkpt>
      <trkpt lat="49.04486" lon="1.20012">
        <ele>128.5</ele>
        <time>2016-10-06T16:42:02Z</time>
      </trkpt>
      <trkpt lat="49.04496" lon="1.20011">
        <ele>128.8</ele>
        <time>2016-10-06T16:42:04Z</time>
      </trkpt>
      <trkpt lat="49.04509" lon="1.20008">
        <ele>129.2</ele>
        <time>2016-10-06T16:42:07Z</time>
      </trkpt>
      <trkpt lat="49.04519" lon="1.2">
        <ele>129.7</ele>
        <time>2016-10-06T16:42:10Z</time>
      </trkpt>
      <trkpt lat="49.04527" lon="1.19992">
        <ele>130</ele>
        <time>2016-10-06T16:42:12Z</time>
      </trkpt>
      <trkpt lat="49.04533" lon="1.19975">
        <ele>130.4</ele>
        <time>2016-10-06T16:42:15Z</time>
      </trkpt>
      <trkpt lat="49.04538" lon="1.19961">
        <ele>130.7</ele>
        <time>2016-10-06T16:42:18Z</time>
      </trkpt>
      <trkpt lat="49.04544" lon="1.19947">
        <ele>131</ele>
        <time>2016-10-06T16:42:21Z</time>
      </trkpt>
      <trkpt lat="49.0455" lon="1.19935">
        <ele>131.2</ele>
        <time>2016-10-06T16:42:24Z</time>
      </trkpt>
      <trkpt lat="49.04559" lon="1.19926">
        <ele>131.5</ele>
        <time>2016-10-06T16:42:27Z</time>
      </trkpt>
      <trkpt lat="49.04569" lon="1.1992">
        <ele>131.8</ele>
        <time>2016-10-06T16:42:30Z</time>
      </trkpt>
      <trkpt lat="49.04582" lon="1.19912">
        <ele>132.1</ele>
        <time>2016-10-06T16:42:33Z</time>
      </trkpt>
      <trkpt lat="49.04593" lon="1.19912">
        <ele>132.3</ele>
        <time>2016-10-06T16:42:36Z</time>
      </trkpt>
      <trkpt lat="49.04602" lon="1.19903">
        <ele>132.6</ele>
        <time>2016-10-06T16:42:40Z</time>
      </trkpt>
      <trkpt lat="49.04608" lon="1.19889">
        <ele>132.8</ele>
        <time>2016-10-06T16:42:44Z</time>
      </trkpt>
      <trkpt lat="49.04611" lon="1.19875">
        <ele>132.9</ele>
        <time>2016-10-06T16:42:47Z</time>
      </trkpt>
      <trkpt lat="49.04617" lon="1.19857">
        <ele>133.1</ele>
        <time>2016-10-06T16:42:50Z</time>
      </trkpt>
      <trkpt lat="49.04622" lon="1.19846">
        <ele>133.2</ele>
        <time>2016-10-06T16:42:52Z</time>
      </trkpt>
      <trkpt lat="49.04631" lon="1.1983">
        <ele>133.5</ele>
        <time>2016-10-06T16:42:55Z</time>
      </trkpt>
      <trkpt lat="49.0464" lon="1.19815">
        <ele>133.8</ele>
        <time>2016-10-06T16:42:58Z</time>
      </trkpt>
      <trkpt lat="49.04648" lon="1.19807">
        <ele>134</ele>
        <time>2016-10-06T16:43:00Z</time>
      </trkpt>
      <trkpt lat="49.04656" lon="1.19798">
        <ele>134.2</ele>
        <time>2016-10-06T16:43:02Z</time>
      </trkpt>
      <trkpt lat="49.04663" lon="1.19788">
        <ele>134.4</ele>
        <time>2016-10-06T16:43:04Z</time>
      </trkpt>
      <trkpt lat="49.0467" lon="1.19778">
        <ele>134.5</ele>
        <time>2016-10-06T16:43:06Z</time>
      </trkpt>
      <trkpt lat="49.04676" lon="1.19766">
        <ele>134.7</ele>
        <time>2016-10-06T16:43:08Z</time>
      </trkpt>
      <trkpt lat="49.04681" lon="1.19753">
        <ele>134.8</ele>
        <time>2016-10-06T16:43:10Z</time>
      </trkpt>
      <trkpt lat="49.04688" lon="1.19742">
        <ele>135</ele>
        <time>2016-10-06T16:43:12Z</time>
      </trkpt>
      <trkpt lat="49.04694" lon="1.19728">
        <ele>135.1</ele>
        <time>2016-10-06T16:43:14Z</time>
      </trkpt>
      <trkpt lat="49.04697" lon="1.19714">
        <ele>135.3</ele>
        <time>2016-10-06T16:43:16Z</time>
      </trkpt>
      <trkpt lat="49.04698" lon="1.19699">
        <ele>135.4</ele>
        <time>2016-10-06T16:43:18Z</time>
      </trkpt>
      <trkpt lat="49.04704" lon="1.19687">
        <ele>135.6</ele>
        <time>2016-10-06T16:43:20Z</time>
      </trkpt>
      <trkpt lat="49.0471" lon="1.19672">
        <ele>135.7</ele>
        <time>2016-10-06T16:43:22Z</time>
      </trkpt>
      <trkpt lat="49.04714" lon="1.19657">
        <ele>135.8</ele>
        <time>2016-10-06T16:43:24Z</time>
      </trkpt>
      <trkpt lat="49.04719" lon="1.19643">
        <ele>135.9</ele>
        <time>2016-10-06T16:43:26Z</time>
      </trkpt>
      <trkpt lat="49.0473" lon="1.19633">
        <ele>136</ele>
        <time>2016-10-06T16:43:29Z</time>
      </trkpt>
      <trkpt lat="49.04743" lon="1.19625">
        <ele>136.1</ele>
        <time>2016-10-06T16:43:32Z</time>
      </trkpt>
      <trkpt lat="49.04757" lon="1.19622">
        <ele>136.3</ele>
        <time>2016-10-06T16:43:35Z</time>
      </trkpt>
      <trkpt lat="49.04766" lon="1.1962">
        <ele>136.4</ele>
        <time>2016-10-06T16:43:37Z</time>
      </trkpt>
      <trkpt lat="49.04777" lon="1.19618">
        <ele>136.5</ele>
        <time>2016-10-06T16:43:39Z</time>
      </trkpt>
      <trkpt lat="49.04788" lon="1.19616">
        <ele>136.6</ele>
        <time>2016-10-06T16:43:41Z</time>
      </trkpt>
      <trkpt lat="49.04799" lon="1.19616">
        <ele>136.7</ele>
        <time>2016-10-06T16:43:43Z</time>
      </trkpt>
      <trkpt lat="49.04811" lon="1.19619">
        <ele>136.8</ele>
        <time>2016-10-06T16:43:45Z</time>
      </trkpt>
      <trkpt lat="49.04821" lon="1.19624">
        <ele>136.9</ele>
        <time>2016-10-06T16:43:47Z</time>
      </trkpt>
      <trkpt lat="49.04832" lon="1.19628">
        <ele>137</ele>
        <time>2016-10-06T16:43:49Z</time>
      </trkpt>
      <trkpt lat="49.04843" lon="1.19631">
        <ele>137</ele>
        <time>2016-10-06T16:43:51Z</time>
      </trkpt>
      <trkpt lat="49.04854" lon="1.19633">
        <ele>137.1</ele>
        <time>2016-10-06T16:43:53Z</time>
      </trkpt>
      <trkpt lat="49.04865" lon="1.19628">
        <ele>137.1</ele>
        <time>2016-10-06T16:43:55Z</time>
      </trkpt>
      <trkpt lat="49.04874" lon="1.1962">
        <ele>137.1</ele>
        <time>2016-10-06T16:43:57Z</time>
      </trkpt>
      <trkpt lat="49.04884" lon="1.19611">
        <ele>137.1</ele>
        <time>2016-10-06T16:43:59Z</time>
      </trkpt>
      <trkpt lat="49.04894" lon="1.19604">
        <ele>137.1</ele>
        <time>2016-10-06T16:44:01Z</time>
      </trkpt>
      <trkpt lat="49.04904" lon="1.19595">
        <ele>137</ele>
        <time>2016-10-06T16:44:03Z</time>
      </trkpt>
      <trkpt lat="49.04913" lon="1.19586">
        <ele>136.9</ele>
        <time>2016-10-06T16:44:05Z</time>
      </trkpt>
      <trkpt lat="49.04921" lon="1.19578">
        <ele>136.9</ele>
        <time>2016-10-06T16:44:07Z</time>
      </trkpt>
      <trkpt lat="49.0493" lon="1.19569">
        <ele>136.9</ele>
        <time>2016-10-06T16:44:09Z</time>
      </trkpt>
      <trkpt lat="49.04941" lon="1.1956">
        <ele>136.8</ele>
        <time>2016-10-06T16:44:11Z</time>
      </trkpt>
      <trkpt lat="49.04952" lon="1.1955">
        <ele>136.7</ele>
        <time>2016-10-06T16:44:13Z</time>
      </trkpt>
      <trkpt lat="49.04961" lon="1.19541">
        <ele>136.6</ele>
        <time>2016-10-06T16:44:15Z</time>
      </trkpt>
      <trkpt lat="49.0497" lon="1.19532">
        <ele>136.5</ele>
        <time>2016-10-06T16:44:17Z</time>
      </trkpt>
      <trkpt lat="49.04978" lon="1.19522">
        <ele>136.5</ele>
        <time>2016-10-06T16:44:19Z</time>
      </trkpt>
      <trkpt lat="49.04989" lon="1.19514">
        <ele>136.4</ele>
        <time>2016-10-06T16:44:21Z</time>
      </trkpt>
      <trkpt lat="49.05" lon="1.19505">
        <ele>136.4</ele>
        <time>2016-10-06T16:44:23Z</time>
      </trkpt>
      <trkpt lat="49.05009" lon="1.19497">
        <ele>136.4</ele>
        <time>2016-10-06T16:44:25Z</time>
      </trkpt>
      <trkpt lat="49.05021" lon="1.19486">
        <ele>136.3</ele>
        <time>2016-10-06T16:44:27Z</time>
      </trkpt>
      <trkpt lat="49.05031" lon="1.19474">
        <ele>136.3</ele>
        <time>2016-10-06T16:44:29Z</time>
      </trkpt>
      <trkpt lat="49.05041" lon="1.19463">
        <ele>136.3</ele>
        <time>2016-10-06T16:44:31Z</time>
      </trkpt>
      <trkpt lat="49.05049" lon="1.19453">
        <ele>136.2</ele>
        <time>2016-10-06T16:44:33Z</time>
      </trkpt>
      <trkpt lat="49.05058" lon="1.19441">
        <ele>136.2</ele>
        <time>2016-10-06T16:44:35Z</time>
      </trkpt>
      <trkpt lat="49.05068" lon="1.19431">
        <ele>136.2</ele>
        <time>2016-10-06T16:44:37Z</time>
      </trkpt>
      <trkpt lat="49.05078" lon="1.1942">
        <ele>136.2</ele>
        <time>2016-10-06T16:44:39Z</time>
      </trkpt>
      <trkpt lat="49.05088" lon="1.1941">
        <ele>136.2</ele>
        <time>2016-10-06T16:44:41Z</time>
      </trkpt>
      <trkpt lat="49.05098" lon="1.19402">
        <ele>136.2</ele>
        <time>2016-10-06T16:44:43Z</time>
      </trkpt>
      <trkpt lat="49.05108" lon="1.19396">
        <ele>136.2</ele>
        <time>2016-10-06T16:44:45Z</time>
      </trkpt>
      <trkpt lat="49.05118" lon="1.1939">
        <ele>136.1</ele>
        <time>2016-10-06T16:44:47Z</time>
      </trkpt>
      <trkpt lat="49.05127" lon="1.19384">
        <ele>136.1</ele>
        <time>2016-10-06T16:44:49Z</time>
      </trkpt>
      <trkpt lat="49.05138" lon="1.19378">
        <ele>136.1</ele>
        <time>2016-10-06T16:44:51Z</time>
      </trkpt>
      <trkpt lat="49.05149" lon="1.19371">
        <ele>136</ele>
        <time>2016-10-06T16:44:53Z</time>
      </trkpt>
      <trkpt lat="49.05159" lon="1.1936">
        <ele>136</ele>
        <time>2016-10-06T16:44:55Z</time>
      </trkpt>
      <trkpt lat="49.0517" lon="1.19346">
        <ele>136</ele>
        <time>2016-10-06T16:44:57Z</time>
      </trkpt>
      <trkpt lat="49.0518" lon="1.19333">
        <ele>135.9</ele>
        <time>2016-10-06T16:44:59Z</time>
      </trkpt>
      <trkpt lat="49.0519" lon="1.1932">
        <ele>135.9</ele>
        <time>2016-10-06T16:45:01Z</time>
      </trkpt>
      <trkpt lat="49.052" lon="1.19306">
        <ele>135.9</ele>
        <time>2016-10-06T16:45:03Z</time>
      </trkpt>
      <trkpt lat="49.0521" lon="1.19291">
        <ele>135.8</ele>
        <time>2016-10-06T16:45:05Z</time>
      </trkpt>
      <trkpt lat="49.05219" lon="1.19277">
        <ele>135.6</ele>
        <time>2016-10-06T16:45:07Z</time>
      </trkpt>
      <trkpt lat="49.05227" lon="1.19261">
        <ele>135.5</ele>
        <time>2016-10-06T16:45:09Z</time>
      </trkpt>
      <trkpt lat="49.05234" lon="1.19244">
        <ele>135.4</ele>
        <time>2016-10-06T16:45:11Z</time>
      </trkpt>
      <trkpt lat="49.05241" lon="1.19229">
        <ele>135.1</ele>
        <time>2016-10-06T16:45:13Z</time>
      </trkpt>
      <trkpt lat="49.05246" lon="1.19217">
        <ele>134.6</ele>
        <time>2016-10-06T16:45:17Z</time>
      </trkpt>
      <trkpt lat="49.05255" lon="1.19209">
        <ele>133.3</ele>
        <time>2016-10-06T16:45:30Z</time>
      </trkpt>
      <trkpt lat="49.05264" lon="1.19203">
        <ele>133.2</ele>
        <time>2016-10-06T16:45:33Z</time>
      </trkpt>
      <trkpt lat="49.05275" lon="1.19191">
        <ele>133</ele>
        <time>2016-10-06T16:45:36Z</time>
      </trkpt>
      <trkpt lat="49.05284" lon="1.19182">
        <ele>132.8</ele>
        <time>2016-10-06T16:45:38Z</time>
      </trkpt>
      <trkpt lat="49.05291" lon="1.19171">
        <ele>132.6</ele>
        <time>2016-10-06T16:45:40Z</time>
      </trkpt>
      <trkpt lat="49.05298" lon="1.1916">
        <ele>132.5</ele>
        <time>2016-10-06T16:45:42Z</time>
      </trkpt>
      <trkpt lat="49.05305" lon="1.19146">
        <ele>132.3</ele>
        <time>2016-10-06T16:45:44Z</time>
      </trkpt>
      <trkpt lat="49.05316" lon="1.19134">
        <ele>132.1</ele>
        <time>2016-10-06T16:45:46Z</time>
      </trkpt>
      <trkpt lat="49.05327" lon="1.19121">
        <ele>131.9</ele>
        <time>2016-10-06T16:45:48Z</time>
      </trkpt>
      <trkpt lat="49.05338" lon="1.19106">
        <ele>131.6</ele>
        <time>2016-10-06T16:45:50Z</time>
      </trkpt>
      <trkpt lat="49.05349" lon="1.19095">
        <ele>131.4</ele>
        <time>2016-10-06T16:45:52Z</time>
      </trkpt>
      <trkpt lat="49.0536" lon="1.19084">
        <ele>131.1</ele>
        <time>2016-10-06T16:45:54Z</time>
      </trkpt>
      <trkpt lat="49.05371" lon="1.19073">
        <ele>130.9</ele>
        <time>2016-10-06T16:45:56Z</time>
      </trkpt>
      <trkpt lat="49.05382" lon="1.19063">
        <ele>130.7</ele>
        <time>2016-10-06T16:45:58Z</time>
      </trkpt>
      <trkpt lat="49.05393" lon="1.19056">
        <ele>130.4</ele>
        <time>2016-10-06T16:46:00Z</time>
      </trkpt>
      <trkpt lat="49.054" lon="1.19047">
        <ele>130.1</ele>
        <time>2016-10-06T16:46:02Z</time>
      </trkpt>
      <trkpt lat="49.05411" lon="1.19041">
        <ele>129.8</ele>
        <time>2016-10-06T16:46:04Z</time>
      </trkpt>
      <trkpt lat="49.05423" lon="1.19034">
        <ele>129.6</ele>
        <time>2016-10-06T16:46:06Z</time>
      </trkpt>
      <trkpt lat="49.05433" lon="1.19025">
        <ele>129.4</ele>
        <time>2016-10-06T16:46:08Z</time>
      </trkpt>
      <trkpt lat="49.05443" lon="1.19015">
        <ele>129.2</ele>
        <time>2016-10-06T16:46:10Z</time>
      </trkpt>
      <trkpt lat="49.05451" lon="1.19002">
        <ele>128.9</ele>
        <time>2016-10-06T16:46:12Z</time>
      </trkpt>
      <trkpt lat="49.05456" lon="1.18986">
        <ele>128.7</ele>
        <time>2016-10-06T16:46:14Z</time>
      </trkpt>
      <trkpt lat="49.05461" lon="1.1897">
        <ele>128.5</ele>
        <time>2016-10-06T16:46:16Z</time>
      </trkpt>
      <trkpt lat="49.05469" lon="1.18958">
        <ele>128.3</ele>
        <time>2016-10-06T16:46:18Z</time>
      </trkpt>
      <trkpt lat="49.05476" lon="1.18943">
        <ele>128.2</ele>
        <time>2016-10-06T16:46:20Z</time>
      </trkpt>
      <trkpt lat="49.05483" lon="1.18933">
        <ele>128</ele>
        <time>2016-10-06T16:46:22Z</time>
      </trkpt>
      <trkpt lat="49.0549" lon="1.18921">
        <ele>127.7</ele>
        <time>2016-10-06T16:46:24Z</time>
      </trkpt>
      <trkpt lat="49.05495" lon="1.18905">
        <ele>127.5</ele>
        <time>2016-10-06T16:46:26Z</time>
      </trkpt>
      <trkpt lat="49.055" lon="1.18888">
        <ele>127.3</ele>
        <time>2016-10-06T16:46:28Z</time>
      </trkpt>
      <trkpt lat="49.05505" lon="1.18872">
        <ele>127.2</ele>
        <time>2016-10-06T16:46:30Z</time>
      </trkpt>
      <trkpt lat="49.0551" lon="1.18855">
        <ele>127</ele>
        <time>2016-10-06T16:46:32Z</time>
      </trkpt>
      <trkpt lat="49.05517" lon="1.18835">
        <ele>126.8</ele>
        <time>2016-10-06T16:46:34Z</time>
      </trkpt>
      <trkpt lat="49.05523" lon="1.18817">
        <ele>126.5</ele>
        <time>2016-10-06T16:46:36Z</time>
      </trkpt>
      <trkpt lat="49.0553" lon="1.188">
        <ele>126.2</ele>
        <time>2016-10-06T16:46:38Z</time>
      </trkpt>
      <trkpt lat="49.05538" lon="1.1878">
        <ele>125.9</ele>
        <time>2016-10-06T16:46:40Z</time>
      </trkpt>
      <trkpt lat="49.05544" lon="1.18759">
        <ele>125.5</ele>
        <time>2016-10-06T16:46:42Z</time>
      </trkpt>
      <trkpt lat="49.05552" lon="1.18741">
        <ele>125.1</ele>
        <time>2016-10-06T16:46:44Z</time>
      </trkpt>
      <trkpt lat="49.05559" lon="1.18725">
        <ele>124.4</ele>
        <time>2016-10-06T16:46:46Z</time>
      </trkpt>
      <trkpt lat="49.05567" lon="1.18709">
        <ele>123.8</ele>
        <time>2016-10-06T16:46:48Z</time>
      </trkpt>
      <trkpt lat="49.05575" lon="1.18689">
        <ele>123.1</ele>
        <time>2016-10-06T16:46:50Z</time>
      </trkpt>
      <trkpt lat="49.05584" lon="1.18668">
        <ele>122.4</ele>
        <time>2016-10-06T16:46:52Z</time>
      </trkpt>
      <trkpt lat="49.05591" lon="1.18644">
        <ele>121.7</ele>
        <time>2016-10-06T16:46:54Z</time>
      </trkpt>
      <trkpt lat="49.05597" lon="1.1862">
        <ele>121</ele>
        <time>2016-10-06T16:46:56Z</time>
      </trkpt>
      <trkpt lat="49.05604" lon="1.18597">
        <ele>120.2</ele>
        <time>2016-10-06T16:46:58Z</time>
      </trkpt>
      <trkpt lat="49.05613" lon="1.18573">
        <ele>119.4</ele>
        <time>2016-10-06T16:47:00Z</time>
      </trkpt>
      <trkpt lat="49.05619" lon="1.18548">
        <ele>118.6</ele>
        <time>2016-10-06T16:47:02Z</time>
      </trkpt>
      <trkpt lat="49.05627" lon="1.18525">
        <ele>117.5</ele>
        <time>2016-10-06T16:47:04Z</time>
      </trkpt>
      <trkpt lat="49.05635" lon="1.18502">
        <ele>116.6</ele>
        <time>2016-10-06T16:47:06Z</time>
      </trkpt>
      <trkpt lat="49.05644" lon="1.1848">
        <ele>115.7</ele>
        <time>2016-10-06T16:47:08Z</time>
      </trkpt>
      <trkpt lat="49.05653" lon="1.18457">
        <ele>114.8</ele>
        <time>2016-10-06T16:47:10Z</time>
      </trkpt>
      <trkpt lat="49.05657" lon="1.18445">
        <ele>114.2</ele>
        <time>2016-10-06T16:47:11Z</time>
      </trkpt>
      <trkpt lat="49.05663" lon="1.18422">
        <ele>113.1</ele>
        <time>2016-10-06T16:47:13Z</time>
      </trkpt>
      <trkpt lat="49.05666" lon="1.18407">
        <ele>112.5</ele>
        <time>2016-10-06T16:47:14Z</time>
      </trkpt>
      <trkpt lat="49.05674" lon="1.18384">
        <ele>111.4</ele>
        <time>2016-10-06T16:47:16Z</time>
      </trkpt>
      <trkpt lat="49.05682" lon="1.18363">
        <ele>110.3</ele>
        <time>2016-10-06T16:47:18Z</time>
      </trkpt>
      <trkpt lat="49.05692" lon="1.18343">
        <ele>109.3</ele>
        <time>2016-10-06T16:47:20Z</time>
      </trkpt>
      <trkpt lat="49.05699" lon="1.18323">
        <ele>108.2</ele>
        <time>2016-10-06T16:47:22Z</time>
      </trkpt>
      <trkpt lat="49.05707" lon="1.18302">
        <ele>107.2</ele>
        <time>2016-10-06T16:47:24Z</time>
      </trkpt>
      <trkpt lat="49.05714" lon="1.18276">
        <ele>106.1</ele>
        <time>2016-10-06T16:47:26Z</time>
      </trkpt>
      <trkpt lat="49.05722" lon="1.18254">
        <ele>105</ele>
        <time>2016-10-06T16:47:28Z</time>
      </trkpt>
      <trkpt lat="49.0573" lon="1.18233">
        <ele>103.9</ele>
        <time>2016-10-06T16:47:30Z</time>
      </trkpt>
      <trkpt lat="49.05735" lon="1.1821">
        <ele>102.8</ele>
        <time>2016-10-06T16:47:32Z</time>
      </trkpt>
      <trkpt lat="49.05741" lon="1.1819">
        <ele>101.5</ele>
        <time>2016-10-06T16:47:34Z</time>
      </trkpt>
      <trkpt lat="49.05741" lon="1.1817">
        <ele>100.4</ele>
        <time>2016-10-06T16:47:36Z</time>
      </trkpt>
      <trkpt lat="49.05734" lon="1.1815">
        <ele>99.2</ele>
        <time>2016-10-06T16:47:38Z</time>
      </trkpt>
      <trkpt lat="49.05729" lon="1.18129">
        <ele>98.2</ele>
        <time>2016-10-06T16:47:40Z</time>
      </trkpt>
      <trkpt lat="49.05724" lon="1.18109">
        <ele>97.2</ele>
        <time>2016-10-06T16:47:42Z</time>
      </trkpt>
      <trkpt lat="49.05721" lon="1.1809">
        <ele>96.3</ele>
        <time>2016-10-06T16:47:44Z</time>
      </trkpt>
      <trkpt lat="49.05715" lon="1.18067">
        <ele>95.4</ele>
        <time>2016-10-06T16:47:46Z</time>
      </trkpt>
      <trkpt lat="49.05711" lon="1.18046">
        <ele>94.5</ele>
        <time>2016-10-06T16:47:48Z</time>
      </trkpt>
      <trkpt lat="49.05706" lon="1.18024">
        <ele>93.6</ele>
        <time>2016-10-06T16:47:50Z</time>
      </trkpt>
      <trkpt lat="49.05703" lon="1.18002">
        <ele>92.6</ele>
        <time>2016-10-06T16:47:52Z</time>
      </trkpt>
      <trkpt lat="49.05701" lon="1.17986">
        <ele>91.7</ele>
        <time>2016-10-06T16:47:54Z</time>
      </trkpt>
      <trkpt lat="49.05695" lon="1.17963">
        <ele>90.9</ele>
        <time>2016-10-06T16:47:56Z</time>
      </trkpt>
      <trkpt lat="49.0569" lon="1.17944">
        <ele>90.1</ele>
        <time>2016-10-06T16:47:58Z</time>
      </trkpt>
      <trkpt lat="49.05687" lon="1.17925">
        <ele>89.4</ele>
        <time>2016-10-06T16:48:00Z</time>
      </trkpt>
      <trkpt lat="49.05682" lon="1.17907">
        <ele>88.7</ele>
        <time>2016-10-06T16:48:02Z</time>
      </trkpt>
      <trkpt lat="49.05678" lon="1.17891">
        <ele>88.1</ele>
        <time>2016-10-06T16:48:04Z</time>
      </trkpt>
      <trkpt lat="49.05677" lon="1.17871">
        <ele>87.5</ele>
        <time>2016-10-06T16:48:06Z</time>
      </trkpt>
      <trkpt lat="49.05676" lon="1.17855">
        <ele>87</ele>
        <time>2016-10-06T16:48:08Z</time>
      </trkpt>
      <trkpt lat="49.05675" lon="1.17838">
        <ele>86.6</ele>
        <time>2016-10-06T16:48:10Z</time>
      </trkpt>
      <trkpt lat="49.05674" lon="1.1782">
        <ele>86.1</ele>
        <time>2016-10-06T16:48:12Z</time>
      </trkpt>
      <trkpt lat="49.05672" lon="1.17802">
        <ele>85.7</ele>
        <time>2016-10-06T16:48:14Z</time>
      </trkpt>
      <trkpt lat="49.05674" lon="1.17783">
        <ele>85.1</ele>
        <time>2016-10-06T16:48:16Z</time>
      </trkpt>
      <trkpt lat="49.05679" lon="1.17764">
        <ele>84.7</ele>
        <time>2016-10-06T16:48:18Z</time>
      </trkpt>
      <trkpt lat="49.05688" lon="1.17747">
        <ele>84.1</ele>
        <time>2016-10-06T16:48:20Z</time>
      </trkpt>
      <trkpt lat="49.05699" lon="1.17731">
        <ele>83.4</ele>
        <time>2016-10-06T16:48:22Z</time>
      </trkpt>
      <trkpt lat="49.05709" lon="1.17711">
        <ele>82.7</ele>
        <time>2016-10-06T16:48:24Z</time>
      </trkpt>
      <trkpt lat="49.05719" lon="1.17691">
        <ele>82</ele>
        <time>2016-10-06T16:48:26Z</time>
      </trkpt>
      <trkpt lat="49.05729" lon="1.17681">
        <ele>81.2</ele>
        <time>2016-10-06T16:48:28Z</time>
      </trkpt>
      <trkpt lat="49.0574" lon="1.17678">
        <ele>80.4</ele>
        <time>2016-10-06T16:48:30Z</time>
      </trkpt>
      <trkpt lat="49.05752" lon="1.1767">
        <ele>79.6</ele>
        <time>2016-10-06T16:48:32Z</time>
      </trkpt>
      <trkpt lat="49.05764" lon="1.17659">
        <ele>78.8</ele>
        <time>2016-10-06T16:48:34Z</time>
      </trkpt>
      <trkpt lat="49.05776" lon="1.17652">
        <ele>78.1</ele>
        <time>2016-10-06T16:48:36Z</time>
      </trkpt>
      <trkpt lat="49.05788" lon="1.17645">
        <ele>77.5</ele>
        <time>2016-10-06T16:48:38Z</time>
      </trkpt>
      <trkpt lat="49.05799" lon="1.17639">
        <ele>76.8</ele>
        <time>2016-10-06T16:48:40Z</time>
      </trkpt>
      <trkpt lat="49.05808" lon="1.17634">
        <ele>76.4</ele>
        <time>2016-10-06T16:48:42Z</time>
      </trkpt>
      <trkpt lat="49.05819" lon="1.1763">
        <ele>75.9</ele>
        <time>2016-10-06T16:48:44Z</time>
      </trkpt>
      <trkpt lat="49.0583" lon="1.1763">
        <ele>75.6</ele>
        <time>2016-10-06T16:48:46Z</time>
      </trkpt>
      <trkpt lat="49.05839" lon="1.17633">
        <ele>75.3</ele>
        <time>2016-10-06T16:48:48Z</time>
      </trkpt>
      <trkpt lat="49.05847" lon="1.1764">
        <ele>75.2</ele>
        <time>2016-10-06T16:48:50Z</time>
      </trkpt>
      <trkpt lat="49.05858" lon="1.1765">
        <ele>75.2</ele>
        <time>2016-10-06T16:48:53Z</time>
      </trkpt>
      <trkpt lat="49.05868" lon="1.17661">
        <ele>75.5</ele>
        <time>2016-10-06T16:48:56Z</time>
      </trkpt>
      <trkpt lat="49.0588" lon="1.17669">
        <ele>75.9</ele>
        <time>2016-10-06T16:48:59Z</time>
      </trkpt>
      <trkpt lat="49.05893" lon="1.17674">
        <ele>76.2</ele>
        <time>2016-10-06T16:49:02Z</time>
      </trkpt>
      <trkpt lat="49.05902" lon="1.17675">
        <ele>76.5</ele>
        <time>2016-10-06T16:49:04Z</time>
      </trkpt>
      <trkpt lat="49.05912" lon="1.17672">
        <ele>76.7</ele>
        <time>2016-10-06T16:49:06Z</time>
      </trkpt>
      <trkpt lat="49.05922" lon="1.17667">
        <ele>76.9</ele>
        <time>2016-10-06T16:49:08Z</time>
      </trkpt>
      <trkpt lat="49.05932" lon="1.17659">
        <ele>77</ele>
        <time>2016-10-06T16:49:10Z</time>
      </trkpt>
      <trkpt lat="49.05943" lon="1.1765">
        <ele>77.2</ele>
        <time>2016-10-06T16:49:12Z</time>
      </trkpt>
      <trkpt lat="49.05953" lon="1.17639">
        <ele>77.3</ele>
        <time>2016-10-06T16:49:14Z</time>
      </trkpt>
      <trkpt lat="49.05962" lon="1.17625">
        <ele>77.3</ele>
        <time>2016-10-06T16:49:16Z</time>
      </trkpt>
      <trkpt lat="49.05968" lon="1.17607">
        <ele>77.2</ele>
        <time>2016-10-06T16:49:18Z</time>
      </trkpt>
      <trkpt lat="49.05974" lon="1.1759">
        <ele>77</ele>
        <time>2016-10-06T16:49:20Z</time>
      </trkpt>
      <trkpt lat="49.05983" lon="1.1758">
        <ele>76.6</ele>
        <time>2016-10-06T16:49:22Z</time>
      </trkpt>
      <trkpt lat="49.05994" lon="1.17576">
        <ele>76.3</ele>
        <time>2016-10-06T16:49:24Z</time>
      </trkpt>
      <trkpt lat="49.06005" lon="1.17571">
        <ele>75.9</ele>
        <time>2016-10-06T16:49:26Z</time>
      </trkpt>
      <trkpt lat="49.06018" lon="1.17565">
        <ele>75.6</ele>
        <time>2016-10-06T16:49:28Z</time>
      </trkpt>
      <trkpt lat="49.06031" lon="1.17558">
        <ele>75.2</ele>
        <time>2016-10-06T16:49:30Z</time>
      </trkpt>
      <trkpt lat="49.06044" lon="1.17552">
        <ele>74.8</ele>
        <time>2016-10-06T16:49:32Z</time>
      </trkpt>
      <trkpt lat="49.06057" lon="1.17547">
        <ele>74.2</ele>
        <time>2016-10-06T16:49:34Z</time>
      </trkpt>
      <trkpt lat="49.06071" lon="1.17541">
        <ele>73.6</ele>
        <time>2016-10-06T16:49:36Z</time>
      </trkpt>
      <trkpt lat="49.06085" lon="1.17533">
        <ele>72.9</ele>
        <time>2016-10-06T16:49:38Z</time>
      </trkpt>
      <trkpt lat="49.06097" lon="1.17522">
        <ele>71.9</ele>
        <time>2016-10-06T16:49:40Z</time>
      </trkpt>
      <trkpt lat="49.06106" lon="1.17505">
        <ele>71</ele>
        <time>2016-10-06T16:49:42Z</time>
      </trkpt>
      <trkpt lat="49.06115" lon="1.17488">
        <ele>70.2</ele>
        <time>2016-10-06T16:49:44Z</time>
      </trkpt>
      <trkpt lat="49.06126" lon="1.17475">
        <ele>69.4</ele>
        <time>2016-10-06T16:49:46Z</time>
      </trkpt>
      <trkpt lat="49.06129" lon="1.1746">
        <ele>68.4</ele>
        <time>2016-10-06T16:49:49Z</time>
      </trkpt>
      <trkpt lat="49.06138" lon="1.17455">
        <ele>67.2</ele>
        <time>2016-10-06T16:49:53Z</time>
      </trkpt>
      <trkpt lat="49.06148" lon="1.17458">
        <ele>66.6</ele>
        <time>2016-10-06T16:49:56Z</time>
      </trkpt>
      <trkpt lat="49.06159" lon="1.17463">
        <ele>66.1</ele>
        <time>2016-10-06T16:49:59Z</time>
      </trkpt>
      <trkpt lat="49.06168" lon="1.17467">
        <ele>65.8</ele>
        <time>2016-10-06T16:50:01Z</time>
      </trkpt>
      <trkpt lat="49.06177" lon="1.17471">
        <ele>65.7</ele>
        <time>2016-10-06T16:50:03Z</time>
      </trkpt>
      <trkpt lat="49.06188" lon="1.17477">
        <ele>65.6</ele>
        <time>2016-10-06T16:50:06Z</time>
      </trkpt>
      <trkpt lat="49.06197" lon="1.17483">
        <ele>65.6</ele>
        <time>2016-10-06T16:50:11Z</time>
      </trkpt>
      <trkpt lat="49.06207" lon="1.17486">
        <ele>65.5</ele>
        <time>2016-10-06T16:50:15Z</time>
      </trkpt>
      <trkpt lat="49.06217" lon="1.17486">
        <ele>65.7</ele>
        <time>2016-10-06T16:50:18Z</time>
      </trkpt>
      <trkpt lat="49.0623" lon="1.17484">
        <ele>65.8</ele>
        <time>2016-10-06T16:50:21Z</time>
      </trkpt>
      <trkpt lat="49.06239" lon="1.17481">
        <ele>65.9</ele>
        <time>2016-10-06T16:50:24Z</time>
      </trkpt>
      <trkpt lat="49.0625" lon="1.17476">
        <ele>66.3</ele>
        <time>2016-10-06T16:50:44Z</time>
      </trkpt>
      <trkpt lat="49.0626" lon="1.17468">
        <ele>66.3</ele>
        <time>2016-10-06T16:50:48Z</time>
      </trkpt>
      <trkpt lat="49.06262" lon="1.17454">
        <ele>66.3</ele>
        <time>2016-10-06T16:50:51Z</time>
      </trkpt>
      <trkpt lat="49.06273" lon="1.1744">
        <ele>66.3</ele>
        <time>2016-10-06T16:50:54Z</time>
      </trkpt>
      <trkpt lat="49.06282" lon="1.17431">
        <ele>66.2</ele>
        <time>2016-10-06T16:50:56Z</time>
      </trkpt>
      <trkpt lat="49.06291" lon="1.1742">
        <ele>66.1</ele>
        <time>2016-10-06T16:50:58Z</time>
      </trkpt>
      <trkpt lat="49.06301" lon="1.17408">
        <ele>66</ele>
        <time>2016-10-06T16:51:00Z</time>
      </trkpt>
      <trkpt lat="49.06311" lon="1.17395">
        <ele>65.8</ele>
        <time>2016-10-06T16:51:02Z</time>
      </trkpt>
      <trkpt lat="49.06322" lon="1.17381">
        <ele>65.5</ele>
        <time>2016-10-06T16:51:04Z</time>
      </trkpt>
      <trkpt lat="49.06332" lon="1.17367">
        <ele>65.2</ele>
        <time>2016-10-06T16:51:06Z</time>
      </trkpt>
      <trkpt lat="49.06343" lon="1.17354">
        <ele>64.8</ele>
        <time>2016-10-06T16:51:08Z</time>
      </trkpt>
      <trkpt lat="49.06353" lon="1.17341">
        <ele>64.4</ele>
        <time>2016-10-06T16:51:10Z</time>
      </trkpt>
      <trkpt lat="49.06363" lon="1.17328">
        <ele>64</ele>
        <time>2016-10-06T16:51:12Z</time>
      </trkpt>
      <trkpt lat="49.06373" lon="1.17314">
        <ele>63.6</ele>
        <time>2016-10-06T16:51:14Z</time>
      </trkpt>
      <trkpt lat="49.06383" lon="1.17301">
        <ele>63.1</ele>
        <time>2016-10-06T16:51:16Z</time>
      </trkpt>
      <trkpt lat="49.06392" lon="1.17289">
        <ele>62.7</ele>
        <time>2016-10-06T16:51:18Z</time>
      </trkpt>
      <trkpt lat="49.06401" lon="1.17278">
        <ele>62.3</ele>
        <time>2016-10-06T16:51:20Z</time>
      </trkpt>
      <trkpt lat="49.0641" lon="1.17271">
        <ele>61.7</ele>
        <time>2016-10-06T16:51:23Z</time>
      </trkpt>
      <trkpt lat="49.06417" lon="1.17263">
        <ele>59.6</ele>
        <time>2016-10-06T16:51:35Z</time>
      </trkpt>
      <trkpt lat="49.06427" lon="1.17257">
        <ele>58.8</ele>
        <time>2016-10-06T16:51:43Z</time>
      </trkpt>
      <trkpt lat="49.06438" lon="1.17259">
        <ele>58.6</ele>
        <time>2016-10-06T16:51:46Z</time>
      </trkpt>
      <trkpt lat="49.06451" lon="1.17263">
        <ele>58.4</ele>
        <time>2016-10-06T16:51:49Z</time>
      </trkpt>
      <trkpt lat="49.06461" lon="1.17264">
        <ele>58.3</ele>
        <time>2016-10-06T16:51:51Z</time>
      </trkpt>
      <trkpt lat="49.06471" lon="1.17265">
        <ele>58.2</ele>
        <time>2016-10-06T16:51:53Z</time>
      </trkpt>
      <trkpt lat="49.06481" lon="1.17266">
        <ele>58.2</ele>
        <time>2016-10-06T16:51:55Z</time>
      </trkpt>
      <trkpt lat="49.06492" lon="1.17267">
        <ele>58.2</ele>
        <time>2016-10-06T16:51:57Z</time>
      </trkpt>
      <trkpt lat="49.06502" lon="1.17267">
        <ele>58.3</ele>
        <time>2016-10-06T16:51:59Z</time>
      </trkpt>
      <trkpt lat="49.06512" lon="1.17268">
        <ele>58.3</ele>
        <time>2016-10-06T16:52:01Z</time>
      </trkpt>
      <trkpt lat="49.06522" lon="1.17269">
        <ele>58.3</ele>
        <time>2016-10-06T16:52:03Z</time>
      </trkpt>
      <trkpt lat="49.06532" lon="1.1727">
        <ele>58.4</ele>
        <time>2016-10-06T16:52:05Z</time>
      </trkpt>
      <trkpt lat="49.06542" lon="1.1727">
        <ele>58.4</ele>
        <time>2016-10-06T16:52:07Z</time>
      </trkpt>
      <trkpt lat="49.06551" lon="1.17271">
        <ele>58.5</ele>
        <time>2016-10-06T16:52:09Z</time>
      </trkpt>
      <trkpt lat="49.0656" lon="1.17271">
        <ele>58.6</ele>
        <time>2016-10-06T16:52:11Z</time>
      </trkpt>
      <trkpt lat="49.06574" lon="1.17273">
        <ele>58.8</ele>
        <time>2016-10-06T16:52:14Z</time>
      </trkpt>
      <trkpt lat="49.06583" lon="1.17273">
        <ele>59</ele>
        <time>2016-10-06T16:52:16Z</time>
      </trkpt>
      <trkpt lat="49.06596" lon="1.17273">
        <ele>59.1</ele>
        <time>2016-10-06T16:52:19Z</time>
      </trkpt>
      <trkpt lat="49.06606" lon="1.17272">
        <ele>59.2</ele>
        <time>2016-10-06T16:52:21Z</time>
      </trkpt>
      <trkpt lat="49.06616" lon="1.17272">
        <ele>59.3</ele>
        <time>2016-10-06T16:52:23Z</time>
      </trkpt>
      <trkpt lat="49.06626" lon="1.17272">
        <ele>59.5</ele>
        <time>2016-10-06T16:52:25Z</time>
      </trkpt>
      <trkpt lat="49.06635" lon="1.17272">
        <ele>59.6</ele>
        <time>2016-10-06T16:52:27Z</time>
      </trkpt>
      <trkpt lat="49.06645" lon="1.17273">
        <ele>59.7</ele>
        <time>2016-10-06T16:52:29Z</time>
      </trkpt>
      <trkpt lat="49.06655" lon="1.17274">
        <ele>59.9</ele>
        <time>2016-10-06T16:52:31Z</time>
      </trkpt>
      <trkpt lat="49.06664" lon="1.17274">
        <ele>60.1</ele>
        <time>2016-10-06T16:52:33Z</time>
      </trkpt>
      <trkpt lat="49.06675" lon="1.17275">
        <ele>60.3</ele>
        <time>2016-10-06T16:52:36Z</time>
      </trkpt>
      <trkpt lat="49.06686" lon="1.17272">
        <ele>60.6</ele>
        <time>2016-10-06T16:52:40Z</time>
      </trkpt>
      <trkpt lat="49.0669" lon="1.17255">
        <ele>60.9</ele>
        <time>2016-10-06T16:52:43Z</time>
      </trkpt>
      <trkpt lat="49.06687" lon="1.17237">
        <ele>61</ele>
        <time>2016-10-06T16:52:45Z</time>
      </trkpt>
      <trkpt lat="49.06681" lon="1.17217">
        <ele>61.1</ele>
        <time>2016-10-06T16:52:47Z</time>
      </trkpt>
      <trkpt lat="49.06675" lon="1.17197">
        <ele>61</ele>
        <time>2016-10-06T16:52:49Z</time>
      </trkpt>
      <trkpt lat="49.06667" lon="1.17175">
        <ele>60.9</ele>
        <time>2016-10-06T16:52:51Z</time>
      </trkpt>
      <trkpt lat="49.06661" lon="1.17153">
        <ele>60.7</ele>
        <time>2016-10-06T16:52:53Z</time>
      </trkpt>
      <trkpt lat="49.06653" lon="1.17133">
        <ele>60.6</ele>
        <time>2016-10-06T16:52:55Z</time>
      </trkpt>
      <trkpt lat="49.06644" lon="1.17113">
        <ele>60.4</ele>
        <time>2016-10-06T16:52:57Z</time>
      </trkpt>
      <trkpt lat="49.06635" lon="1.17095">
        <ele>60.1</ele>
        <time>2016-10-06T16:52:59Z</time>
      </trkpt>
      <trkpt lat="49.06625" lon="1.17078">
        <ele>59.8</ele>
        <time>2016-10-06T16:53:01Z</time>
      </trkpt>
      <trkpt lat="49.06616" lon="1.17061">
        <ele>59.5</ele>
        <time>2016-10-06T16:53:03Z</time>
      </trkpt>
      <trkpt lat="49.06606" lon="1.17045">
        <ele>59.2</ele>
        <time>2016-10-06T16:53:05Z</time>
      </trkpt>
      <trkpt lat="49.06602" lon="1.17028">
        <ele>58.9</ele>
        <time>2016-10-06T16:53:07Z</time>
      </trkpt>
      <trkpt lat="49.06607" lon="1.17012">
        <ele>58.6</ele>
        <time>2016-10-06T16:53:09Z</time>
      </trkpt>
      <trkpt lat="49.06616" lon="1.17">
        <ele>58.3</ele>
        <time>2016-10-06T16:53:11Z</time>
      </trkpt>
      <trkpt lat="49.06627" lon="1.16988">
        <ele>58.1</ele>
        <time>2016-10-06T16:53:13Z</time>
      </trkpt>
      <trkpt lat="49.06636" lon="1.16975">
        <ele>57.9</ele>
        <time>2016-10-06T16:53:15Z</time>
      </trkpt>
      <trkpt lat="49.06646" lon="1.16962">
        <ele>57.7</ele>
        <time>2016-10-06T16:53:17Z</time>
      </trkpt>
      <trkpt lat="49.06655" lon="1.16948">
        <ele>57.5</ele>
        <time>2016-10-06T16:53:19Z</time>
      </trkpt>
      <trkpt lat="49.06663" lon="1.16934">
        <ele>57.3</ele>
        <time>2016-10-06T16:53:21Z</time>
      </trkpt>
      <trkpt lat="49.0667" lon="1.16923">
        <ele>57</ele>
        <time>2016-10-06T16:53:24Z</time>
      </trkpt>
      <trkpt lat="49.06676" lon="1.16912">
        <ele>56.8</ele>
        <time>2016-10-06T16:53:27Z</time>
      </trkpt>
      <trkpt lat="49.06687" lon="1.16902">
        <ele>56.6</ele>
        <time>2016-10-06T16:53:30Z</time>
      </trkpt>
      <trkpt lat="49.06696" lon="1.16892">
        <ele>56.5</ele>
        <time>2016-10-06T16:53:32Z</time>
      </trkpt>
      <trkpt lat="49.06705" lon="1.1688">
        <ele>56.4</ele>
        <time>2016-10-06T16:53:34Z</time>
      </trkpt>
      <trkpt lat="49.06715" lon="1.16867">
        <ele>56.4</ele>
        <time>2016-10-06T16:53:36Z</time>
      </trkpt>
      <trkpt lat="49.06726" lon="1.16853">
        <ele>56.2</ele>
        <time>2016-10-06T16:53:38Z</time>
      </trkpt>
      <trkpt lat="49.06735" lon="1.1684">
        <ele>56.1</ele>
        <time>2016-10-06T16:53:40Z</time>
      </trkpt>
      <trkpt lat="49.06745" lon="1.16827">
        <ele>55.9</ele>
        <time>2016-10-06T16:53:42Z</time>
      </trkpt>
      <trkpt lat="49.06755" lon="1.16813">
        <ele>55.8</ele>
        <time>2016-10-06T16:53:44Z</time>
      </trkpt>
      <trkpt lat="49.06765" lon="1.168">
        <ele>55.7</ele>
        <time>2016-10-06T16:53:46Z</time>
      </trkpt>
      <trkpt lat="49.06775" lon="1.16787">
        <ele>55.5</ele>
        <time>2016-10-06T16:53:48Z</time>
      </trkpt>
      <trkpt lat="49.06784" lon="1.16775">
        <ele>55.3</ele>
        <time>2016-10-06T16:53:50Z</time>
      </trkpt>
      <trkpt lat="49.06794" lon="1.16763">
        <ele>55.2</ele>
        <time>2016-10-06T16:53:52Z</time>
      </trkpt>
      <trkpt lat="49.06803" lon="1.1675">
        <ele>55.1</ele>
        <time>2016-10-06T16:53:54Z</time>
      </trkpt>
      <trkpt lat="49.06812" lon="1.16738">
        <ele>55</ele>
        <time>2016-10-06T16:53:56Z</time>
      </trkpt>
      <trkpt lat="49.06822" lon="1.16726">
        <ele>54.9</ele>
        <time>2016-10-06T16:53:58Z</time>
      </trkpt>
      <trkpt lat="49.06831" lon="1.16713">
        <ele>54.9</ele>
        <time>2016-10-06T16:54:00Z</time>
      </trkpt>
      <trkpt lat="49.0684" lon="1.16701">
        <ele>54.8</ele>
        <time>2016-10-06T16:54:02Z</time>
      </trkpt>
      <trkpt lat="49.0685" lon="1.16689">
        <ele>54.7</ele>
        <time>2016-10-06T16:54:04Z</time>
      </trkpt>
      <trkpt lat="49.06859" lon="1.16676">
        <ele>54.6</ele>
        <time>2016-10-06T16:54:06Z</time>
      </trkpt>
      <trkpt lat="49.06869" lon="1.16664">
        <ele>54.5</ele>
        <time>2016-10-06T16:54:08Z</time>
      </trkpt>
      <trkpt lat="49.06878" lon="1.16651">
        <ele>54.4</ele>
        <time>2016-10-06T16:54:10Z</time>
      </trkpt>
      <trkpt lat="49.06888" lon="1.16638">
        <ele>54.4</ele>
        <time>2016-10-06T16:54:12Z</time>
      </trkpt>
      <trkpt lat="49.06897" lon="1.16626">
        <ele>54.3</ele>
        <time>2016-10-06T16:54:14Z</time>
      </trkpt>
      <trkpt lat="49.06907" lon="1.16613">
        <ele>54.2</ele>
        <time>2016-10-06T16:54:16Z</time>
      </trkpt>
      <trkpt lat="49.06916" lon="1.16601">
        <ele>54.2</ele>
        <time>2016-10-06T16:54:18Z</time>
      </trkpt>
      <trkpt lat="49.06925" lon="1.16588">
        <ele>54.2</ele>
        <time>2016-10-06T16:54:20Z</time>
      </trkpt>
      <trkpt lat="49.06934" lon="1.16576">
        <ele>54.1</ele>
        <time>2016-10-06T16:54:22Z</time>
      </trkpt>
      <trkpt lat="49.06943" lon="1.16563">
        <ele>54.1</ele>
        <time>2016-10-06T16:54:24Z</time>
      </trkpt>
      <trkpt lat="49.06952" lon="1.16551">
        <ele>54.1</ele>
        <time>2016-10-06T16:54:26Z</time>
      </trkpt>
      <trkpt lat="49.06961" lon="1.16539">
        <ele>54</ele>
        <time>2016-10-06T16:54:28Z</time>
      </trkpt>
      <trkpt lat="49.0697" lon="1.16527">
        <ele>54</ele>
        <time>2016-10-06T16:54:30Z</time>
      </trkpt>
      <trkpt lat="49.06979" lon="1.16516">
        <ele>54</ele>
        <time>2016-10-06T16:54:32Z</time>
      </trkpt>
      <trkpt lat="49.06989" lon="1.16505">
        <ele>53.9</ele>
        <time>2016-10-06T16:54:34Z</time>
      </trkpt>
      <trkpt lat="49.07" lon="1.16495">
        <ele>53.9</ele>
        <time>2016-10-06T16:54:36Z</time>
      </trkpt>
      <trkpt lat="49.07011" lon="1.16486">
        <ele>53.9</ele>
        <time>2016-10-06T16:54:38Z</time>
      </trkpt>
      <trkpt lat="49.07021" lon="1.16474">
        <ele>53.8</ele>
        <time>2016-10-06T16:54:40Z</time>
      </trkpt>
      <trkpt lat="49.0703" lon="1.16463">
        <ele>53.8</ele>
        <time>2016-10-06T16:54:42Z</time>
      </trkpt>
      <trkpt lat="49.0704" lon="1.16452">
        <ele>53.8</ele>
        <time>2016-10-06T16:54:44Z</time>
      </trkpt>
      <trkpt lat="49.0705" lon="1.1644">
        <ele>53.8</ele>
        <time>2016-10-06T16:54:46Z</time>
      </trkpt>
      <trkpt lat="49.07059" lon="1.16428">
        <ele>53.7</ele>
        <time>2016-10-06T16:54:48Z</time>
      </trkpt>
      <trkpt lat="49.07067" lon="1.16414">
        <ele>53.6</ele>
        <time>2016-10-06T16:54:50Z</time>
      </trkpt>
      <trkpt lat="49.07076" lon="1.16403">
        <ele>53.6</ele>
        <time>2016-10-06T16:54:52Z</time>
      </trkpt>
      <trkpt lat="49.07085" lon="1.16391">
        <ele>53.5</ele>
        <time>2016-10-06T16:54:54Z</time>
      </trkpt>
      <trkpt lat="49.07095" lon="1.16381">
        <ele>53.5</ele>
        <time>2016-10-06T16:54:56Z</time>
      </trkpt>
      <trkpt lat="49.07104" lon="1.1637">
        <ele>53.4</ele>
        <time>2016-10-06T16:54:58Z</time>
      </trkpt>
      <trkpt lat="49.07114" lon="1.16362">
        <ele>53.4</ele>
        <time>2016-10-06T16:55:00Z</time>
      </trkpt>
      <trkpt lat="49.07124" lon="1.16356">
        <ele>53.5</ele>
        <time>2016-10-06T16:55:02Z</time>
      </trkpt>
      <trkpt lat="49.07135" lon="1.16352">
        <ele>53.5</ele>
        <time>2016-10-06T16:55:04Z</time>
      </trkpt>
      <trkpt lat="49.07145" lon="1.16345">
        <ele>53.5</ele>
        <time>2016-10-06T16:55:06Z</time>
      </trkpt>
      <trkpt lat="49.07155" lon="1.16335">
        <ele>53.6</ele>
        <time>2016-10-06T16:55:08Z</time>
      </trkpt>
      <trkpt lat="49.07162" lon="1.16322">
        <ele>53.6</ele>
        <time>2016-10-06T16:55:10Z</time>
      </trkpt>
      <trkpt lat="49.07169" lon="1.16309">
        <ele>53.6</ele>
        <time>2016-10-06T16:55:12Z</time>
      </trkpt>
      <trkpt lat="49.07176" lon="1.16294">
        <ele>53.6</ele>
        <time>2016-10-06T16:55:14Z</time>
      </trkpt>
      <trkpt lat="49.07183" lon="1.1628">
        <ele>53.6</ele>
        <time>2016-10-06T16:55:16Z</time>
      </trkpt>
      <trkpt lat="49.0719" lon="1.16266">
        <ele>53.6</ele>
        <time>2016-10-06T16:55:18Z</time>
      </trkpt>
      <trkpt lat="49.07198" lon="1.16253">
        <ele>53.6</ele>
        <time>2016-10-06T16:55:20Z</time>
      </trkpt>
      <trkpt lat="49.07207" lon="1.16241">
        <ele>53.6</ele>
        <time>2016-10-06T16:55:22Z</time>
      </trkpt>
      <trkpt lat="49.07216" lon="1.16229">
        <ele>53.6</ele>
        <time>2016-10-06T16:55:24Z</time>
      </trkpt>
      <trkpt lat="49.07224" lon="1.16216">
        <ele>53.6</ele>
        <time>2016-10-06T16:55:26Z</time>
      </trkpt>
      <trkpt lat="49.07231" lon="1.16202">
        <ele>53.6</ele>
        <time>2016-10-06T16:55:28Z</time>
      </trkpt>
      <trkpt lat="49.07238" lon="1.16187">
        <ele>53.6</ele>
        <time>2016-10-06T16:55:30Z</time>
      </trkpt>
      <trkpt lat="49.07245" lon="1.16174">
        <ele>53.5</ele>
        <time>2016-10-06T16:55:32Z</time>
      </trkpt>
      <trkpt lat="49.07254" lon="1.16163">
        <ele>53.5</ele>
        <time>2016-10-06T16:55:34Z</time>
      </trkpt>
      <trkpt lat="49.07258" lon="1.16149">
        <ele>53.5</ele>
        <time>2016-10-06T16:55:36Z</time>
      </trkpt>
      <trkpt lat="49.07253" lon="1.16131">
        <ele>53.4</ele>
        <time>2016-10-06T16:55:39Z</time>
      </trkpt>
      <trkpt lat="49.07256" lon="1.16117">
        <ele>53.4</ele>
        <time>2016-10-06T16:55:43Z</time>
      </trkpt>
      <trkpt lat="49.07266" lon="1.16103">
        <ele>53.4</ele>
        <time>2016-10-06T16:55:46Z</time>
      </trkpt>
      <trkpt lat="49.07273" lon="1.16092">
        <ele>53.4</ele>
        <time>2016-10-06T16:55:48Z</time>
      </trkpt>
      <trkpt lat="49.07281" lon="1.16081">
        <ele>53.4</ele>
        <time>2016-10-06T16:55:50Z</time>
      </trkpt>
      <trkpt lat="49.0729" lon="1.16069">
        <ele>53.4</ele>
        <time>2016-10-06T16:55:52Z</time>
      </trkpt>
      <trkpt lat="49.07298" lon="1.16058">
        <ele>53.5</ele>
        <time>2016-10-06T16:55:54Z</time>
      </trkpt>
      <trkpt lat="49.07306" lon="1.16046">
        <ele>53.5</ele>
        <time>2016-10-06T16:55:56Z</time>
      </trkpt>
      <trkpt lat="49.07315" lon="1.16034">
        <ele>53.5</ele>
        <time>2016-10-06T16:55:58Z</time>
      </trkpt>
      <trkpt lat="49.07324" lon="1.16023">
        <ele>53.5</ele>
        <time>2016-10-06T16:56:00Z</time>
      </trkpt>
      <trkpt lat="49.07333" lon="1.16011">
        <ele>53.6</ele>
        <time>2016-10-06T16:56:02Z</time>
      </trkpt>
      <trkpt lat="49.07342" lon="1.15999">
        <ele>53.6</ele>
        <time>2016-10-06T16:56:04Z</time>
      </trkpt>
      <trkpt lat="49.07351" lon="1.15986">
        <ele>53.6</ele>
        <time>2016-10-06T16:56:06Z</time>
      </trkpt>
      <trkpt lat="49.0736" lon="1.15974">
        <ele>53.5</ele>
        <time>2016-10-06T16:56:08Z</time>
      </trkpt>
      <trkpt lat="49.07369" lon="1.15963">
        <ele>53.4</ele>
        <time>2016-10-06T16:56:10Z</time>
      </trkpt>
      <trkpt lat="49.07378" lon="1.1595">
        <ele>53.3</ele>
        <time>2016-10-06T16:56:12Z</time>
      </trkpt>
      <trkpt lat="49.07386" lon="1.15938">
        <ele>53.1</ele>
        <time>2016-10-06T16:56:14Z</time>
      </trkpt>
      <trkpt lat="49.07395" lon="1.15926">
        <ele>53.1</ele>
        <time>2016-10-06T16:56:16Z</time>
      </trkpt>
      <trkpt lat="49.07404" lon="1.15914">
        <ele>53</ele>
        <time>2016-10-06T16:56:18Z</time>
      </trkpt>
      <trkpt lat="49.07414" lon="1.15902">
        <ele>53</ele>
        <time>2016-10-06T16:56:20Z</time>
      </trkpt>
      <trkpt lat="49.07423" lon="1.15891">
        <ele>53</ele>
        <time>2016-10-06T16:56:22Z</time>
      </trkpt>
      <trkpt lat="49.07432" lon="1.15881">
        <ele>53.1</ele>
        <time>2016-10-06T16:56:24Z</time>
      </trkpt>
      <trkpt lat="49.0744" lon="1.15869">
        <ele>53.1</ele>
        <time>2016-10-06T16:56:26Z</time>
      </trkpt>
      <trkpt lat="49.07449" lon="1.15857">
        <ele>53.1</ele>
        <time>2016-10-06T16:56:28Z</time>
      </trkpt>
      <trkpt lat="49.07456" lon="1.15843">
        <ele>53.1</ele>
        <time>2016-10-06T16:56:30Z</time>
      </trkpt>
      <trkpt lat="49.07462" lon="1.15827">
        <ele>53.1</ele>
        <time>2016-10-06T16:56:32Z</time>
      </trkpt>
      <trkpt lat="49.07468" lon="1.15811">
        <ele>53.1</ele>
        <time>2016-10-06T16:56:34Z</time>
      </trkpt>
      <trkpt lat="49.07475" lon="1.15796">
        <ele>53.1</ele>
        <time>2016-10-06T16:56:36Z</time>
      </trkpt>
      <trkpt lat="49.07482" lon="1.15784">
        <ele>53.1</ele>
        <time>2016-10-06T16:56:38Z</time>
      </trkpt>
      <trkpt lat="49.07485" lon="1.1577">
        <ele>53.1</ele>
        <time>2016-10-06T16:56:40Z</time>
      </trkpt>
      <trkpt lat="49.07489" lon="1.15756">
        <ele>52.9</ele>
        <time>2016-10-06T16:56:43Z</time>
      </trkpt>
      <trkpt lat="49.07496" lon="1.15746">
        <ele>52.6</ele>
        <time>2016-10-06T16:56:49Z</time>
      </trkpt>
      <trkpt lat="49.07493" lon="1.15731">
        <ele>52.5</ele>
        <time>2016-10-06T16:56:54Z</time>
      </trkpt>
      <trkpt lat="49.07486" lon="1.1572">
        <ele>52.4</ele>
        <time>2016-10-06T16:56:57Z</time>
      </trkpt>
      <trkpt lat="49.07478" lon="1.15704">
        <ele>52.3</ele>
        <time>2016-10-06T16:57:00Z</time>
      </trkpt>
      <trkpt lat="49.07473" lon="1.15693">
        <ele>52.3</ele>
        <time>2016-10-06T16:57:02Z</time>
      </trkpt>
      <trkpt lat="49.07467" lon="1.1568">
        <ele>52.3</ele>
        <time>2016-10-06T16:57:04Z</time>
      </trkpt>
      <trkpt lat="49.0746" lon="1.15667">
        <ele>52.4</ele>
        <time>2016-10-06T16:57:06Z</time>
      </trkpt>
      <trkpt lat="49.07453" lon="1.15653">
        <ele>52.4</ele>
        <time>2016-10-06T16:57:08Z</time>
      </trkpt>
      <trkpt lat="49.07446" lon="1.1564">
        <ele>52.4</ele>
        <time>2016-10-06T16:57:10Z</time>
      </trkpt>
      <trkpt lat="49.07439" lon="1.15626">
        <ele>52.4</ele>
        <time>2016-10-06T16:57:12Z</time>
      </trkpt>
      <trkpt lat="49.07432" lon="1.15613">
        <ele>52.4</ele>
        <time>2016-10-06T16:57:14Z</time>
      </trkpt>
      <trkpt lat="49.07425" lon="1.156">
        <ele>52.4</ele>
        <time>2016-10-06T16:57:16Z</time>
      </trkpt>
      <trkpt lat="49.07418" lon="1.15586">
        <ele>52.4</ele>
        <time>2016-10-06T16:57:18Z</time>
      </trkpt>
      <trkpt lat="49.0741" lon="1.15573">
        <ele>52.4</ele>
        <time>2016-10-06T16:57:20Z</time>
      </trkpt>
      <trkpt lat="49.07403" lon="1.15559">
        <ele>52.4</ele>
        <time>2016-10-06T16:57:22Z</time>
      </trkpt>
      <trkpt lat="49.07395" lon="1.15545">
        <ele>52.4</ele>
        <time>2016-10-06T16:57:24Z</time>
      </trkpt>
      <trkpt lat="49.07388" lon="1.15531">
        <ele>52.4</ele>
        <time>2016-10-06T16:57:26Z</time>
      </trkpt>
      <trkpt lat="49.0738" lon="1.15517">
        <ele>52.4</ele>
        <time>2016-10-06T16:57:28Z</time>
      </trkpt>
      <trkpt lat="49.07372" lon="1.15504">
        <ele>52.4</ele>
        <time>2016-10-06T16:57:30Z</time>
      </trkpt>
      <trkpt lat="49.07365" lon="1.15491">
        <ele>52.4</ele>
        <time>2016-10-06T16:57:32Z</time>
      </trkpt>
      <trkpt lat="49.07358" lon="1.15478">
        <ele>52.4</ele>
        <time>2016-10-06T16:57:34Z</time>
      </trkpt>
      <trkpt lat="49.07352" lon="1.15466">
        <ele>52.4</ele>
        <time>2016-10-06T16:57:36Z</time>
      </trkpt>
      <trkpt lat="49.07345" lon="1.15453">
        <ele>52.5</ele>
        <time>2016-10-06T16:57:38Z</time>
      </trkpt>
      <trkpt lat="49.07339" lon="1.15442">
        <ele>52.5</ele>
        <time>2016-10-06T16:57:40Z</time>
      </trkpt>
      <trkpt lat="49.07332" lon="1.15431">
        <ele>52.6</ele>
        <time>2016-10-06T16:57:42Z</time>
      </trkpt>
      <trkpt lat="49.07325" lon="1.1542">
        <ele>52.8</ele>
        <time>2016-10-06T16:57:44Z</time>
      </trkpt>
      <trkpt lat="49.07318" lon="1.15407">
        <ele>52.9</ele>
        <time>2016-10-06T16:57:46Z</time>
      </trkpt>
      <trkpt lat="49.07311" lon="1.15394">
        <ele>53</ele>
        <time>2016-10-06T16:57:48Z</time>
      </trkpt>
      <trkpt lat="49.07304" lon="1.15382">
        <ele>53.1</ele>
        <time>2016-10-06T16:57:50Z</time>
      </trkpt>
      <trkpt lat="49.07298" lon="1.15369">
        <ele>53.2</ele>
        <time>2016-10-06T16:57:52Z</time>
      </trkpt>
      <trkpt lat="49.07291" lon="1.15357">
        <ele>53.4</ele>
        <time>2016-10-06T16:57:54Z</time>
      </trkpt>
      <trkpt lat="49.07285" lon="1.15345">
        <ele>53.6</ele>
        <time>2016-10-06T16:57:56Z</time>
      </trkpt>
      <trkpt lat="49.07279" lon="1.15333">
        <ele>53.8</ele>
        <time>2016-10-06T16:57:58Z</time>
      </trkpt>
      <trkpt lat="49.07272" lon="1.15321">
        <ele>54</ele>
        <time>2016-10-06T16:58:00Z</time>
      </trkpt>
      <trkpt lat="49.07266" lon="1.1531">
        <ele>54.2</ele>
        <time>2016-10-06T16:58:02Z</time>
      </trkpt>
      <trkpt lat="49.0726" lon="1.15299">
        <ele>54.5</ele>
        <time>2016-10-06T16:58:04Z</time>
      </trkpt>
      <trkpt lat="49.07255" lon="1.15288">
        <ele>54.7</ele>
        <time>2016-10-06T16:58:06Z</time>
      </trkpt>
      <trkpt lat="49.07249" lon="1.15277">
        <ele>55.1</ele>
        <time>2016-10-06T16:58:08Z</time>
      </trkpt>
      <trkpt lat="49.07241" lon="1.15261">
        <ele>55.6</ele>
        <time>2016-10-06T16:58:11Z</time>
      </trkpt>
      <trkpt lat="49.07233" lon="1.15246">
        <ele>56</ele>
        <time>2016-10-06T16:58:14Z</time>
      </trkpt>
      <trkpt lat="49.07225" lon="1.15232">
        <ele>56.4</ele>
        <time>2016-10-06T16:58:17Z</time>
      </trkpt>
      <trkpt lat="49.07217" lon="1.15218">
        <ele>56.9</ele>
        <time>2016-10-06T16:58:20Z</time>
      </trkpt>
      <trkpt lat="49.07209" lon="1.15207">
        <ele>57.5</ele>
        <time>2016-10-06T16:58:23Z</time>
      </trkpt>
      <trkpt lat="49.07203" lon="1.15196">
        <ele>58.2</ele>
        <time>2016-10-06T16:58:26Z</time>
      </trkpt>
      <trkpt lat="49.07196" lon="1.15185">
        <ele>59</ele>
        <time>2016-10-06T16:58:29Z</time>
      </trkpt>
      <trkpt lat="49.07188" lon="1.15173">
        <ele>60.2</ele>
        <time>2016-10-06T16:58:33Z</time>
      </trkpt>
      <trkpt lat="49.07182" lon="1.15159">
        <ele>61.6</ele>
        <time>2016-10-06T16:58:37Z</time>
      </trkpt>
      <trkpt lat="49.07179" lon="1.15145">
        <ele>63</ele>
        <time>2016-10-06T16:58:41Z</time>
      </trkpt>
      <trkpt lat="49.07185" lon="1.15132">
        <ele>64.2</ele>
        <time>2016-10-06T16:58:45Z</time>
      </trkpt>
      <trkpt lat="49.07192" lon="1.15117">
        <ele>65.3</ele>
        <time>2016-10-06T16:58:49Z</time>
      </trkpt>
      <trkpt lat="49.07198" lon="1.15103">
        <ele>66.1</ele>
        <time>2016-10-06T16:58:52Z</time>
      </trkpt>
      <trkpt lat="49.07204" lon="1.15091">
        <ele>66.8</ele>
        <time>2016-10-06T16:58:55Z</time>
      </trkpt>
      <trkpt lat="49.07212" lon="1.15077">
        <ele>67.6</ele>
        <time>2016-10-06T16:58:59Z</time>
      </trkpt>
      <trkpt lat="49.07218" lon="1.15066">
        <ele>68.2</ele>
        <time>2016-10-06T16:59:02Z</time>
      </trkpt>
      <trkpt lat="49.07225" lon="1.15053">
        <ele>68.8</ele>
        <time>2016-10-06T16:59:05Z</time>
      </trkpt>
      <trkpt lat="49.07232" lon="1.1504">
        <ele>69.3</ele>
        <time>2016-10-06T16:59:08Z</time>
      </trkpt>
      <trkpt lat="49.07239" lon="1.15024">
        <ele>69.8</ele>
        <time>2016-10-06T16:59:11Z</time>
      </trkpt>
      <trkpt lat="49.07245" lon="1.15008">
        <ele>70.3</ele>
        <time>2016-10-06T16:59:14Z</time>
      </trkpt>
      <trkpt lat="49.07243" lon="1.14989">
        <ele>70.7</ele>
        <time>2016-10-06T16:59:17Z</time>
      </trkpt>
      <trkpt lat="49.07236" lon="1.14973">
        <ele>71.1</ele>
        <time>2016-10-06T16:59:20Z</time>
      </trkpt>
      <trkpt lat="49.0723" lon="1.1496">
        <ele>71.5</ele>
        <time>2016-10-06T16:59:23Z</time>
      </trkpt>
      <trkpt lat="49.07221" lon="1.14947">
        <ele>72</ele>
        <time>2016-10-06T16:59:26Z</time>
      </trkpt>
      <trkpt lat="49.07212" lon="1.14937">
        <ele>72.4</ele>
        <time>2016-10-06T16:59:29Z</time>
      </trkpt>
      <trkpt lat="49.07203" lon="1.14925">
        <ele>73</ele>
        <time>2016-10-06T16:59:32Z</time>
      </trkpt>
      <trkpt lat="49.07195" lon="1.14916">
        <ele>73.4</ele>
        <time>2016-10-06T16:59:35Z</time>
      </trkpt>
      <trkpt lat="49.07187" lon="1.1491">
        <ele>74.1</ele>
        <time>2016-10-06T16:59:38Z</time>
      </trkpt>
      <trkpt lat="49.07176" lon="1.14907">
        <ele>75.2</ele>
        <time>2016-10-06T16:59:43Z</time>
      </trkpt>
      <trkpt lat="49.07165" lon="1.14907">
        <ele>76.1</ele>
        <time>2016-10-06T16:59:47Z</time>
      </trkpt>
      <trkpt lat="49.07155" lon="1.14906">
        <ele>77.4</ele>
        <time>2016-10-06T16:59:52Z</time>
      </trkpt>
      <trkpt lat="49.07146" lon="1.14905">
        <ele>78.8</ele>
        <time>2016-10-06T16:59:57Z</time>
      </trkpt>
      <trkpt lat="49.07137" lon="1.14905">
        <ele>80.5</ele>
        <time>2016-10-06T17:00:03Z</time>
      </trkpt>
      <trkpt lat="49.07127" lon="1.14903">
        <ele>82</ele>
        <time>2016-10-06T17:00:08Z</time>
      </trkpt>
      <trkpt lat="49.07117" lon="1.14902">
        <ele>83.6</ele>
        <time>2016-10-06T17:00:13Z</time>
      </trkpt>
      <trkpt lat="49.07106" lon="1.149">
        <ele>85.6</ele>
        <time>2016-10-06T17:00:19Z</time>
      </trkpt>
      <trkpt lat="49.07096" lon="1.14894">
        <ele>87.4</ele>
        <time>2016-10-06T17:00:25Z</time>
      </trkpt>
      <trkpt lat="49.07085" lon="1.1489">
        <ele>89</ele>
        <time>2016-10-06T17:00:30Z</time>
      </trkpt>
      <trkpt lat="49.07077" lon="1.14882">
        <ele>90.9</ele>
        <time>2016-10-06T17:00:36Z</time>
      </trkpt>
      <trkpt lat="49.07075" lon="1.14868">
        <ele>94.1</ele>
        <time>2016-10-06T17:00:46Z</time>
      </trkpt>
      <trkpt lat="49.07081" lon="1.14856">
        <ele>95.7</ele>
        <time>2016-10-06T17:00:51Z</time>
      </trkpt>
      <trkpt lat="49.07083" lon="1.14843">
        <ele>96.9</ele>
        <time>2016-10-06T17:00:55Z</time>
      </trkpt>
      <trkpt lat="49.07085" lon="1.14829">
        <ele>98.7</ele>
        <time>2016-10-06T17:01:01Z</time>
      </trkpt>
      <trkpt lat="49.07086" lon="1.14815">
        <ele>100.5</ele>
        <time>2016-10-06T17:01:07Z</time>
      </trkpt>
      <trkpt lat="49.07085" lon="1.148">
        <ele>102</ele>
        <time>2016-10-06T17:01:12Z</time>
      </trkpt>
      <trkpt lat="49.07082" lon="1.14783">
        <ele>103.8</ele>
        <time>2016-10-06T17:01:18Z</time>
      </trkpt>
      <trkpt lat="49.07079" lon="1.1477">
        <ele>105.2</ele>
        <time>2016-10-06T17:01:23Z</time>
      </trkpt>
      <trkpt lat="49.07076" lon="1.14757">
        <ele>106.3</ele>
        <time>2016-10-06T17:01:27Z</time>
      </trkpt>
      <trkpt lat="49.07074" lon="1.14742">
        <ele>107.4</ele>
        <time>2016-10-06T17:01:31Z</time>
      </trkpt>
      <trkpt lat="49.07069" lon="1.14728">
        <ele>108.7</ele>
        <time>2016-10-06T17:01:36Z</time>
      </trkpt>
      <trkpt lat="49.07065" lon="1.14713">
        <ele>109.8</ele>
        <time>2016-10-06T17:01:40Z</time>
      </trkpt>
      <trkpt lat="49.07061" lon="1.14695">
        <ele>110.8</ele>
        <time>2016-10-06T17:01:44Z</time>
      </trkpt>
      <trkpt lat="49.07058" lon="1.14681">
        <ele>111.4</ele>
        <time>2016-10-06T17:01:47Z</time>
      </trkpt>
      <trkpt lat="49.07054" lon="1.14669">
        <ele>112</ele>
        <time>2016-10-06T17:01:50Z</time>
      </trkpt>
      <trkpt lat="49.0705" lon="1.14653">
        <ele>112.8</ele>
        <time>2016-10-06T17:01:54Z</time>
      </trkpt>
      <trkpt lat="49.07045" lon="1.1464">
        <ele>113.4</ele>
        <time>2016-10-06T17:01:57Z</time>
      </trkpt>
      <trkpt lat="49.07043" lon="1.14627">
        <ele>114.1</ele>
        <time>2016-10-06T17:02:00Z</time>
      </trkpt>
      <trkpt lat="49.07038" lon="1.14612">
        <ele>115.1</ele>
        <time>2016-10-06T17:02:04Z</time>
      </trkpt>
      <trkpt lat="49.07035" lon="1.14596">
        <ele>116.2</ele>
        <time>2016-10-06T17:02:08Z</time>
      </trkpt>
      <trkpt lat="49.07031" lon="1.1458">
        <ele>117.2</ele>
        <time>2016-10-06T17:02:12Z</time>
      </trkpt>
      <trkpt lat="49.07029" lon="1.14566">
        <ele>117.9</ele>
        <time>2016-10-06T17:02:15Z</time>
      </trkpt>
      <trkpt lat="49.07024" lon="1.14551">
        <ele>118.6</ele>
        <time>2016-10-06T17:02:18Z</time>
      </trkpt>
      <trkpt lat="49.07024" lon="1.14537">
        <ele>119.1</ele>
        <time>2016-10-06T17:02:21Z</time>
      </trkpt>
      <trkpt lat="49.07019" lon="1.1452">
        <ele>119.6</ele>
        <time>2016-10-06T17:02:24Z</time>
      </trkpt>
      <trkpt lat="49.07014" lon="1.14504">
        <ele>120.2</ele>
        <time>2016-10-06T17:02:27Z</time>
      </trkpt>
      <trkpt lat="49.07007" lon="1.14489">
        <ele>120.7</ele>
        <time>2016-10-06T17:02:30Z</time>
      </trkpt>
      <trkpt lat="49.07001" lon="1.14475">
        <ele>121.3</ele>
        <time>2016-10-06T17:02:33Z</time>
      </trkpt>
      <trkpt lat="49.06996" lon="1.14461">
        <ele>121.9</ele>
        <time>2016-10-06T17:02:36Z</time>
      </trkpt>
      <trkpt lat="49.06988" lon="1.14448">
        <ele>122.6</ele>
        <time>2016-10-06T17:02:39Z</time>
      </trkpt>
      <trkpt lat="49.06981" lon="1.14435">
        <ele>123.3</ele>
        <time>2016-10-06T17:02:42Z</time>
      </trkpt>
      <trkpt lat="49.06974" lon="1.14425">
        <ele>124.1</ele>
        <time>2016-10-06T17:02:45Z</time>
      </trkpt>
      <trkpt lat="49.06967" lon="1.14415">
        <ele>125.2</ele>
        <time>2016-10-06T17:02:49Z</time>
      </trkpt>
      <trkpt lat="49.06962" lon="1.14404">
        <ele>126.3</ele>
        <time>2016-10-06T17:02:53Z</time>
      </trkpt>
      <trkpt lat="49.06957" lon="1.14392">
        <ele>127.5</ele>
        <time>2016-10-06T17:02:58Z</time>
      </trkpt>
      <trkpt lat="49.06967" lon="1.144">
        <ele>130.1</ele>
        <time>2016-10-06T17:03:16Z</time>
      </trkpt>
      <trkpt lat="49.06976" lon="1.14411">
        <ele>130.2</ele>
        <time>2016-10-06T17:03:20Z</time>
      </trkpt>
      <trkpt lat="49.06982" lon="1.14425">
        <ele>130</ele>
        <time>2016-10-06T17:03:24Z</time>
      </trkpt>
      <trkpt lat="49.06976" lon="1.14415">
        <ele>128.8</ele>
        <time>2016-10-06T17:03:37Z</time>
      </trkpt>
      <trkpt lat="49.06969" lon="1.14401">
        <ele>128.8</ele>
        <time>2016-10-06T17:03:41Z</time>
      </trkpt>
      <trkpt lat="49.06961" lon="1.14388">
        <ele>129</ele>
        <time>2016-10-06T17:03:45Z</time>
      </trkpt>
      <trkpt lat="49.06956" lon="1.14376">
        <ele>129.4</ele>
        <time>2016-10-06T17:03:48Z</time>
      </trkpt>
      <trkpt lat="49.0695" lon="1.14365">
        <ele>129.8</ele>
        <time>2016-10-06T17:03:52Z</time>
      </trkpt>
      <trkpt lat="49.06943" lon="1.14352">
        <ele>130.5</ele>
        <time>2016-10-06T17:03:57Z</time>
      </trkpt>
      <trkpt lat="49.06937" lon="1.14339">
        <ele>131</ele>
        <time>2016-10-06T17:04:01Z</time>
      </trkpt>
      <trkpt lat="49.0693" lon="1.14326">
        <ele>131.4</ele>
        <time>2016-10-06T17:04:05Z</time>
      </trkpt>
      <trkpt lat="49.06924" lon="1.14312">
        <ele>131.9</ele>
        <time>2016-10-06T17:04:09Z</time>
      </trkpt>
      <trkpt lat="49.06918" lon="1.14298">
        <ele>132.3</ele>
        <time>2016-10-06T17:04:13Z</time>
      </trkpt>
      <trkpt lat="49.0691" lon="1.14285">
        <ele>132.8</ele>
        <time>2016-10-06T17:04:17Z</time>
      </trkpt>
      <trkpt lat="49.06903" lon="1.14272">
        <ele>133.2</ele>
        <time>2016-10-06T17:04:21Z</time>
      </trkpt>
      <trkpt lat="49.06894" lon="1.14264">
        <ele>133.5</ele>
        <time>2016-10-06T17:04:24Z</time>
      </trkpt>
      <trkpt lat="49.06886" lon="1.14251">
        <ele>134.1</ele>
        <time>2016-10-06T17:04:28Z</time>
      </trkpt>
      <trkpt lat="49.06878" lon="1.14241">
        <ele>134.4</ele>
        <time>2016-10-06T17:04:31Z</time>
      </trkpt>
      <trkpt lat="49.06869" lon="1.14234">
        <ele>134.7</ele>
        <time>2016-10-06T17:04:34Z</time>
      </trkpt>
      <trkpt lat="49.0686" lon="1.14224">
        <ele>134.9</ele>
        <time>2016-10-06T17:04:37Z</time>
      </trkpt>
      <trkpt lat="49.06852" lon="1.14217">
        <ele>135.3</ele>
        <time>2016-10-06T17:04:40Z</time>
      </trkpt>
      <trkpt lat="49.06844" lon="1.14206">
        <ele>135.5</ele>
        <time>2016-10-06T17:04:43Z</time>
      </trkpt>
      <trkpt lat="49.06835" lon="1.14195">
        <ele>135.8</ele>
        <time>2016-10-06T17:04:46Z</time>
      </trkpt>
      <trkpt lat="49.06826" lon="1.14187">
        <ele>136.2</ele>
        <time>2016-10-06T17:04:49Z</time>
      </trkpt>
      <trkpt lat="49.06816" lon="1.1418">
        <ele>136.5</ele>
        <time>2016-10-06T17:04:52Z</time>
      </trkpt>
      <trkpt lat="49.06806" lon="1.14174">
        <ele>136.7</ele>
        <time>2016-10-06T17:04:55Z</time>
      </trkpt>
      <trkpt lat="49.06796" lon="1.14167">
        <ele>137.1</ele>
        <time>2016-10-06T17:04:58Z</time>
      </trkpt>
      <trkpt lat="49.06786" lon="1.14156">
        <ele>137.4</ele>
        <time>2016-10-06T17:05:01Z</time>
      </trkpt>
      <trkpt lat="49.06776" lon="1.14145">
        <ele>137.7</ele>
        <time>2016-10-06T17:05:04Z</time>
      </trkpt>
      <trkpt lat="49.06767" lon="1.14135">
        <ele>137.9</ele>
        <time>2016-10-06T17:05:07Z</time>
      </trkpt>
      <trkpt lat="49.06755" lon="1.14125">
        <ele>138.1</ele>
        <time>2016-10-06T17:05:10Z</time>
      </trkpt>
      <trkpt lat="49.06748" lon="1.14109">
        <ele>138.3</ele>
        <time>2016-10-06T17:05:13Z</time>
      </trkpt>
      <trkpt lat="49.06746" lon="1.14089">
        <ele>138.5</ele>
        <time>2016-10-06T17:05:16Z</time>
      </trkpt>
      <trkpt lat="49.06744" lon="1.14069">
        <ele>138.7</ele>
        <time>2016-10-06T17:05:19Z</time>
      </trkpt>
      <trkpt lat="49.06741" lon="1.14055">
        <ele>138.8</ele>
        <time>2016-10-06T17:05:21Z</time>
      </trkpt>
      <trkpt lat="49.06739" lon="1.14041">
        <ele>138.9</ele>
        <time>2016-10-06T17:05:23Z</time>
      </trkpt>
      <trkpt lat="49.06739" lon="1.14027">
        <ele>139</ele>
        <time>2016-10-06T17:05:25Z</time>
      </trkpt>
      <trkpt lat="49.06738" lon="1.14013">
        <ele>139.1</ele>
        <time>2016-10-06T17:05:27Z</time>
      </trkpt>
      <trkpt lat="49.06736" lon="1.13992">
        <ele>139.2</ele>
        <time>2016-10-06T17:05:30Z</time>
      </trkpt>
      <trkpt lat="49.06735" lon="1.13973">
        <ele>139.4</ele>
        <time>2016-10-06T17:05:33Z</time>
      </trkpt>
      <trkpt lat="49.06733" lon="1.13957">
        <ele>139.5</ele>
        <time>2016-10-06T17:05:35Z</time>
      </trkpt>
      <trkpt lat="49.06732" lon="1.13942">
        <ele>139.7</ele>
        <time>2016-10-06T17:05:37Z</time>
      </trkpt>
      <trkpt lat="49.0673" lon="1.13928">
        <ele>139.8</ele>
        <time>2016-10-06T17:05:39Z</time>
      </trkpt>
      <trkpt lat="49.06726" lon="1.13915">
        <ele>139.9</ele>
        <time>2016-10-06T17:05:41Z</time>
      </trkpt>
      <trkpt lat="49.06724" lon="1.139">
        <ele>140</ele>
        <time>2016-10-06T17:05:43Z</time>
      </trkpt>
      <trkpt lat="49.06723" lon="1.13885">
        <ele>140.1</ele>
        <time>2016-10-06T17:05:45Z</time>
      </trkpt>
      <trkpt lat="49.0672" lon="1.13871">
        <ele>140.2</ele>
        <time>2016-10-06T17:05:47Z</time>
      </trkpt>
      <trkpt lat="49.06714" lon="1.1386">
        <ele>140.3</ele>
        <time>2016-10-06T17:05:49Z</time>
      </trkpt>
      <trkpt lat="49.06705" lon="1.13843">
        <ele>140.4</ele>
        <time>2016-10-06T17:05:52Z</time>
      </trkpt>
      <trkpt lat="49.067" lon="1.13828">
        <ele>140.4</ele>
        <time>2016-10-06T17:05:54Z</time>
      </trkpt>
      <trkpt lat="49.06694" lon="1.13815">
        <ele>140.5</ele>
        <time>2016-10-06T17:05:56Z</time>
      </trkpt>
      <trkpt lat="49.06689" lon="1.13803">
        <ele>140.5</ele>
        <time>2016-10-06T17:05:58Z</time>
      </trkpt>
      <trkpt lat="49.06682" lon="1.13789">
        <ele>140.6</ele>
        <time>2016-10-06T17:06:00Z</time>
      </trkpt>
      <trkpt lat="49.06676" lon="1.13775">
        <ele>140.6</ele>
        <time>2016-10-06T17:06:02Z</time>
      </trkpt>
      <trkpt lat="49.06669" lon="1.13763">
        <ele>140.6</ele>
        <time>2016-10-06T17:06:04Z</time>
      </trkpt>
      <trkpt lat="49.06664" lon="1.1375">
        <ele>140.7</ele>
        <time>2016-10-06T17:06:06Z</time>
      </trkpt>
      <trkpt lat="49.06659" lon="1.13735">
        <ele>140.7</ele>
        <time>2016-10-06T17:06:08Z</time>
      </trkpt>
      <trkpt lat="49.06656" lon="1.1372">
        <ele>140.7</ele>
        <time>2016-10-06T17:06:10Z</time>
      </trkpt>
      <trkpt lat="49.06652" lon="1.13705">
        <ele>140.7</ele>
        <time>2016-10-06T17:06:12Z</time>
      </trkpt>
      <trkpt lat="49.06648" lon="1.13688">
        <ele>140.7</ele>
        <time>2016-10-06T17:06:14Z</time>
      </trkpt>
      <trkpt lat="49.06644" lon="1.13672">
        <ele>140.7</ele>
        <time>2016-10-06T17:06:16Z</time>
      </trkpt>
      <trkpt lat="49.06641" lon="1.13656">
        <ele>140.7</ele>
        <time>2016-10-06T17:06:18Z</time>
      </trkpt>
      <trkpt lat="49.06637" lon="1.1364">
        <ele>140.7</ele>
        <time>2016-10-06T17:06:20Z</time>
      </trkpt>
      <trkpt lat="49.06634" lon="1.13624">
        <ele>140.7</ele>
        <time>2016-10-06T17:06:22Z</time>
      </trkpt>
      <trkpt lat="49.0663" lon="1.13609">
        <ele>140.7</ele>
        <time>2016-10-06T17:06:24Z</time>
      </trkpt>
      <trkpt lat="49.06626" lon="1.13594">
        <ele>140.7</ele>
        <time>2016-10-06T17:06:26Z</time>
      </trkpt>
      <trkpt lat="49.06622" lon="1.13578">
        <ele>140.7</ele>
        <time>2016-10-06T17:06:28Z</time>
      </trkpt>
      <trkpt lat="49.06618" lon="1.13563">
        <ele>140.7</ele>
        <time>2016-10-06T17:06:30Z</time>
      </trkpt>
      <trkpt lat="49.06613" lon="1.13548">
        <ele>140.7</ele>
        <time>2016-10-06T17:06:32Z</time>
      </trkpt>
      <trkpt lat="49.06609" lon="1.13533">
        <ele>140.7</ele>
        <time>2016-10-06T17:06:34Z</time>
      </trkpt>
      <trkpt lat="49.06603" lon="1.13517">
        <ele>140.7</ele>
        <time>2016-10-06T17:06:36Z</time>
      </trkpt>
      <trkpt lat="49.06598" lon="1.13501">
        <ele>140.7</ele>
        <time>2016-10-06T17:06:38Z</time>
      </trkpt>
      <trkpt lat="49.06592" lon="1.13484">
        <ele>140.7</ele>
        <time>2016-10-06T17:06:40Z</time>
      </trkpt>
      <trkpt lat="49.06587" lon="1.13467">
        <ele>140.7</ele>
        <time>2016-10-06T17:06:42Z</time>
      </trkpt>
      <trkpt lat="49.06581" lon="1.1345">
        <ele>140.7</ele>
        <time>2016-10-06T17:06:44Z</time>
      </trkpt>
      <trkpt lat="49.06575" lon="1.13434">
        <ele>140.7</ele>
        <time>2016-10-06T17:06:46Z</time>
      </trkpt>
      <trkpt lat="49.0657" lon="1.13417">
        <ele>140.7</ele>
        <time>2016-10-06T17:06:48Z</time>
      </trkpt>
      <trkpt lat="49.06564" lon="1.134">
        <ele>140.6</ele>
        <time>2016-10-06T17:06:50Z</time>
      </trkpt>
      <trkpt lat="49.06558" lon="1.13383">
        <ele>140.6</ele>
        <time>2016-10-06T17:06:52Z</time>
      </trkpt>
      <trkpt lat="49.06553" lon="1.13366">
        <ele>140.6</ele>
        <time>2016-10-06T17:06:54Z</time>
      </trkpt>
      <trkpt lat="49.06547" lon="1.13349">
        <ele>140.6</ele>
        <time>2016-10-06T17:06:56Z</time>
      </trkpt>
      <trkpt lat="49.06542" lon="1.13332">
        <ele>140.5</ele>
        <time>2016-10-06T17:06:58Z</time>
      </trkpt>
      <trkpt lat="49.06536" lon="1.13315">
        <ele>140.4</ele>
        <time>2016-10-06T17:07:00Z</time>
      </trkpt>
      <trkpt lat="49.06529" lon="1.13299">
        <ele>140.4</ele>
        <time>2016-10-06T17:07:02Z</time>
      </trkpt>
      <trkpt lat="49.06521" lon="1.13283">
        <ele>140.3</ele>
        <time>2016-10-06T17:07:04Z</time>
      </trkpt>
      <trkpt lat="49.06513" lon="1.13267">
        <ele>140.2</ele>
        <time>2016-10-06T17:07:06Z</time>
      </trkpt>
      <trkpt lat="49.06504" lon="1.13252">
        <ele>140</ele>
        <time>2016-10-06T17:07:08Z</time>
      </trkpt>
      <trkpt lat="49.06495" lon="1.13236">
        <ele>139.8</ele>
        <time>2016-10-06T17:07:10Z</time>
      </trkpt>
      <trkpt lat="49.06487" lon="1.13219">
        <ele>139.7</ele>
        <time>2016-10-06T17:07:12Z</time>
      </trkpt>
      <trkpt lat="49.06479" lon="1.13201">
        <ele>139.5</ele>
        <time>2016-10-06T17:07:14Z</time>
      </trkpt>
      <trkpt lat="49.06471" lon="1.13183">
        <ele>139.4</ele>
        <time>2016-10-06T17:07:16Z</time>
      </trkpt>
      <trkpt lat="49.06463" lon="1.13166">
        <ele>139.2</ele>
        <time>2016-10-06T17:07:18Z</time>
      </trkpt>
      <trkpt lat="49.06456" lon="1.13149">
        <ele>139.1</ele>
        <time>2016-10-06T17:07:20Z</time>
      </trkpt>
      <trkpt lat="49.06449" lon="1.13132">
        <ele>139</ele>
        <time>2016-10-06T17:07:22Z</time>
      </trkpt>
      <trkpt lat="49.06442" lon="1.13115">
        <ele>138.9</ele>
        <time>2016-10-06T17:07:24Z</time>
      </trkpt>
      <trkpt lat="49.06436" lon="1.13097">
        <ele>138.9</ele>
        <time>2016-10-06T17:07:26Z</time>
      </trkpt>
      <trkpt lat="49.0643" lon="1.1308">
        <ele>138.8</ele>
        <time>2016-10-06T17:07:28Z</time>
      </trkpt>
      <trkpt lat="49.06425" lon="1.13062">
        <ele>138.7</ele>
        <time>2016-10-06T17:07:30Z</time>
      </trkpt>
      <trkpt lat="49.0642" lon="1.13044">
        <ele>138.7</ele>
        <time>2016-10-06T17:07:32Z</time>
      </trkpt>
      <trkpt lat="49.06415" lon="1.13026">
        <ele>138.7</ele>
        <time>2016-10-06T17:07:34Z</time>
      </trkpt>
      <trkpt lat="49.0641" lon="1.13008">
        <ele>138.7</ele>
        <time>2016-10-06T17:07:36Z</time>
      </trkpt>
      <trkpt lat="49.06404" lon="1.1299">
        <ele>138.8</ele>
        <time>2016-10-06T17:07:38Z</time>
      </trkpt>
      <trkpt lat="49.06398" lon="1.12973">
        <ele>138.9</ele>
        <time>2016-10-06T17:07:40Z</time>
      </trkpt>
      <trkpt lat="49.06389" lon="1.12958">
        <ele>138.9</ele>
        <time>2016-10-06T17:07:42Z</time>
      </trkpt>
      <trkpt lat="49.06379" lon="1.12945">
        <ele>139</ele>
        <time>2016-10-06T17:07:44Z</time>
      </trkpt>
      <trkpt lat="49.06367" lon="1.12935">
        <ele>139</ele>
        <time>2016-10-06T17:07:46Z</time>
      </trkpt>
      <trkpt lat="49.06355" lon="1.12927">
        <ele>139</ele>
        <time>2016-10-06T17:07:48Z</time>
      </trkpt>
      <trkpt lat="49.06342" lon="1.12919">
        <ele>139</ele>
        <time>2016-10-06T17:07:50Z</time>
      </trkpt>
      <trkpt lat="49.06329" lon="1.12913">
        <ele>139</ele>
        <time>2016-10-06T17:07:52Z</time>
      </trkpt>
      <trkpt lat="49.06317" lon="1.12906">
        <ele>139</ele>
        <time>2016-10-06T17:07:54Z</time>
      </trkpt>
      <trkpt lat="49.06304" lon="1.129">
        <ele>138.9</ele>
        <time>2016-10-06T17:07:56Z</time>
      </trkpt>
      <trkpt lat="49.06292" lon="1.12893">
        <ele>138.9</ele>
        <time>2016-10-06T17:07:58Z</time>
      </trkpt>
      <trkpt lat="49.06279" lon="1.12887">
        <ele>138.9</ele>
        <time>2016-10-06T17:08:00Z</time>
      </trkpt>
      <trkpt lat="49.06267" lon="1.12881">
        <ele>138.9</ele>
        <time>2016-10-06T17:08:02Z</time>
      </trkpt>
      <trkpt lat="49.06254" lon="1.12874">
        <ele>138.9</ele>
        <time>2016-10-06T17:08:04Z</time>
      </trkpt>
      <trkpt lat="49.06243" lon="1.12864">
        <ele>138.9</ele>
        <time>2016-10-06T17:08:06Z</time>
      </trkpt>
      <trkpt lat="49.06233" lon="1.12851">
        <ele>138.8</ele>
        <time>2016-10-06T17:08:08Z</time>
      </trkpt>
      <trkpt lat="49.06224" lon="1.12837">
        <ele>138.7</ele>
        <time>2016-10-06T17:08:10Z</time>
      </trkpt>
      <trkpt lat="49.06217" lon="1.12821">
        <ele>138.7</ele>
        <time>2016-10-06T17:08:12Z</time>
      </trkpt>
      <trkpt lat="49.06212" lon="1.12804">
        <ele>138.6</ele>
        <time>2016-10-06T17:08:14Z</time>
      </trkpt>
      <trkpt lat="49.06206" lon="1.12788">
        <ele>138.6</ele>
        <time>2016-10-06T17:08:16Z</time>
      </trkpt>
      <trkpt lat="49.062" lon="1.12771">
        <ele>138.6</ele>
        <time>2016-10-06T17:08:18Z</time>
      </trkpt>
      <trkpt lat="49.06194" lon="1.12755">
        <ele>138.6</ele>
        <time>2016-10-06T17:08:20Z</time>
      </trkpt>
      <trkpt lat="49.06189" lon="1.12738">
        <ele>138.7</ele>
        <time>2016-10-06T17:08:22Z</time>
      </trkpt>
      <trkpt lat="49.06184" lon="1.12721">
        <ele>138.8</ele>
        <time>2016-10-06T17:08:24Z</time>
      </trkpt>
      <trkpt lat="49.06179" lon="1.12704">
        <ele>138.9</ele>
        <time>2016-10-06T17:08:26Z</time>
      </trkpt>
      <trkpt lat="49.06175" lon="1.12686">
        <ele>139</ele>
        <time>2016-10-06T17:08:28Z</time>
      </trkpt>
      <trkpt lat="49.0617" lon="1.12668">
        <ele>139.2</ele>
        <time>2016-10-06T17:08:30Z</time>
      </trkpt>
      <trkpt lat="49.06166" lon="1.1265">
        <ele>139.3</ele>
        <time>2016-10-06T17:08:32Z</time>
      </trkpt>
      <trkpt lat="49.06161" lon="1.12632">
        <ele>139.5</ele>
        <time>2016-10-06T17:08:34Z</time>
      </trkpt>
      <trkpt lat="49.06154" lon="1.12615">
        <ele>139.8</ele>
        <time>2016-10-06T17:08:36Z</time>
      </trkpt>
      <trkpt lat="49.06147" lon="1.126">
        <ele>140</ele>
        <time>2016-10-06T17:08:38Z</time>
      </trkpt>
      <trkpt lat="49.06139" lon="1.12587">
        <ele>140.2</ele>
        <time>2016-10-06T17:08:40Z</time>
      </trkpt>
      <trkpt lat="49.06129" lon="1.12574">
        <ele>140.3</ele>
        <time>2016-10-06T17:08:42Z</time>
      </trkpt>
      <trkpt lat="49.06119" lon="1.12563">
        <ele>140.5</ele>
        <time>2016-10-06T17:08:44Z</time>
      </trkpt>
      <trkpt lat="49.0611" lon="1.12552">
        <ele>140.7</ele>
        <time>2016-10-06T17:08:46Z</time>
      </trkpt>
      <trkpt lat="49.06102" lon="1.12543">
        <ele>140.8</ele>
        <time>2016-10-06T17:08:48Z</time>
      </trkpt>
      <trkpt lat="49.06091" lon="1.1254">
        <ele>141</ele>
        <time>2016-10-06T17:08:50Z</time>
      </trkpt>
      <trkpt lat="49.06078" lon="1.12539">
        <ele>141.1</ele>
        <time>2016-10-06T17:08:52Z</time>
      </trkpt>
      <trkpt lat="49.06066" lon="1.12541">
        <ele>141.2</ele>
        <time>2016-10-06T17:08:54Z</time>
      </trkpt>
      <trkpt lat="49.06053" lon="1.12545">
        <ele>141.2</ele>
        <time>2016-10-06T17:08:56Z</time>
      </trkpt>
      <trkpt lat="49.06041" lon="1.12551">
        <ele>141.3</ele>
        <time>2016-10-06T17:08:58Z</time>
      </trkpt>
      <trkpt lat="49.06028" lon="1.12554">
        <ele>141.4</ele>
        <time>2016-10-06T17:09:00Z</time>
      </trkpt>
      <trkpt lat="49.06019" lon="1.12543">
        <ele>141.4</ele>
        <time>2016-10-06T17:09:02Z</time>
      </trkpt>
      <trkpt lat="49.06017" lon="1.12526">
        <ele>141.5</ele>
        <time>2016-10-06T17:09:04Z</time>
      </trkpt>
      <trkpt lat="49.06016" lon="1.12508">
        <ele>141.5</ele>
        <time>2016-10-06T17:09:06Z</time>
      </trkpt>
      <trkpt lat="49.06013" lon="1.12489">
        <ele>141.5</ele>
        <time>2016-10-06T17:09:08Z</time>
      </trkpt>
      <trkpt lat="49.06012" lon="1.1247">
        <ele>141.5</ele>
        <time>2016-10-06T17:09:10Z</time>
      </trkpt>
      <trkpt lat="49.06011" lon="1.12453">
        <ele>141.5</ele>
        <time>2016-10-06T17:09:12Z</time>
      </trkpt>
      <trkpt lat="49.0601" lon="1.12435">
        <ele>141.5</ele>
        <time>2016-10-06T17:09:14Z</time>
      </trkpt>
      <trkpt lat="49.06009" lon="1.12417">
        <ele>141.5</ele>
        <time>2016-10-06T17:09:16Z</time>
      </trkpt>
      <trkpt lat="49.06008" lon="1.12398">
        <ele>141.5</ele>
        <time>2016-10-06T17:09:18Z</time>
      </trkpt>
      <trkpt lat="49.06007" lon="1.1238">
        <ele>141.6</ele>
        <time>2016-10-06T17:09:20Z</time>
      </trkpt>
      <trkpt lat="49.06006" lon="1.12361">
        <ele>141.6</ele>
        <time>2016-10-06T17:09:22Z</time>
      </trkpt>
      <trkpt lat="49.06004" lon="1.12342">
        <ele>141.6</ele>
        <time>2016-10-06T17:09:24Z</time>
      </trkpt>
      <trkpt lat="49.06002" lon="1.12323">
        <ele>141.6</ele>
        <time>2016-10-06T17:09:26Z</time>
      </trkpt>
      <trkpt lat="49.05999" lon="1.12304">
        <ele>141.6</ele>
        <time>2016-10-06T17:09:28Z</time>
      </trkpt>
      <trkpt lat="49.05995" lon="1.12286">
        <ele>141.6</ele>
        <time>2016-10-06T17:09:30Z</time>
      </trkpt>
      <trkpt lat="49.05991" lon="1.12268">
        <ele>141.6</ele>
        <time>2016-10-06T17:09:32Z</time>
      </trkpt>
      <trkpt lat="49.05986" lon="1.1225">
        <ele>141.6</ele>
        <time>2016-10-06T17:09:34Z</time>
      </trkpt>
      <trkpt lat="49.05981" lon="1.12231">
        <ele>141.6</ele>
        <time>2016-10-06T17:09:36Z</time>
      </trkpt>
      <trkpt lat="49.05976" lon="1.12213">
        <ele>141.6</ele>
        <time>2016-10-06T17:09:38Z</time>
      </trkpt>
      <trkpt lat="49.05971" lon="1.12195">
        <ele>141.6</ele>
        <time>2016-10-06T17:09:40Z</time>
      </trkpt>
      <trkpt lat="49.05966" lon="1.12176">
        <ele>141.6</ele>
        <time>2016-10-06T17:09:42Z</time>
      </trkpt>
      <trkpt lat="49.05961" lon="1.12157">
        <ele>141.6</ele>
        <time>2016-10-06T17:09:44Z</time>
      </trkpt>
      <trkpt lat="49.05954" lon="1.12138">
        <ele>141.6</ele>
        <time>2016-10-06T17:09:46Z</time>
      </trkpt>
      <trkpt lat="49.05946" lon="1.12119">
        <ele>141.5</ele>
        <time>2016-10-06T17:09:48Z</time>
      </trkpt>
      <trkpt lat="49.05937" lon="1.12101">
        <ele>141.4</ele>
        <time>2016-10-06T17:09:50Z</time>
      </trkpt>
      <trkpt lat="49.05928" lon="1.12084">
        <ele>141.3</ele>
        <time>2016-10-06T17:09:52Z</time>
      </trkpt>
      <trkpt lat="49.05919" lon="1.12067">
        <ele>141.2</ele>
        <time>2016-10-06T17:09:54Z</time>
      </trkpt>
      <trkpt lat="49.05909" lon="1.12051">
        <ele>141.1</ele>
        <time>2016-10-06T17:09:56Z</time>
      </trkpt>
      <trkpt lat="49.05899" lon="1.12035">
        <ele>141</ele>
        <time>2016-10-06T17:09:58Z</time>
      </trkpt>
      <trkpt lat="49.05892" lon="1.12016">
        <ele>140.9</ele>
        <time>2016-10-06T17:10:00Z</time>
      </trkpt>
      <trkpt lat="49.05886" lon="1.11997">
        <ele>140.8</ele>
        <time>2016-10-06T17:10:02Z</time>
      </trkpt>
      <trkpt lat="49.05878" lon="1.11979">
        <ele>140.7</ele>
        <time>2016-10-06T17:10:04Z</time>
      </trkpt>
      <trkpt lat="49.05872" lon="1.1196">
        <ele>140.6</ele>
        <time>2016-10-06T17:10:06Z</time>
      </trkpt>
      <trkpt lat="49.05866" lon="1.11941">
        <ele>140.6</ele>
        <time>2016-10-06T17:10:08Z</time>
      </trkpt>
      <trkpt lat="49.05861" lon="1.11922">
        <ele>140.5</ele>
        <time>2016-10-06T17:10:10Z</time>
      </trkpt>
      <trkpt lat="49.05856" lon="1.11903">
        <ele>140.4</ele>
        <time>2016-10-06T17:10:12Z</time>
      </trkpt>
      <trkpt lat="49.05852" lon="1.11884">
        <ele>140.4</ele>
        <time>2016-10-06T17:10:14Z</time>
      </trkpt>
      <trkpt lat="49.05848" lon="1.11864">
        <ele>140.4</ele>
        <time>2016-10-06T17:10:16Z</time>
      </trkpt>
      <trkpt lat="49.05844" lon="1.11844">
        <ele>140.3</ele>
        <time>2016-10-06T17:10:18Z</time>
      </trkpt>
      <trkpt lat="49.0584" lon="1.11825">
        <ele>140.3</ele>
        <time>2016-10-06T17:10:20Z</time>
      </trkpt>
      <trkpt lat="49.05837" lon="1.11805">
        <ele>140.3</ele>
        <time>2016-10-06T17:10:22Z</time>
      </trkpt>
      <trkpt lat="49.05833" lon="1.11786">
        <ele>140.3</ele>
        <time>2016-10-06T17:10:24Z</time>
      </trkpt>
      <trkpt lat="49.05828" lon="1.11766">
        <ele>140.3</ele>
        <time>2016-10-06T17:10:26Z</time>
      </trkpt>
      <trkpt lat="49.05824" lon="1.11747">
        <ele>140.3</ele>
        <time>2016-10-06T17:10:28Z</time>
      </trkpt>
      <trkpt lat="49.0582" lon="1.11728">
        <ele>140.4</ele>
        <time>2016-10-06T17:10:30Z</time>
      </trkpt>
      <trkpt lat="49.05816" lon="1.11708">
        <ele>140.4</ele>
        <time>2016-10-06T17:10:32Z</time>
      </trkpt>
      <trkpt lat="49.05813" lon="1.11689">
        <ele>140.4</ele>
        <time>2016-10-06T17:10:34Z</time>
      </trkpt>
      <trkpt lat="49.05809" lon="1.1167">
        <ele>140.5</ele>
        <time>2016-10-06T17:10:36Z</time>
      </trkpt>
      <trkpt lat="49.05805" lon="1.11651">
        <ele>140.6</ele>
        <time>2016-10-06T17:10:38Z</time>
      </trkpt>
      <trkpt lat="49.05802" lon="1.11632">
        <ele>140.7</ele>
        <time>2016-10-06T17:10:40Z</time>
      </trkpt>
      <trkpt lat="49.05798" lon="1.11613">
        <ele>140.8</ele>
        <time>2016-10-06T17:10:42Z</time>
      </trkpt>
      <trkpt lat="49.05794" lon="1.11594">
        <ele>140.9</ele>
        <time>2016-10-06T17:10:44Z</time>
      </trkpt>
      <trkpt lat="49.0579" lon="1.11576">
        <ele>140.9</ele>
        <time>2016-10-06T17:10:46Z</time>
      </trkpt>
      <trkpt lat="49.05787" lon="1.11557">
        <ele>141</ele>
        <time>2016-10-06T17:10:48Z</time>
      </trkpt>
      <trkpt lat="49.05783" lon="1.11538">
        <ele>141.1</ele>
        <time>2016-10-06T17:10:50Z</time>
      </trkpt>
      <trkpt lat="49.05779" lon="1.1152">
        <ele>141.2</ele>
        <time>2016-10-06T17:10:52Z</time>
      </trkpt>
      <trkpt lat="49.05775" lon="1.11501">
        <ele>141.4</ele>
        <time>2016-10-06T17:10:54Z</time>
      </trkpt>
      <trkpt lat="49.05771" lon="1.11483">
        <ele>141.5</ele>
        <time>2016-10-06T17:10:56Z</time>
      </trkpt>
      <trkpt lat="49.05768" lon="1.11464">
        <ele>141.7</ele>
        <time>2016-10-06T17:10:58Z</time>
      </trkpt>
      <trkpt lat="49.05764" lon="1.11445">
        <ele>142</ele>
        <time>2016-10-06T17:11:00Z</time>
      </trkpt>
      <trkpt lat="49.0576" lon="1.11426">
        <ele>142.2</ele>
        <time>2016-10-06T17:11:02Z</time>
      </trkpt>
      <trkpt lat="49.05757" lon="1.11407">
        <ele>142.4</ele>
        <time>2016-10-06T17:11:04Z</time>
      </trkpt>
      <trkpt lat="49.05753" lon="1.11389">
        <ele>142.6</ele>
        <time>2016-10-06T17:11:06Z</time>
      </trkpt>
      <trkpt lat="49.0575" lon="1.1137">
        <ele>142.7</ele>
        <time>2016-10-06T17:11:08Z</time>
      </trkpt>
      <trkpt lat="49.05746" lon="1.11353">
        <ele>142.9</ele>
        <time>2016-10-06T17:11:10Z</time>
      </trkpt>
      <trkpt lat="49.05743" lon="1.11338">
        <ele>143.1</ele>
        <time>2016-10-06T17:11:12Z</time>
      </trkpt>
      <trkpt lat="49.05739" lon="1.11321">
        <ele>143.3</ele>
        <time>2016-10-06T17:11:15Z</time>
      </trkpt>
      <trkpt lat="49.05733" lon="1.11308">
        <ele>143.7</ele>
        <time>2016-10-06T17:11:20Z</time>
      </trkpt>
      <trkpt lat="49.05724" lon="1.11319">
        <ele>143.9</ele>
        <time>2016-10-06T17:11:24Z</time>
      </trkpt>
      <trkpt lat="49.05711" lon="1.11325">
        <ele>144.1</ele>
        <time>2016-10-06T17:11:27Z</time>
      </trkpt>
      <trkpt lat="49.05701" lon="1.11329">
        <ele>144.2</ele>
        <time>2016-10-06T17:11:29Z</time>
      </trkpt>
      <trkpt lat="49.05691" lon="1.11334">
        <ele>144.3</ele>
        <time>2016-10-06T17:11:31Z</time>
      </trkpt>
      <trkpt lat="49.0568" lon="1.11337">
        <ele>144.4</ele>
        <time>2016-10-06T17:11:33Z</time>
      </trkpt>
      <trkpt lat="49.05668" lon="1.11341">
        <ele>144.5</ele>
        <time>2016-10-06T17:11:35Z</time>
      </trkpt>
      <trkpt lat="49.05657" lon="1.11345">
        <ele>144.7</ele>
        <time>2016-10-06T17:11:37Z</time>
      </trkpt>
      <trkpt lat="49.05646" lon="1.11348">
        <ele>144.8</ele>
        <time>2016-10-06T17:11:39Z</time>
      </trkpt>
      <trkpt lat="49.05635" lon="1.11351">
        <ele>144.9</ele>
        <time>2016-10-06T17:11:41Z</time>
      </trkpt>
      <trkpt lat="49.05623" lon="1.11354">
        <ele>145</ele>
        <time>2016-10-06T17:11:43Z</time>
      </trkpt>
      <trkpt lat="49.05612" lon="1.11357">
        <ele>145</ele>
        <time>2016-10-06T17:11:45Z</time>
      </trkpt>
      <trkpt lat="49.05601" lon="1.11359">
        <ele>145.2</ele>
        <time>2016-10-06T17:11:47Z</time>
      </trkpt>
      <trkpt lat="49.05589" lon="1.1136">
        <ele>145.3</ele>
        <time>2016-10-06T17:11:49Z</time>
      </trkpt>
      <trkpt lat="49.05578" lon="1.11361">
        <ele>145.4</ele>
        <time>2016-10-06T17:11:51Z</time>
      </trkpt>
      <trkpt lat="49.05567" lon="1.11363">
        <ele>145.6</ele>
        <time>2016-10-06T17:11:53Z</time>
      </trkpt>
      <trkpt lat="49.05555" lon="1.11364">
        <ele>145.7</ele>
        <time>2016-10-06T17:11:55Z</time>
      </trkpt>
      <trkpt lat="49.05543" lon="1.11366">
        <ele>145.8</ele>
        <time>2016-10-06T17:11:57Z</time>
      </trkpt>
      <trkpt lat="49.05531" lon="1.11367">
        <ele>146</ele>
        <time>2016-10-06T17:11:59Z</time>
      </trkpt>
      <trkpt lat="49.05519" lon="1.11367">
        <ele>146.1</ele>
        <time>2016-10-06T17:12:01Z</time>
      </trkpt>
      <trkpt lat="49.05506" lon="1.11368">
        <ele>146.3</ele>
        <time>2016-10-06T17:12:03Z</time>
      </trkpt>
      <trkpt lat="49.05494" lon="1.11369">
        <ele>146.4</ele>
        <time>2016-10-06T17:12:05Z</time>
      </trkpt>
      <trkpt lat="49.05482" lon="1.11372">
        <ele>146.5</ele>
        <time>2016-10-06T17:12:07Z</time>
      </trkpt>
      <trkpt lat="49.05469" lon="1.11373">
        <ele>146.6</ele>
        <time>2016-10-06T17:12:09Z</time>
      </trkpt>
      <trkpt lat="49.05456" lon="1.11377">
        <ele>146.7</ele>
        <time>2016-10-06T17:12:11Z</time>
      </trkpt>
      <trkpt lat="49.05444" lon="1.11381">
        <ele>146.7</ele>
        <time>2016-10-06T17:12:13Z</time>
      </trkpt>
      <trkpt lat="49.05433" lon="1.11386">
        <ele>146.8</ele>
        <time>2016-10-06T17:12:15Z</time>
      </trkpt>
      <trkpt lat="49.05421" lon="1.11392">
        <ele>146.7</ele>
        <time>2016-10-06T17:12:17Z</time>
      </trkpt>
      <trkpt lat="49.05409" lon="1.11398">
        <ele>146.6</ele>
        <time>2016-10-06T17:12:19Z</time>
      </trkpt>
      <trkpt lat="49.05396" lon="1.11404">
        <ele>146.5</ele>
        <time>2016-10-06T17:12:21Z</time>
      </trkpt>
      <trkpt lat="49.05383" lon="1.1141">
        <ele>146.4</ele>
        <time>2016-10-06T17:12:23Z</time>
      </trkpt>
      <trkpt lat="49.0537" lon="1.11416">
        <ele>146.3</ele>
        <time>2016-10-06T17:12:25Z</time>
      </trkpt>
      <trkpt lat="49.05357" lon="1.11423">
        <ele>146.2</ele>
        <time>2016-10-06T17:12:27Z</time>
      </trkpt>
      <trkpt lat="49.05345" lon="1.11432">
        <ele>145.9</ele>
        <time>2016-10-06T17:12:29Z</time>
      </trkpt>
      <trkpt lat="49.05333" lon="1.11442">
        <ele>145.7</ele>
        <time>2016-10-06T17:12:31Z</time>
      </trkpt>
      <trkpt lat="49.05322" lon="1.11452">
        <ele>145.6</ele>
        <time>2016-10-06T17:12:33Z</time>
      </trkpt>
      <trkpt lat="49.05311" lon="1.11464">
        <ele>145.4</ele>
        <time>2016-10-06T17:12:35Z</time>
      </trkpt>
      <trkpt lat="49.053" lon="1.11475">
        <ele>145.3</ele>
        <time>2016-10-06T17:12:37Z</time>
      </trkpt>
      <trkpt lat="49.05289" lon="1.11486">
        <ele>145.2</ele>
        <time>2016-10-06T17:12:39Z</time>
      </trkpt>
      <trkpt lat="49.05278" lon="1.11497">
        <ele>145.1</ele>
        <time>2016-10-06T17:12:41Z</time>
      </trkpt>
      <trkpt lat="49.05267" lon="1.11508">
        <ele>145</ele>
        <time>2016-10-06T17:12:43Z</time>
      </trkpt>
      <trkpt lat="49.05256" lon="1.11519">
        <ele>144.9</ele>
        <time>2016-10-06T17:12:45Z</time>
      </trkpt>
      <trkpt lat="49.05244" lon="1.11529">
        <ele>144.8</ele>
        <time>2016-10-06T17:12:47Z</time>
      </trkpt>
      <trkpt lat="49.05233" lon="1.11539">
        <ele>144.7</ele>
        <time>2016-10-06T17:12:49Z</time>
      </trkpt>
      <trkpt lat="49.05221" lon="1.11548">
        <ele>144.7</ele>
        <time>2016-10-06T17:12:51Z</time>
      </trkpt>
      <trkpt lat="49.0521" lon="1.11557">
        <ele>144.6</ele>
        <time>2016-10-06T17:12:53Z</time>
      </trkpt>
      <trkpt lat="49.05198" lon="1.11566">
        <ele>144.5</ele>
        <time>2016-10-06T17:12:55Z</time>
      </trkpt>
      <trkpt lat="49.05187" lon="1.11576">
        <ele>144.4</ele>
        <time>2016-10-06T17:12:57Z</time>
      </trkpt>
      <trkpt lat="49.05176" lon="1.11583">
        <ele>144.4</ele>
        <time>2016-10-06T17:12:59Z</time>
      </trkpt>
      <trkpt lat="49.05166" lon="1.11591">
        <ele>144.2</ele>
        <time>2016-10-06T17:13:02Z</time>
      </trkpt>
      <trkpt lat="49.05159" lon="1.116">
        <ele>143.5</ele>
        <time>2016-10-06T17:13:10Z</time>
      </trkpt>
      <trkpt lat="49.05151" lon="1.1159">
        <ele>143.3</ele>
        <time>2016-10-06T17:13:13Z</time>
      </trkpt>
      <trkpt lat="49.05144" lon="1.11572">
        <ele>143.2</ele>
        <time>2016-10-06T17:13:16Z</time>
      </trkpt>
      <trkpt lat="49.05138" lon="1.11558">
        <ele>143.1</ele>
        <time>2016-10-06T17:13:18Z</time>
      </trkpt>
      <trkpt lat="49.05132" lon="1.11543">
        <ele>143</ele>
        <time>2016-10-06T17:13:20Z</time>
      </trkpt>
      <trkpt lat="49.05126" lon="1.11529">
        <ele>142.9</ele>
        <time>2016-10-06T17:13:22Z</time>
      </trkpt>
      <trkpt lat="49.0512" lon="1.11516">
        <ele>142.9</ele>
        <time>2016-10-06T17:13:24Z</time>
      </trkpt>
      <trkpt lat="49.05116" lon="1.11503">
        <ele>142.8</ele>
        <time>2016-10-06T17:13:26Z</time>
      </trkpt>
      <trkpt lat="49.05106" lon="1.11492">
        <ele>142.7</ele>
        <time>2016-10-06T17:13:29Z</time>
      </trkpt>
      <trkpt lat="49.05097" lon="1.11496">
        <ele>142.6</ele>
        <time>2016-10-06T17:13:31Z</time>
      </trkpt>
      <trkpt lat="49.05087" lon="1.11502">
        <ele>142.5</ele>
        <time>2016-10-06T17:13:33Z</time>
      </trkpt>
      <trkpt lat="49.05078" lon="1.11509">
        <ele>142.5</ele>
        <time>2016-10-06T17:13:35Z</time>
      </trkpt>
      <trkpt lat="49.05068" lon="1.11516">
        <ele>142.4</ele>
        <time>2016-10-06T17:13:37Z</time>
      </trkpt>
      <trkpt lat="49.05058" lon="1.11522">
        <ele>142.4</ele>
        <time>2016-10-06T17:13:39Z</time>
      </trkpt>
      <trkpt lat="49.05047" lon="1.11529">
        <ele>142.3</ele>
        <time>2016-10-06T17:13:41Z</time>
      </trkpt>
      <trkpt lat="49.05036" lon="1.11536">
        <ele>142.3</ele>
        <time>2016-10-06T17:13:43Z</time>
      </trkpt>
      <trkpt lat="49.05025" lon="1.11543">
        <ele>142.3</ele>
        <time>2016-10-06T17:13:45Z</time>
      </trkpt>
      <trkpt lat="49.05013" lon="1.1155">
        <ele>142.2</ele>
        <time>2016-10-06T17:13:47Z</time>
      </trkpt>
      <trkpt lat="49.05001" lon="1.11557">
        <ele>142.2</ele>
        <time>2016-10-06T17:13:49Z</time>
      </trkpt>
      <trkpt lat="49.04988" lon="1.11565">
        <ele>142.2</ele>
        <time>2016-10-06T17:13:51Z</time>
      </trkpt>
      <trkpt lat="49.04976" lon="1.11572">
        <ele>142.1</ele>
        <time>2016-10-06T17:13:53Z</time>
      </trkpt>
      <trkpt lat="49.04964" lon="1.11582">
        <ele>142</ele>
        <time>2016-10-06T17:13:55Z</time>
      </trkpt>
      <trkpt lat="49.04952" lon="1.11592">
        <ele>141.8</ele>
        <time>2016-10-06T17:13:57Z</time>
      </trkpt>
      <trkpt lat="49.04941" lon="1.11605">
        <ele>141.6</ele>
        <time>2016-10-06T17:13:59Z</time>
      </trkpt>
      <trkpt lat="49.04931" lon="1.11618">
        <ele>141.5</ele>
        <time>2016-10-06T17:14:01Z</time>
      </trkpt>
      <trkpt lat="49.04921" lon="1.11631">
        <ele>141.3</ele>
        <time>2016-10-06T17:14:03Z</time>
      </trkpt>
      <trkpt lat="49.0491" lon="1.11636">
        <ele>141.2</ele>
        <time>2016-10-06T17:14:05Z</time>
      </trkpt>
      <trkpt lat="49.04899" lon="1.11628">
        <ele>141</ele>
        <time>2016-10-06T17:14:07Z</time>
      </trkpt>
      <trkpt lat="49.04889" lon="1.11616">
        <ele>140.8</ele>
        <time>2016-10-06T17:14:09Z</time>
      </trkpt>
      <trkpt lat="49.04879" lon="1.11605">
        <ele>140.7</ele>
        <time>2016-10-06T17:14:11Z</time>
      </trkpt>
      <trkpt lat="49.04868" lon="1.11594">
        <ele>140.5</ele>
        <time>2016-10-06T17:14:13Z</time>
      </trkpt>
      <trkpt lat="49.04855" lon="1.11583">
        <ele>140.3</ele>
        <time>2016-10-06T17:14:15Z</time>
      </trkpt>
      <trkpt lat="49.04843" lon="1.11573">
        <ele>140.1</ele>
        <time>2016-10-06T17:14:17Z</time>
      </trkpt>
      <trkpt lat="49.0483" lon="1.11564">
        <ele>139.8</ele>
        <time>2016-10-06T17:14:19Z</time>
      </trkpt>
      <trkpt lat="49.04816" lon="1.11558">
        <ele>139.5</ele>
        <time>2016-10-06T17:14:21Z</time>
      </trkpt>
      <trkpt lat="49.04802" lon="1.11553">
        <ele>139.2</ele>
        <time>2016-10-06T17:14:23Z</time>
      </trkpt>
      <trkpt lat="49.04788" lon="1.11548">
        <ele>138.9</ele>
        <time>2016-10-06T17:14:25Z</time>
      </trkpt>
      <trkpt lat="49.04773" lon="1.11543">
        <ele>138.7</ele>
        <time>2016-10-06T17:14:27Z</time>
      </trkpt>
      <trkpt lat="49.04759" lon="1.11538">
        <ele>138.4</ele>
        <time>2016-10-06T17:14:29Z</time>
      </trkpt>
      <trkpt lat="49.04745" lon="1.11533">
        <ele>138.2</ele>
        <time>2016-10-06T17:14:31Z</time>
      </trkpt>
      <trkpt lat="49.04732" lon="1.11527">
        <ele>138</ele>
        <time>2016-10-06T17:14:33Z</time>
      </trkpt>
      <trkpt lat="49.04718" lon="1.11521">
        <ele>137.8</ele>
        <time>2016-10-06T17:14:35Z</time>
      </trkpt>
      <trkpt lat="49.04705" lon="1.11515">
        <ele>137.6</ele>
        <time>2016-10-06T17:14:37Z</time>
      </trkpt>
      <trkpt lat="49.04693" lon="1.11508">
        <ele>137.5</ele>
        <time>2016-10-06T17:14:39Z</time>
      </trkpt>
      <trkpt lat="49.04681" lon="1.11503">
        <ele>137.2</ele>
        <time>2016-10-06T17:14:41Z</time>
      </trkpt>
      <trkpt lat="49.0467" lon="1.11498">
        <ele>136.9</ele>
        <time>2016-10-06T17:14:43Z</time>
      </trkpt>
      <trkpt lat="49.04661" lon="1.11492">
        <ele>136.7</ele>
        <time>2016-10-06T17:14:45Z</time>
      </trkpt>
      <trkpt lat="49.04649" lon="1.11486">
        <ele>136.6</ele>
        <time>2016-10-06T17:14:48Z</time>
      </trkpt>
      <trkpt lat="49.04638" lon="1.11486">
        <ele>136.5</ele>
        <time>2016-10-06T17:14:50Z</time>
      </trkpt>
      <trkpt lat="49.04623" lon="1.11487">
        <ele>136.6</ele>
        <time>2016-10-06T17:14:53Z</time>
      </trkpt>
      <trkpt lat="49.0461" lon="1.11487">
        <ele>136.6</ele>
        <time>2016-10-06T17:14:56Z</time>
      </trkpt>
      <trkpt lat="49.046" lon="1.11486">
        <ele>136.6</ele>
        <time>2016-10-06T17:14:58Z</time>
      </trkpt>
      <trkpt lat="49.04588" lon="1.11482">
        <ele>136.6</ele>
        <time>2016-10-06T17:15:00Z</time>
      </trkpt>
      <trkpt lat="49.04578" lon="1.11479">
        <ele>136.6</ele>
        <time>2016-10-06T17:15:02Z</time>
      </trkpt>
      <trkpt lat="49.04567" lon="1.11476">
        <ele>136.7</ele>
        <time>2016-10-06T17:15:04Z</time>
      </trkpt>
      <trkpt lat="49.04559" lon="1.11471">
        <ele>136.7</ele>
        <time>2016-10-06T17:15:06Z</time>
      </trkpt>
      <trkpt lat="49.04546" lon="1.11464">
        <ele>136.7</ele>
        <time>2016-10-06T17:15:09Z</time>
      </trkpt>
      <trkpt lat="49.0453" lon="1.11459">
        <ele>136.7</ele>
        <time>2016-10-06T17:15:11Z</time>
      </trkpt>
      <trkpt lat="49.04516" lon="1.11454">
        <ele>136.7</ele>
        <time>2016-10-06T17:15:13Z</time>
      </trkpt>
      <trkpt lat="49.04505" lon="1.11448">
        <ele>136.7</ele>
        <time>2016-10-06T17:15:15Z</time>
      </trkpt>
      <trkpt lat="49.04492" lon="1.11444">
        <ele>136.7</ele>
        <time>2016-10-06T17:15:17Z</time>
      </trkpt>
      <trkpt lat="49.04481" lon="1.11438">
        <ele>136.7</ele>
        <time>2016-10-06T17:15:20Z</time>
      </trkpt>
      <trkpt lat="49.04468" lon="1.11435">
        <ele>136.7</ele>
        <time>2016-10-06T17:15:22Z</time>
      </trkpt>
      <trkpt lat="49.04458" lon="1.11429">
        <ele>136.6</ele>
        <time>2016-10-06T17:15:24Z</time>
      </trkpt>
      <trkpt lat="49.04442" lon="1.11419">
        <ele>136.5</ele>
        <time>2016-10-06T17:15:26Z</time>
      </trkpt>
      <trkpt lat="49.04425" lon="1.11409">
        <ele>136.3</ele>
        <time>2016-10-06T17:15:28Z</time>
      </trkpt>
      <trkpt lat="49.04412" lon="1.11406">
        <ele>136.1</ele>
        <time>2016-10-06T17:15:30Z</time>
      </trkpt>
      <trkpt lat="49.04397" lon="1.11402">
        <ele>135.9</ele>
        <time>2016-10-06T17:15:32Z</time>
      </trkpt>
      <trkpt lat="49.04379" lon="1.114">
        <ele>135.7</ele>
        <time>2016-10-06T17:15:34Z</time>
      </trkpt>
      <trkpt lat="49.04366" lon="1.11401">
        <ele>135.5</ele>
        <time>2016-10-06T17:15:36Z</time>
      </trkpt>
      <trkpt lat="49.04352" lon="1.11405">
        <ele>134.9</ele>
        <time>2016-10-06T17:15:38Z</time>
      </trkpt>
      <trkpt lat="49.04335" lon="1.11407">
        <ele>134.4</ele>
        <time>2016-10-06T17:15:40Z</time>
      </trkpt>
      <trkpt lat="49.0432" lon="1.11407">
        <ele>133.7</ele>
        <time>2016-10-06T17:15:42Z</time>
      </trkpt>
      <trkpt lat="49.04305" lon="1.11405">
        <ele>133.1</ele>
        <time>2016-10-06T17:15:44Z</time>
      </trkpt>
      <trkpt lat="49.04297" lon="1.11399">
        <ele>132.5</ele>
        <time>2016-10-06T17:15:46Z</time>
      </trkpt>
      <trkpt lat="49.04294" lon="1.11385">
        <ele>131.8</ele>
        <time>2016-10-06T17:15:49Z</time>
      </trkpt>
      <trkpt lat="49.0429" lon="1.11369">
        <ele>130.9</ele>
        <time>2016-10-06T17:15:53Z</time>
      </trkpt>
      <trkpt lat="49.04287" lon="1.11354">
        <ele>130.4</ele>
        <time>2016-10-06T17:15:56Z</time>
      </trkpt>
      <trkpt lat="49.04283" lon="1.11341">
        <ele>130.2</ele>
        <time>2016-10-06T17:15:58Z</time>
      </trkpt>
      <trkpt lat="49.04279" lon="1.11327">
        <ele>130</ele>
        <time>2016-10-06T17:16:00Z</time>
      </trkpt>
      <trkpt lat="49.04275" lon="1.11308">
        <ele>129.9</ele>
        <time>2016-10-06T17:16:03Z</time>
      </trkpt>
      <trkpt lat="49.04271" lon="1.11293">
        <ele>129.9</ele>
        <time>2016-10-06T17:16:05Z</time>
      </trkpt>
      <trkpt lat="49.04265" lon="1.11278">
        <ele>129.9</ele>
        <time>2016-10-06T17:16:07Z</time>
      </trkpt>
      <trkpt lat="49.0426" lon="1.11263">
        <ele>130</ele>
        <time>2016-10-06T17:16:09Z</time>
      </trkpt>
      <trkpt lat="49.04256" lon="1.11249">
        <ele>130</ele>
        <time>2016-10-06T17:16:11Z</time>
      </trkpt>
      <trkpt lat="49.04253" lon="1.11234">
        <ele>130.1</ele>
        <time>2016-10-06T17:16:13Z</time>
      </trkpt>
      <trkpt lat="49.04249" lon="1.1122">
        <ele>130.2</ele>
        <time>2016-10-06T17:16:15Z</time>
      </trkpt>
      <trkpt lat="49.04246" lon="1.11206">
        <ele>130.2</ele>
        <time>2016-10-06T17:16:17Z</time>
      </trkpt>
      <trkpt lat="49.04242" lon="1.11192">
        <ele>130.4</ele>
        <time>2016-10-06T17:16:19Z</time>
      </trkpt>
      <trkpt lat="49.04238" lon="1.11173">
        <ele>130.6</ele>
        <time>2016-10-06T17:16:22Z</time>
      </trkpt>
      <trkpt lat="49.04235" lon="1.11158">
        <ele>130.9</ele>
        <time>2016-10-06T17:16:25Z</time>
      </trkpt>
      <trkpt lat="49.04222" lon="1.11157">
        <ele>131.2</ele>
        <time>2016-10-06T17:16:29Z</time>
      </trkpt>
      <trkpt lat="49.04212" lon="1.1116">
        <ele>131.5</ele>
        <time>2016-10-06T17:16:32Z</time>
      </trkpt>
      <trkpt lat="49.04203" lon="1.11161">
        <ele>131.6</ele>
        <time>2016-10-06T17:16:34Z</time>
      </trkpt>
      <trkpt lat="49.0419" lon="1.11158">
        <ele>131.9</ele>
        <time>2016-10-06T17:16:37Z</time>
      </trkpt>
      <trkpt lat="49.04179" lon="1.11161">
        <ele>132.1</ele>
        <time>2016-10-06T17:16:40Z</time>
      </trkpt>
      <trkpt lat="49.04168" lon="1.11169">
        <ele>132.4</ele>
        <time>2016-10-06T17:16:44Z</time>
      </trkpt>
      <trkpt lat="49.04159" lon="1.11171">
        <ele>132.5</ele>
        <time>2016-10-06T17:16:46Z</time>
      </trkpt>
      <trkpt lat="49.04147" lon="1.11174">
        <ele>132.8</ele>
        <time>2016-10-06T17:16:49Z</time>
      </trkpt>
      <trkpt lat="49.04137" lon="1.11179">
        <ele>133</ele>
        <time>2016-10-06T17:16:52Z</time>
      </trkpt>
      <trkpt lat="49.04127" lon="1.11181">
        <ele>133.3</ele>
        <time>2016-10-06T17:16:55Z</time>
      </trkpt>
      <trkpt lat="49.04113" lon="1.1118">
        <ele>133.5</ele>
        <time>2016-10-06T17:16:58Z</time>
      </trkpt>
      <trkpt lat="49.041" lon="1.11187">
        <ele>133.8</ele>
        <time>2016-10-06T17:17:01Z</time>
      </trkpt>
      <trkpt lat="49.04093" lon="1.11202">
        <ele>134</ele>
        <time>2016-10-06T17:17:04Z</time>
      </trkpt>
      <trkpt lat="49.04089" lon="1.11218">
        <ele>134.2</ele>
        <time>2016-10-06T17:17:07Z</time>
      </trkpt>
      <trkpt lat="49.0408" lon="1.11226">
        <ele>134.4</ele>
        <time>2016-10-06T17:17:10Z</time>
      </trkpt>
      <trkpt lat="49.0407" lon="1.1123">
        <ele>134.6</ele>
        <time>2016-10-06T17:17:13Z</time>
      </trkpt>
      <trkpt lat="49.04062" lon="1.11226">
        <ele>134.7</ele>
        <time>2016-10-06T17:17:16Z</time>
      </trkpt>
      <trkpt lat="49.04056" lon="1.11213">
        <ele>134.9</ele>
        <time>2016-10-06T17:17:20Z</time>
      </trkpt>
      <trkpt lat="49.04049" lon="1.11201">
        <ele>134.8</ele>
        <time>2016-10-06T17:17:23Z</time>
      </trkpt>
      <trkpt lat="49.04041" lon="1.11195">
        <ele>134.8</ele>
        <time>2016-10-06T17:17:26Z</time>
      </trkpt>
      <trkpt lat="49.04032" lon="1.11192">
        <ele>134.8</ele>
        <time>2016-10-06T17:17:28Z</time>
      </trkpt>
      <trkpt lat="49.0402" lon="1.11182">
        <ele>134.8</ele>
        <time>2016-10-06T17:17:31Z</time>
      </trkpt>
      <trkpt lat="49.04008" lon="1.1118">
        <ele>134.8</ele>
        <time>2016-10-06T17:17:33Z</time>
      </trkpt>
      <trkpt lat="49.03997" lon="1.1118">
        <ele>134.8</ele>
        <time>2016-10-06T17:17:35Z</time>
      </trkpt>
      <trkpt lat="49.03986" lon="1.11182">
        <ele>134.8</ele>
        <time>2016-10-06T17:17:37Z</time>
      </trkpt>
      <trkpt lat="49.03977" lon="1.11186">
        <ele>134.8</ele>
        <time>2016-10-06T17:17:39Z</time>
      </trkpt>
      <trkpt lat="49.03967" lon="1.11201">
        <ele>134.8</ele>
        <time>2016-10-06T17:17:42Z</time>
      </trkpt>
      <trkpt lat="49.03956" lon="1.11209">
        <ele>134.8</ele>
        <time>2016-10-06T17:17:45Z</time>
      </trkpt>
      <trkpt lat="49.03943" lon="1.11215">
        <ele>134.8</ele>
        <time>2016-10-06T17:17:48Z</time>
      </trkpt>
      <trkpt lat="49.03933" lon="1.11221">
        <ele>134.8</ele>
        <time>2016-10-06T17:17:51Z</time>
      </trkpt>
      <trkpt lat="49.03925" lon="1.11213">
        <ele>134.8</ele>
        <time>2016-10-06T17:17:54Z</time>
      </trkpt>
      <trkpt lat="49.03917" lon="1.11205">
        <ele>134.7</ele>
        <time>2016-10-06T17:17:57Z</time>
      </trkpt>
      <trkpt lat="49.03904" lon="1.11209">
        <ele>134.6</ele>
        <time>2016-10-06T17:18:00Z</time>
      </trkpt>
      <trkpt lat="49.03897" lon="1.11221">
        <ele>134.4</ele>
        <time>2016-10-06T17:18:03Z</time>
      </trkpt>
      <trkpt lat="49.03891" lon="1.11234">
        <ele>134.2</ele>
        <time>2016-10-06T17:18:05Z</time>
      </trkpt>
      <trkpt lat="49.03887" lon="1.11248">
        <ele>134.1</ele>
        <time>2016-10-06T17:18:07Z</time>
      </trkpt>
      <trkpt lat="49.03884" lon="1.11262">
        <ele>133.8</ele>
        <time>2016-10-06T17:18:09Z</time>
      </trkpt>
      <trkpt lat="49.03876" lon="1.11282">
        <ele>133.2</ele>
        <time>2016-10-06T17:18:12Z</time>
      </trkpt>
      <trkpt lat="49.03873" lon="1.11296">
        <ele>132.9</ele>
        <time>2016-10-06T17:18:14Z</time>
      </trkpt>
      <trkpt lat="49.03877" lon="1.11309">
        <ele>132.6</ele>
        <time>2016-10-06T17:18:17Z</time>
      </trkpt>
      <trkpt lat="49.03884" lon="1.11322">
        <ele>132.3</ele>
        <time>2016-10-06T17:18:20Z</time>
      </trkpt>
      <trkpt lat="49.03891" lon="1.11332">
        <ele>132.3</ele>
        <time>2016-10-06T17:18:22Z</time>
      </trkpt>
      <trkpt lat="49.03896" lon="1.11347">
        <ele>132.3</ele>
        <time>2016-10-06T17:18:24Z</time>
      </trkpt>
      <trkpt lat="49.039" lon="1.11361">
        <ele>132.4</ele>
        <time>2016-10-06T17:18:26Z</time>
      </trkpt>
      <trkpt lat="49.03903" lon="1.11376">
        <ele>132.4</ele>
        <time>2016-10-06T17:18:28Z</time>
      </trkpt>
      <trkpt lat="49.03907" lon="1.1139">
        <ele>132.5</ele>
        <time>2016-10-06T17:18:30Z</time>
      </trkpt>
      <trkpt lat="49.03911" lon="1.11409">
        <ele>132.5</ele>
        <time>2016-10-06T17:18:33Z</time>
      </trkpt>
      <trkpt lat="49.03914" lon="1.11429">
        <ele>132.6</ele>
        <time>2016-10-06T17:18:36Z</time>
      </trkpt>
      <trkpt lat="49.03919" lon="1.11441">
        <ele>132.7</ele>
        <time>2016-10-06T17:18:38Z</time>
      </trkpt>
      <trkpt lat="49.03926" lon="1.11457">
        <ele>132.7</ele>
        <time>2016-10-06T17:18:40Z</time>
      </trkpt>
      <trkpt lat="49.03931" lon="1.11471">
        <ele>132.8</ele>
        <time>2016-10-06T17:18:42Z</time>
      </trkpt>
      <trkpt lat="49.03938" lon="1.1148">
        <ele>133</ele>
        <time>2016-10-06T17:18:44Z</time>
      </trkpt>
      <trkpt lat="49.03944" lon="1.11492">
        <ele>133.1</ele>
        <time>2016-10-06T17:18:46Z</time>
      </trkpt>
      <trkpt lat="49.03946" lon="1.11506">
        <ele>133.2</ele>
        <time>2016-10-06T17:18:48Z</time>
      </trkpt>
      <trkpt lat="49.03943" lon="1.11523">
        <ele>133.5</ele>
        <time>2016-10-06T17:18:52Z</time>
      </trkpt>
      <trkpt lat="49.03939" lon="1.11539">
        <ele>133.7</ele>
        <time>2016-10-06T17:18:55Z</time>
      </trkpt>
      <trkpt lat="49.03937" lon="1.11553">
        <ele>133.8</ele>
        <time>2016-10-06T17:18:57Z</time>
      </trkpt>
      <trkpt lat="49.03939" lon="1.11567">
        <ele>133.6</ele>
        <time>2016-10-06T17:18:59Z</time>
      </trkpt>
      <trkpt lat="49.03942" lon="1.11581">
        <ele>133.5</ele>
        <time>2016-10-06T17:19:01Z</time>
      </trkpt>
      <trkpt lat="49.03942" lon="1.11597">
        <ele>133.3</ele>
        <time>2016-10-06T17:19:03Z</time>
      </trkpt>
      <trkpt lat="49.03947" lon="1.11614">
        <ele>133.2</ele>
        <time>2016-10-06T17:19:06Z</time>
      </trkpt>
      <trkpt lat="49.03949" lon="1.11633">
        <ele>133.1</ele>
        <time>2016-10-06T17:19:09Z</time>
      </trkpt>
      <trkpt lat="49.03949" lon="1.11647">
        <ele>133</ele>
        <time>2016-10-06T17:19:11Z</time>
      </trkpt>
      <trkpt lat="49.03953" lon="1.11664">
        <ele>132.9</ele>
        <time>2016-10-06T17:19:14Z</time>
      </trkpt>
      <trkpt lat="49.03961" lon="1.11672">
        <ele>132.9</ele>
        <time>2016-10-06T17:19:16Z</time>
      </trkpt>
      <trkpt lat="49.03955" lon="1.11683">
        <ele>132.9</ele>
        <time>2016-10-06T17:19:17Z</time>
      </trkpt>
      <trkpt lat="49.03955" lon="1.11702">
        <ele>132.7</ele>
        <time>2016-10-06T17:19:20Z</time>
      </trkpt>
      <trkpt lat="49.03951" lon="1.11716">
        <ele>132.6</ele>
        <time>2016-10-06T17:19:22Z</time>
      </trkpt>
      <trkpt lat="49.03952" lon="1.11733">
        <ele>132.4</ele>
        <time>2016-10-06T17:19:25Z</time>
      </trkpt>
      <trkpt lat="49.0395" lon="1.11752">
        <ele>132.4</ele>
        <time>2016-10-06T17:19:28Z</time>
      </trkpt>
      <trkpt lat="49.03953" lon="1.11769">
        <ele>132.5</ele>
        <time>2016-10-06T17:19:31Z</time>
      </trkpt>
      <trkpt lat="49.03953" lon="1.11792">
        <ele>132.6</ele>
        <time>2016-10-06T17:19:34Z</time>
      </trkpt>
      <trkpt lat="49.03953" lon="1.1181">
        <ele>132.7</ele>
        <time>2016-10-06T17:19:36Z</time>
      </trkpt>
      <trkpt lat="49.03953" lon="1.11825">
        <ele>132.9</ele>
        <time>2016-10-06T17:19:38Z</time>
      </trkpt>
      <trkpt lat="49.03949" lon="1.11842">
        <ele>133.2</ele>
        <time>2016-10-06T17:19:41Z</time>
      </trkpt>
      <trkpt lat="49.03945" lon="1.11859">
        <ele>133.6</ele>
        <time>2016-10-06T17:19:44Z</time>
      </trkpt>
      <trkpt lat="49.0394" lon="1.11872">
        <ele>133.8</ele>
        <time>2016-10-06T17:19:47Z</time>
      </trkpt>
      <trkpt lat="49.03933" lon="1.11888">
        <ele>134.1</ele>
        <time>2016-10-06T17:19:50Z</time>
      </trkpt>
      <trkpt lat="49.03928" lon="1.11903">
        <ele>134.3</ele>
        <time>2016-10-06T17:19:52Z</time>
      </trkpt>
      <trkpt lat="49.03924" lon="1.11917">
        <ele>134.4</ele>
        <time>2016-10-06T17:19:54Z</time>
      </trkpt>
      <trkpt lat="49.03917" lon="1.1193">
        <ele>134.4</ele>
        <time>2016-10-06T17:19:56Z</time>
      </trkpt>
      <trkpt lat="49.03905" lon="1.11942">
        <ele>134.4</ele>
        <time>2016-10-06T17:19:59Z</time>
      </trkpt>
      <trkpt lat="49.03897" lon="1.1195">
        <ele>134.4</ele>
        <time>2016-10-06T17:20:00Z</time>
      </trkpt>
      <trkpt lat="49.03888" lon="1.11963">
        <ele>134.4</ele>
        <time>2016-10-06T17:20:03Z</time>
      </trkpt>
      <trkpt lat="49.03876" lon="1.11973">
        <ele>134.4</ele>
        <time>2016-10-06T17:20:06Z</time>
      </trkpt>
      <trkpt lat="49.03863" lon="1.11977">
        <ele>134.4</ele>
        <time>2016-10-06T17:20:08Z</time>
      </trkpt>
      <trkpt lat="49.03849" lon="1.11974">
        <ele>134.3</ele>
        <time>2016-10-06T17:20:11Z</time>
      </trkpt>
      <trkpt lat="49.03838" lon="1.11971">
        <ele>134.2</ele>
        <time>2016-10-06T17:20:13Z</time>
      </trkpt>
      <trkpt lat="49.03825" lon="1.11972">
        <ele>134.1</ele>
        <time>2016-10-06T17:20:15Z</time>
      </trkpt>
      <trkpt lat="49.03811" lon="1.11973">
        <ele>134</ele>
        <time>2016-10-06T17:20:18Z</time>
      </trkpt>
      <trkpt lat="49.038" lon="1.11969">
        <ele>133.9</ele>
        <time>2016-10-06T17:20:20Z</time>
      </trkpt>
      <trkpt lat="49.0379" lon="1.11966">
        <ele>133.8</ele>
        <time>2016-10-06T17:20:22Z</time>
      </trkpt>
      <trkpt lat="49.0378" lon="1.11961">
        <ele>133.8</ele>
        <time>2016-10-06T17:20:24Z</time>
      </trkpt>
      <trkpt lat="49.03769" lon="1.11953">
        <ele>133.7</ele>
        <time>2016-10-06T17:20:26Z</time>
      </trkpt>
      <trkpt lat="49.03757" lon="1.11947">
        <ele>133.6</ele>
        <time>2016-10-06T17:20:28Z</time>
      </trkpt>
      <trkpt lat="49.03746" lon="1.11945">
        <ele>133.3</ele>
        <time>2016-10-06T17:20:30Z</time>
      </trkpt>
      <trkpt lat="49.03736" lon="1.11946">
        <ele>133.1</ele>
        <time>2016-10-06T17:20:32Z</time>
      </trkpt>
      <trkpt lat="49.03726" lon="1.11945">
        <ele>132.9</ele>
        <time>2016-10-06T17:20:34Z</time>
      </trkpt>
      <trkpt lat="49.03716" lon="1.11945">
        <ele>132.7</ele>
        <time>2016-10-06T17:20:36Z</time>
      </trkpt>
      <trkpt lat="49.03703" lon="1.11943">
        <ele>132.5</ele>
        <time>2016-10-06T17:20:39Z</time>
      </trkpt>
      <trkpt lat="49.03693" lon="1.11944">
        <ele>132.3</ele>
        <time>2016-10-06T17:20:42Z</time>
      </trkpt>
      <trkpt lat="49.03683" lon="1.1195">
        <ele>131.8</ele>
        <time>2016-10-06T17:20:46Z</time>
      </trkpt>
      <trkpt lat="49.03673" lon="1.11957">
        <ele>130.8</ele>
        <time>2016-10-06T17:20:50Z</time>
      </trkpt>
      <trkpt lat="49.03665" lon="1.11961">
        <ele>129.2</ele>
        <time>2016-10-06T17:20:55Z</time>
      </trkpt>
      <trkpt lat="49.03657" lon="1.11969">
        <ele>123.8</ele>
        <time>2016-10-06T17:21:15Z</time>
      </trkpt>
      <trkpt lat="49.03646" lon="1.11967">
        <ele>122.6</ele>
        <time>2016-10-06T17:21:23Z</time>
      </trkpt>
      <trkpt lat="49.03634" lon="1.11968">
        <ele>121.3</ele>
        <time>2016-10-06T17:21:27Z</time>
      </trkpt>
      <trkpt lat="49.03625" lon="1.11959">
        <ele>119.4</ele>
        <time>2016-10-06T17:21:31Z</time>
      </trkpt>
      <trkpt lat="49.03619" lon="1.11944">
        <ele>118</ele>
        <time>2016-10-06T17:21:34Z</time>
      </trkpt>
      <trkpt lat="49.03613" lon="1.11933">
        <ele>117</ele>
        <time>2016-10-06T17:21:36Z</time>
      </trkpt>
      <trkpt lat="49.03609" lon="1.11915">
        <ele>115.6</ele>
        <time>2016-10-06T17:21:39Z</time>
      </trkpt>
      <trkpt lat="49.03602" lon="1.11897">
        <ele>114.2</ele>
        <time>2016-10-06T17:21:42Z</time>
      </trkpt>
      <trkpt lat="49.03599" lon="1.11878">
        <ele>112.5</ele>
        <time>2016-10-06T17:21:45Z</time>
      </trkpt>
      <trkpt lat="49.036" lon="1.11863">
        <ele>111.4</ele>
        <time>2016-10-06T17:21:47Z</time>
      </trkpt>
      <trkpt lat="49.03602" lon="1.11848">
        <ele>110.3</ele>
        <time>2016-10-06T17:21:49Z</time>
      </trkpt>
      <trkpt lat="49.03609" lon="1.11831">
        <ele>108.8</ele>
        <time>2016-10-06T17:21:52Z</time>
      </trkpt>
      <trkpt lat="49.03613" lon="1.11817">
        <ele>106.7</ele>
        <time>2016-10-06T17:21:56Z</time>
      </trkpt>
      <trkpt lat="49.03604" lon="1.11811">
        <ele>104.1</ele>
        <time>2016-10-06T17:22:02Z</time>
      </trkpt>
      <trkpt lat="49.03594" lon="1.11821">
        <ele>102.9</ele>
        <time>2016-10-06T17:22:06Z</time>
      </trkpt>
      <trkpt lat="49.03586" lon="1.11835">
        <ele>102.1</ele>
        <time>2016-10-06T17:22:09Z</time>
      </trkpt>
      <trkpt lat="49.0358" lon="1.11846">
        <ele>101.7</ele>
        <time>2016-10-06T17:22:11Z</time>
      </trkpt>
      <trkpt lat="49.03573" lon="1.1186">
        <ele>101.1</ele>
        <time>2016-10-06T17:22:14Z</time>
      </trkpt>
      <trkpt lat="49.03567" lon="1.11871">
        <ele>100.8</ele>
        <time>2016-10-06T17:22:16Z</time>
      </trkpt>
      <trkpt lat="49.03561" lon="1.11883">
        <ele>100.5</ele>
        <time>2016-10-06T17:22:18Z</time>
      </trkpt>
      <trkpt lat="49.03555" lon="1.11897">
        <ele>100.2</ele>
        <time>2016-10-06T17:22:21Z</time>
      </trkpt>
      <trkpt lat="49.03548" lon="1.1191">
        <ele>100</ele>
        <time>2016-10-06T17:22:23Z</time>
      </trkpt>
      <trkpt lat="49.03536" lon="1.11928">
        <ele>99.8</ele>
        <time>2016-10-06T17:22:25Z</time>
      </trkpt>
      <trkpt lat="49.03528" lon="1.11942">
        <ele>99.6</ele>
        <time>2016-10-06T17:22:27Z</time>
      </trkpt>
      <trkpt lat="49.03521" lon="1.11954">
        <ele>99.5</ele>
        <time>2016-10-06T17:22:29Z</time>
      </trkpt>
      <trkpt lat="49.03513" lon="1.11969">
        <ele>99.3</ele>
        <time>2016-10-06T17:22:31Z</time>
      </trkpt>
      <trkpt lat="49.03504" lon="1.11985">
        <ele>99.1</ele>
        <time>2016-10-06T17:22:33Z</time>
      </trkpt>
      <trkpt lat="49.03496" lon="1.11999">
        <ele>98.9</ele>
        <time>2016-10-06T17:22:35Z</time>
      </trkpt>
      <trkpt lat="49.03489" lon="1.12014">
        <ele>98.7</ele>
        <time>2016-10-06T17:22:37Z</time>
      </trkpt>
      <trkpt lat="49.03482" lon="1.12027">
        <ele>98.5</ele>
        <time>2016-10-06T17:22:39Z</time>
      </trkpt>
      <trkpt lat="49.03473" lon="1.1204">
        <ele>98.4</ele>
        <time>2016-10-06T17:22:41Z</time>
      </trkpt>
      <trkpt lat="49.03464" lon="1.12054">
        <ele>98.3</ele>
        <time>2016-10-06T17:22:43Z</time>
      </trkpt>
      <trkpt lat="49.03455" lon="1.12069">
        <ele>98.1</ele>
        <time>2016-10-06T17:22:45Z</time>
      </trkpt>
      <trkpt lat="49.03448" lon="1.12085">
        <ele>98</ele>
        <time>2016-10-06T17:22:47Z</time>
      </trkpt>
      <trkpt lat="49.03439" lon="1.121">
        <ele>97.8</ele>
        <time>2016-10-06T17:22:49Z</time>
      </trkpt>
      <trkpt lat="49.03432" lon="1.12114">
        <ele>97.6</ele>
        <time>2016-10-06T17:22:51Z</time>
      </trkpt>
      <trkpt lat="49.03423" lon="1.12129">
        <ele>97.4</ele>
        <time>2016-10-06T17:22:53Z</time>
      </trkpt>
      <trkpt lat="49.03415" lon="1.12144">
        <ele>97.3</ele>
        <time>2016-10-06T17:22:55Z</time>
      </trkpt>
      <trkpt lat="49.03406" lon="1.12158">
        <ele>97.2</ele>
        <time>2016-10-06T17:22:57Z</time>
      </trkpt>
      <trkpt lat="49.03397" lon="1.12172">
        <ele>97.1</ele>
        <time>2016-10-06T17:22:59Z</time>
      </trkpt>
      <trkpt lat="49.03389" lon="1.12184">
        <ele>96.9</ele>
        <time>2016-10-06T17:23:01Z</time>
      </trkpt>
      <trkpt lat="49.03379" lon="1.12196">
        <ele>96.9</ele>
        <time>2016-10-06T17:23:03Z</time>
      </trkpt>
      <trkpt lat="49.03371" lon="1.12207">
        <ele>96.8</ele>
        <time>2016-10-06T17:23:05Z</time>
      </trkpt>
      <trkpt lat="49.03362" lon="1.12219">
        <ele>96.7</ele>
        <time>2016-10-06T17:23:07Z</time>
      </trkpt>
      <trkpt lat="49.03352" lon="1.12231">
        <ele>96.5</ele>
        <time>2016-10-06T17:23:09Z</time>
      </trkpt>
      <trkpt lat="49.03342" lon="1.12243">
        <ele>96.3</ele>
        <time>2016-10-06T17:23:11Z</time>
      </trkpt>
      <trkpt lat="49.03332" lon="1.12254">
        <ele>96.1</ele>
        <time>2016-10-06T17:23:13Z</time>
      </trkpt>
      <trkpt lat="49.03319" lon="1.12266">
        <ele>96</ele>
        <time>2016-10-06T17:23:15Z</time>
      </trkpt>
      <trkpt lat="49.03308" lon="1.12277">
        <ele>95.9</ele>
        <time>2016-10-06T17:23:17Z</time>
      </trkpt>
      <trkpt lat="49.03295" lon="1.12289">
        <ele>95.7</ele>
        <time>2016-10-06T17:23:19Z</time>
      </trkpt>
      <trkpt lat="49.03283" lon="1.12301">
        <ele>95.6</ele>
        <time>2016-10-06T17:23:21Z</time>
      </trkpt>
      <trkpt lat="49.03271" lon="1.1231">
        <ele>95.5</ele>
        <time>2016-10-06T17:23:23Z</time>
      </trkpt>
      <trkpt lat="49.03259" lon="1.12318">
        <ele>95.3</ele>
        <time>2016-10-06T17:23:25Z</time>
      </trkpt>
      <trkpt lat="49.03248" lon="1.12326">
        <ele>95.2</ele>
        <time>2016-10-06T17:23:27Z</time>
      </trkpt>
      <trkpt lat="49.03233" lon="1.12334">
        <ele>95.1</ele>
        <time>2016-10-06T17:23:29Z</time>
      </trkpt>
      <trkpt lat="49.03219" lon="1.12343">
        <ele>95</ele>
        <time>2016-10-06T17:23:31Z</time>
      </trkpt>
      <trkpt lat="49.03203" lon="1.12352">
        <ele>94.9</ele>
        <time>2016-10-06T17:23:33Z</time>
      </trkpt>
      <trkpt lat="49.03191" lon="1.12357">
        <ele>94.7</ele>
        <time>2016-10-06T17:23:35Z</time>
      </trkpt>
      <trkpt lat="49.03177" lon="1.12363">
        <ele>94.6</ele>
        <time>2016-10-06T17:23:37Z</time>
      </trkpt>
      <trkpt lat="49.03163" lon="1.12367">
        <ele>94.5</ele>
        <time>2016-10-06T17:23:39Z</time>
      </trkpt>
      <trkpt lat="49.03147" lon="1.12372">
        <ele>94.4</ele>
        <time>2016-10-06T17:23:41Z</time>
      </trkpt>
      <trkpt lat="49.03134" lon="1.12375">
        <ele>94.3</ele>
        <time>2016-10-06T17:23:43Z</time>
      </trkpt>
      <trkpt lat="49.0312" lon="1.12378">
        <ele>94.2</ele>
        <time>2016-10-06T17:23:45Z</time>
      </trkpt>
      <trkpt lat="49.03106" lon="1.1238">
        <ele>94.1</ele>
        <time>2016-10-06T17:23:47Z</time>
      </trkpt>
      <trkpt lat="49.03092" lon="1.12381">
        <ele>93.9</ele>
        <time>2016-10-06T17:23:49Z</time>
      </trkpt>
      <trkpt lat="49.03079" lon="1.12381">
        <ele>93.7</ele>
        <time>2016-10-06T17:23:51Z</time>
      </trkpt>
      <trkpt lat="49.03063" lon="1.12382">
        <ele>93.6</ele>
        <time>2016-10-06T17:23:53Z</time>
      </trkpt>
      <trkpt lat="49.03052" lon="1.1238">
        <ele>93.4</ele>
        <time>2016-10-06T17:23:55Z</time>
      </trkpt>
      <trkpt lat="49.03039" lon="1.1238">
        <ele>93.3</ele>
        <time>2016-10-06T17:23:57Z</time>
      </trkpt>
      <trkpt lat="49.03026" lon="1.12379">
        <ele>93.1</ele>
        <time>2016-10-06T17:23:59Z</time>
      </trkpt>
      <trkpt lat="49.03013" lon="1.12378">
        <ele>93</ele>
        <time>2016-10-06T17:24:01Z</time>
      </trkpt>
      <trkpt lat="49.03" lon="1.12377">
        <ele>92.8</ele>
        <time>2016-10-06T17:24:03Z</time>
      </trkpt>
      <trkpt lat="49.02986" lon="1.12374">
        <ele>92.6</ele>
        <time>2016-10-06T17:24:05Z</time>
      </trkpt>
      <trkpt lat="49.02971" lon="1.1237">
        <ele>92.5</ele>
        <time>2016-10-06T17:24:07Z</time>
      </trkpt>
      <trkpt lat="49.02957" lon="1.12368">
        <ele>92.3</ele>
        <time>2016-10-06T17:24:09Z</time>
      </trkpt>
      <trkpt lat="49.02944" lon="1.12366">
        <ele>92.2</ele>
        <time>2016-10-06T17:24:11Z</time>
      </trkpt>
      <trkpt lat="49.02931" lon="1.12365">
        <ele>92</ele>
        <time>2016-10-06T17:24:13Z</time>
      </trkpt>
      <trkpt lat="49.02919" lon="1.12362">
        <ele>91.9</ele>
        <time>2016-10-06T17:24:15Z</time>
      </trkpt>
      <trkpt lat="49.02906" lon="1.12358">
        <ele>91.8</ele>
        <time>2016-10-06T17:24:17Z</time>
      </trkpt>
      <trkpt lat="49.02893" lon="1.12355">
        <ele>91.7</ele>
        <time>2016-10-06T17:24:19Z</time>
      </trkpt>
      <trkpt lat="49.02879" lon="1.12353">
        <ele>91.5</ele>
        <time>2016-10-06T17:24:21Z</time>
      </trkpt>
      <trkpt lat="49.02866" lon="1.12351">
        <ele>91.3</ele>
        <time>2016-10-06T17:24:23Z</time>
      </trkpt>
      <trkpt lat="49.02852" lon="1.1235">
        <ele>91.2</ele>
        <time>2016-10-06T17:24:25Z</time>
      </trkpt>
      <trkpt lat="49.02839" lon="1.12347">
        <ele>91</ele>
        <time>2016-10-06T17:24:27Z</time>
      </trkpt>
      <trkpt lat="49.02826" lon="1.12344">
        <ele>90.8</ele>
        <time>2016-10-06T17:24:29Z</time>
      </trkpt>
      <trkpt lat="49.02813" lon="1.12341">
        <ele>90.6</ele>
        <time>2016-10-06T17:24:31Z</time>
      </trkpt>
      <trkpt lat="49.028" lon="1.1234">
        <ele>90.4</ele>
        <time>2016-10-06T17:24:33Z</time>
      </trkpt>
      <trkpt lat="49.02785" lon="1.12337">
        <ele>90.3</ele>
        <time>2016-10-06T17:24:35Z</time>
      </trkpt>
      <trkpt lat="49.0277" lon="1.12335">
        <ele>90.2</ele>
        <time>2016-10-06T17:24:37Z</time>
      </trkpt>
      <trkpt lat="49.02755" lon="1.12333">
        <ele>90</ele>
        <time>2016-10-06T17:24:39Z</time>
      </trkpt>
      <trkpt lat="49.02741" lon="1.1233">
        <ele>89.9</ele>
        <time>2016-10-06T17:24:41Z</time>
      </trkpt>
      <trkpt lat="49.02726" lon="1.12328">
        <ele>89.7</ele>
        <time>2016-10-06T17:24:43Z</time>
      </trkpt>
      <trkpt lat="49.02712" lon="1.12326">
        <ele>89.6</ele>
        <time>2016-10-06T17:24:45Z</time>
      </trkpt>
      <trkpt lat="49.02698" lon="1.12324">
        <ele>89.5</ele>
        <time>2016-10-06T17:24:47Z</time>
      </trkpt>
      <trkpt lat="49.02683" lon="1.12321">
        <ele>89.4</ele>
        <time>2016-10-06T17:24:49Z</time>
      </trkpt>
      <trkpt lat="49.02669" lon="1.12318">
        <ele>89.2</ele>
        <time>2016-10-06T17:24:51Z</time>
      </trkpt>
      <trkpt lat="49.02655" lon="1.12315">
        <ele>89.1</ele>
        <time>2016-10-06T17:24:53Z</time>
      </trkpt>
      <trkpt lat="49.02641" lon="1.12312">
        <ele>88.9</ele>
        <time>2016-10-06T17:24:55Z</time>
      </trkpt>
      <trkpt lat="49.02627" lon="1.1231">
        <ele>88.8</ele>
        <time>2016-10-06T17:24:57Z</time>
      </trkpt>
      <trkpt lat="49.02613" lon="1.12309">
        <ele>88.7</ele>
        <time>2016-10-06T17:24:59Z</time>
      </trkpt>
      <trkpt lat="49.02599" lon="1.12307">
        <ele>88.5</ele>
        <time>2016-10-06T17:25:01Z</time>
      </trkpt>
      <trkpt lat="49.02585" lon="1.12307">
        <ele>88.3</ele>
        <time>2016-10-06T17:25:03Z</time>
      </trkpt>
      <trkpt lat="49.02571" lon="1.12307">
        <ele>88.2</ele>
        <time>2016-10-06T17:25:05Z</time>
      </trkpt>
      <trkpt lat="49.02557" lon="1.12308">
        <ele>88</ele>
        <time>2016-10-06T17:25:07Z</time>
      </trkpt>
      <trkpt lat="49.02543" lon="1.1231">
        <ele>87.9</ele>
        <time>2016-10-06T17:25:09Z</time>
      </trkpt>
      <trkpt lat="49.0253" lon="1.12312">
        <ele>87.8</ele>
        <time>2016-10-06T17:25:11Z</time>
      </trkpt>
      <trkpt lat="49.02517" lon="1.12314">
        <ele>87.7</ele>
        <time>2016-10-06T17:25:13Z</time>
      </trkpt>
      <trkpt lat="49.02503" lon="1.12317">
        <ele>87.5</ele>
        <time>2016-10-06T17:25:15Z</time>
      </trkpt>
      <trkpt lat="49.0249" lon="1.12321">
        <ele>87.4</ele>
        <time>2016-10-06T17:25:17Z</time>
      </trkpt>
      <trkpt lat="49.02478" lon="1.12324">
        <ele>87.2</ele>
        <time>2016-10-06T17:25:19Z</time>
      </trkpt>
      <trkpt lat="49.02465" lon="1.1233">
        <ele>87</ele>
        <time>2016-10-06T17:25:21Z</time>
      </trkpt>
      <trkpt lat="49.02451" lon="1.12336">
        <ele>86.8</ele>
        <time>2016-10-06T17:25:23Z</time>
      </trkpt>
      <trkpt lat="49.02437" lon="1.12344">
        <ele>86.6</ele>
        <time>2016-10-06T17:25:25Z</time>
      </trkpt>
      <trkpt lat="49.02423" lon="1.12352">
        <ele>86.4</ele>
        <time>2016-10-06T17:25:27Z</time>
      </trkpt>
      <trkpt lat="49.02408" lon="1.12361">
        <ele>86.2</ele>
        <time>2016-10-06T17:25:29Z</time>
      </trkpt>
      <trkpt lat="49.02394" lon="1.12369">
        <ele>86.1</ele>
        <time>2016-10-06T17:25:31Z</time>
      </trkpt>
      <trkpt lat="49.02381" lon="1.1238">
        <ele>85.9</ele>
        <time>2016-10-06T17:25:33Z</time>
      </trkpt>
      <trkpt lat="49.02368" lon="1.1239">
        <ele>85.8</ele>
        <time>2016-10-06T17:25:35Z</time>
      </trkpt>
      <trkpt lat="49.02357" lon="1.12401">
        <ele>85.7</ele>
        <time>2016-10-06T17:25:37Z</time>
      </trkpt>
      <trkpt lat="49.02345" lon="1.12412">
        <ele>85.6</ele>
        <time>2016-10-06T17:25:39Z</time>
      </trkpt>
      <trkpt lat="49.02334" lon="1.12423">
        <ele>85.5</ele>
        <time>2016-10-06T17:25:41Z</time>
      </trkpt>
      <trkpt lat="49.02322" lon="1.12436">
        <ele>85.4</ele>
        <time>2016-10-06T17:25:43Z</time>
      </trkpt>
      <trkpt lat="49.0231" lon="1.12449">
        <ele>85.3</ele>
        <time>2016-10-06T17:25:45Z</time>
      </trkpt>
      <trkpt lat="49.023" lon="1.12461">
        <ele>85.2</ele>
        <time>2016-10-06T17:25:47Z</time>
      </trkpt>
      <trkpt lat="49.02289" lon="1.12473">
        <ele>85.1</ele>
        <time>2016-10-06T17:25:49Z</time>
      </trkpt>
      <trkpt lat="49.02281" lon="1.12483">
        <ele>84.9</ele>
        <time>2016-10-06T17:25:51Z</time>
      </trkpt>
      <trkpt lat="49.02273" lon="1.12496">
        <ele>84.7</ele>
        <time>2016-10-06T17:25:53Z</time>
      </trkpt>
      <trkpt lat="49.02263" lon="1.1251">
        <ele>84.6</ele>
        <time>2016-10-06T17:25:55Z</time>
      </trkpt>
      <trkpt lat="49.02255" lon="1.12523">
        <ele>84.5</ele>
        <time>2016-10-06T17:25:57Z</time>
      </trkpt>
      <trkpt lat="49.02246" lon="1.12536">
        <ele>84.3</ele>
        <time>2016-10-06T17:25:59Z</time>
      </trkpt>
      <trkpt lat="49.02235" lon="1.12554">
        <ele>84.2</ele>
        <time>2016-10-06T17:26:01Z</time>
      </trkpt>
      <trkpt lat="49.02229" lon="1.12565">
        <ele>84.2</ele>
        <time>2016-10-06T17:26:02Z</time>
      </trkpt>
      <trkpt lat="49.02218" lon="1.12582">
        <ele>84.1</ele>
        <time>2016-10-06T17:26:04Z</time>
      </trkpt>
      <trkpt lat="49.02207" lon="1.12599">
        <ele>84</ele>
        <time>2016-10-06T17:26:06Z</time>
      </trkpt>
      <trkpt lat="49.02197" lon="1.12615">
        <ele>84</ele>
        <time>2016-10-06T17:26:08Z</time>
      </trkpt>
      <trkpt lat="49.02188" lon="1.12629">
        <ele>83.9</ele>
        <time>2016-10-06T17:26:10Z</time>
      </trkpt>
      <trkpt lat="49.0218" lon="1.12642">
        <ele>83.8</ele>
        <time>2016-10-06T17:26:12Z</time>
      </trkpt>
      <trkpt lat="49.02172" lon="1.12655">
        <ele>83.7</ele>
        <time>2016-10-06T17:26:14Z</time>
      </trkpt>
      <trkpt lat="49.02161" lon="1.12671">
        <ele>83.6</ele>
        <time>2016-10-06T17:26:16Z</time>
      </trkpt>
      <trkpt lat="49.02151" lon="1.12687">
        <ele>83.6</ele>
        <time>2016-10-06T17:26:18Z</time>
      </trkpt>
      <trkpt lat="49.02141" lon="1.12701">
        <ele>83.5</ele>
        <time>2016-10-06T17:26:20Z</time>
      </trkpt>
      <trkpt lat="49.02131" lon="1.12717">
        <ele>83.4</ele>
        <time>2016-10-06T17:26:22Z</time>
      </trkpt>
      <trkpt lat="49.0212" lon="1.12731">
        <ele>83.4</ele>
        <time>2016-10-06T17:26:24Z</time>
      </trkpt>
      <trkpt lat="49.0211" lon="1.12744">
        <ele>83.3</ele>
        <time>2016-10-06T17:26:26Z</time>
      </trkpt>
      <trkpt lat="49.021" lon="1.12756">
        <ele>83.2</ele>
        <time>2016-10-06T17:26:28Z</time>
      </trkpt>
      <trkpt lat="49.0209" lon="1.12769">
        <ele>83.2</ele>
        <time>2016-10-06T17:26:30Z</time>
      </trkpt>
      <trkpt lat="49.0208" lon="1.12781">
        <ele>83.1</ele>
        <time>2016-10-06T17:26:32Z</time>
      </trkpt>
      <trkpt lat="49.0207" lon="1.12793">
        <ele>83</ele>
        <time>2016-10-06T17:26:34Z</time>
      </trkpt>
      <trkpt lat="49.02062" lon="1.12803">
        <ele>83</ele>
        <time>2016-10-06T17:26:36Z</time>
      </trkpt>
      <trkpt lat="49.0205" lon="1.12813">
        <ele>83</ele>
        <time>2016-10-06T17:26:38Z</time>
      </trkpt>
      <trkpt lat="49.0204" lon="1.12823">
        <ele>82.9</ele>
        <time>2016-10-06T17:26:40Z</time>
      </trkpt>
      <trkpt lat="49.02029" lon="1.12834">
        <ele>82.9</ele>
        <time>2016-10-06T17:26:42Z</time>
      </trkpt>
      <trkpt lat="49.02019" lon="1.12845">
        <ele>82.9</ele>
        <time>2016-10-06T17:26:44Z</time>
      </trkpt>
      <trkpt lat="49.02009" lon="1.12854">
        <ele>82.8</ele>
        <time>2016-10-06T17:26:46Z</time>
      </trkpt>
      <trkpt lat="49.01999" lon="1.12862">
        <ele>82.8</ele>
        <time>2016-10-06T17:26:48Z</time>
      </trkpt>
      <trkpt lat="49.01988" lon="1.12871">
        <ele>82.8</ele>
        <time>2016-10-06T17:26:50Z</time>
      </trkpt>
      <trkpt lat="49.01976" lon="1.12882">
        <ele>82.8</ele>
        <time>2016-10-06T17:26:52Z</time>
      </trkpt>
      <trkpt lat="49.01965" lon="1.12893">
        <ele>82.9</ele>
        <time>2016-10-06T17:26:54Z</time>
      </trkpt>
      <trkpt lat="49.01953" lon="1.12901">
        <ele>83</ele>
        <time>2016-10-06T17:26:56Z</time>
      </trkpt>
      <trkpt lat="49.01942" lon="1.12911">
        <ele>83.1</ele>
        <time>2016-10-06T17:26:58Z</time>
      </trkpt>
      <trkpt lat="49.01931" lon="1.1292">
        <ele>83.1</ele>
        <time>2016-10-06T17:27:00Z</time>
      </trkpt>
      <trkpt lat="49.0192" lon="1.12928">
        <ele>83.2</ele>
        <time>2016-10-06T17:27:02Z</time>
      </trkpt>
      <trkpt lat="49.01909" lon="1.12937">
        <ele>83.3</ele>
        <time>2016-10-06T17:27:04Z</time>
      </trkpt>
      <trkpt lat="49.01899" lon="1.12945">
        <ele>83.3</ele>
        <time>2016-10-06T17:27:06Z</time>
      </trkpt>
      <trkpt lat="49.01889" lon="1.12953">
        <ele>83.4</ele>
        <time>2016-10-06T17:27:08Z</time>
      </trkpt>
      <trkpt lat="49.01879" lon="1.12963">
        <ele>83.4</ele>
        <time>2016-10-06T17:27:10Z</time>
      </trkpt>
      <trkpt lat="49.01869" lon="1.12971">
        <ele>83.5</ele>
        <time>2016-10-06T17:27:12Z</time>
      </trkpt>
      <trkpt lat="49.01858" lon="1.1298">
        <ele>83.5</ele>
        <time>2016-10-06T17:27:14Z</time>
      </trkpt>
      <trkpt lat="49.01848" lon="1.1299">
        <ele>83.5</ele>
        <time>2016-10-06T17:27:16Z</time>
      </trkpt>
      <trkpt lat="49.01838" lon="1.13">
        <ele>83.6</ele>
        <time>2016-10-06T17:27:18Z</time>
      </trkpt>
      <trkpt lat="49.01828" lon="1.13011">
        <ele>83.7</ele>
        <time>2016-10-06T17:27:20Z</time>
      </trkpt>
      <trkpt lat="49.01819" lon="1.13022">
        <ele>83.8</ele>
        <time>2016-10-06T17:27:22Z</time>
      </trkpt>
      <trkpt lat="49.01811" lon="1.1303">
        <ele>83.9</ele>
        <time>2016-10-06T17:27:24Z</time>
      </trkpt>
      <trkpt lat="49.01801" lon="1.13041">
        <ele>84</ele>
        <time>2016-10-06T17:27:26Z</time>
      </trkpt>
      <trkpt lat="49.01793" lon="1.13052">
        <ele>84.1</ele>
        <time>2016-10-06T17:27:28Z</time>
      </trkpt>
      <trkpt lat="49.01784" lon="1.13065">
        <ele>84.2</ele>
        <time>2016-10-06T17:27:30Z</time>
      </trkpt>
      <trkpt lat="49.01775" lon="1.13078">
        <ele>84.4</ele>
        <time>2016-10-06T17:27:32Z</time>
      </trkpt>
      <trkpt lat="49.01768" lon="1.1309">
        <ele>84.5</ele>
        <time>2016-10-06T17:27:34Z</time>
      </trkpt>
      <trkpt lat="49.0176" lon="1.13104">
        <ele>84.6</ele>
        <time>2016-10-06T17:27:36Z</time>
      </trkpt>
      <trkpt lat="49.01753" lon="1.13117">
        <ele>84.7</ele>
        <time>2016-10-06T17:27:38Z</time>
      </trkpt>
      <trkpt lat="49.01744" lon="1.13136">
        <ele>84.9</ele>
        <time>2016-10-06T17:27:41Z</time>
      </trkpt>
      <trkpt lat="49.01735" lon="1.1315">
        <ele>85</ele>
        <time>2016-10-06T17:27:43Z</time>
      </trkpt>
      <trkpt lat="49.01728" lon="1.13164">
        <ele>85.2</ele>
        <time>2016-10-06T17:27:45Z</time>
      </trkpt>
      <trkpt lat="49.01722" lon="1.1318">
        <ele>85.3</ele>
        <time>2016-10-06T17:27:47Z</time>
      </trkpt>
      <trkpt lat="49.01715" lon="1.13196">
        <ele>85.4</ele>
        <time>2016-10-06T17:27:49Z</time>
      </trkpt>
      <trkpt lat="49.0171" lon="1.1321">
        <ele>85.6</ele>
        <time>2016-10-06T17:27:51Z</time>
      </trkpt>
      <trkpt lat="49.01704" lon="1.1323">
        <ele>85.9</ele>
        <time>2016-10-06T17:27:54Z</time>
      </trkpt>
      <trkpt lat="49.01701" lon="1.13245">
        <ele>86.1</ele>
        <time>2016-10-06T17:27:56Z</time>
      </trkpt>
      <trkpt lat="49.01694" lon="1.13261">
        <ele>86.2</ele>
        <time>2016-10-06T17:27:58Z</time>
      </trkpt>
      <trkpt lat="49.01689" lon="1.13277">
        <ele>86.4</ele>
        <time>2016-10-06T17:28:00Z</time>
      </trkpt>
      <trkpt lat="49.01685" lon="1.13293">
        <ele>86.5</ele>
        <time>2016-10-06T17:28:02Z</time>
      </trkpt>
      <trkpt lat="49.0168" lon="1.13312">
        <ele>86.7</ele>
        <time>2016-10-06T17:28:04Z</time>
      </trkpt>
      <trkpt lat="49.01675" lon="1.1333">
        <ele>86.8</ele>
        <time>2016-10-06T17:28:06Z</time>
      </trkpt>
      <trkpt lat="49.0167" lon="1.13348">
        <ele>87</ele>
        <time>2016-10-06T17:28:08Z</time>
      </trkpt>
      <trkpt lat="49.01667" lon="1.13366">
        <ele>87.1</ele>
        <time>2016-10-06T17:28:10Z</time>
      </trkpt>
      <trkpt lat="49.01663" lon="1.13385">
        <ele>87.2</ele>
        <time>2016-10-06T17:28:12Z</time>
      </trkpt>
      <trkpt lat="49.0166" lon="1.13404">
        <ele>87.2</ele>
        <time>2016-10-06T17:28:14Z</time>
      </trkpt>
      <trkpt lat="49.01657" lon="1.13423">
        <ele>87.3</ele>
        <time>2016-10-06T17:28:16Z</time>
      </trkpt>
      <trkpt lat="49.01654" lon="1.13441">
        <ele>87.4</ele>
        <time>2016-10-06T17:28:18Z</time>
      </trkpt>
      <trkpt lat="49.01653" lon="1.13459">
        <ele>87.5</ele>
        <time>2016-10-06T17:28:20Z</time>
      </trkpt>
      <trkpt lat="49.01651" lon="1.13473">
        <ele>87.6</ele>
        <time>2016-10-06T17:28:22Z</time>
      </trkpt>
      <trkpt lat="49.01649" lon="1.1349">
        <ele>87.7</ele>
        <time>2016-10-06T17:28:24Z</time>
      </trkpt>
      <trkpt lat="49.01649" lon="1.13506">
        <ele>87.8</ele>
        <time>2016-10-06T17:28:26Z</time>
      </trkpt>
      <trkpt lat="49.01648" lon="1.1352">
        <ele>87.9</ele>
        <time>2016-10-06T17:28:28Z</time>
      </trkpt>
      <trkpt lat="49.01648" lon="1.13537">
        <ele>88</ele>
        <time>2016-10-06T17:28:33Z</time>
      </trkpt>
      <trkpt lat="49.01649" lon="1.13555">
        <ele>88.1</ele>
        <time>2016-10-06T17:28:36Z</time>
      </trkpt>
      <trkpt lat="49.01649" lon="1.13569">
        <ele>88.1</ele>
        <time>2016-10-06T17:28:38Z</time>
      </trkpt>
      <trkpt lat="49.0165" lon="1.13583">
        <ele>88.2</ele>
        <time>2016-10-06T17:28:40Z</time>
      </trkpt>
      <trkpt lat="49.0165" lon="1.13598">
        <ele>88.2</ele>
        <time>2016-10-06T17:28:42Z</time>
      </trkpt>
      <trkpt lat="49.01649" lon="1.13612">
        <ele>88.3</ele>
        <time>2016-10-06T17:28:44Z</time>
      </trkpt>
      <trkpt lat="49.0165" lon="1.13627">
        <ele>88.4</ele>
        <time>2016-10-06T17:28:46Z</time>
      </trkpt>
      <trkpt lat="49.0165" lon="1.13643">
        <ele>88.6</ele>
        <time>2016-10-06T17:28:48Z</time>
      </trkpt>
      <trkpt lat="49.0165" lon="1.13659">
        <ele>88.7</ele>
        <time>2016-10-06T17:28:50Z</time>
      </trkpt>
      <trkpt lat="49.01648" lon="1.13675">
        <ele>88.8</ele>
        <time>2016-10-06T17:28:52Z</time>
      </trkpt>
      <trkpt lat="49.0164" lon="1.13683">
        <ele>88.8</ele>
        <time>2016-10-06T17:28:54Z</time>
      </trkpt>
      <trkpt lat="49.01629" lon="1.13686">
        <ele>88.9</ele>
        <time>2016-10-06T17:28:56Z</time>
      </trkpt>
      <trkpt lat="49.01618" lon="1.13689">
        <ele>89</ele>
        <time>2016-10-06T17:28:58Z</time>
      </trkpt>
      <trkpt lat="49.01607" lon="1.13688">
        <ele>89.1</ele>
        <time>2016-10-06T17:29:01Z</time>
      </trkpt>
      <trkpt lat="49.01598" lon="1.13684">
        <ele>89.3</ele>
        <time>2016-10-06T17:29:05Z</time>
      </trkpt>
      <trkpt lat="49.01587" lon="1.13684">
        <ele>90.4</ele>
        <time>2016-10-06T17:29:12Z</time>
      </trkpt>
      <trkpt lat="49.01578" lon="1.13684">
        <ele>91</ele>
        <time>2016-10-06T17:29:15Z</time>
      </trkpt>
      <trkpt lat="49.01568" lon="1.13679">
        <ele>92.3</ele>
        <time>2016-10-06T17:29:21Z</time>
      </trkpt>
      <trkpt lat="49.01562" lon="1.13667">
        <ele>93.6</ele>
        <time>2016-10-06T17:29:26Z</time>
      </trkpt>
      <trkpt lat="49.01555" lon="1.13659">
        <ele>94.9</ele>
        <time>2016-10-06T17:29:31Z</time>
      </trkpt>
      <trkpt lat="49.01544" lon="1.13655">
        <ele>96.1</ele>
        <time>2016-10-06T17:29:35Z</time>
      </trkpt>
      <trkpt lat="49.01535" lon="1.13649">
        <ele>97.5</ele>
        <time>2016-10-06T17:29:40Z</time>
      </trkpt>
      <trkpt lat="49.01524" lon="1.13644">
        <ele>99</ele>
        <time>2016-10-06T17:29:45Z</time>
      </trkpt>
      <trkpt lat="49.01516" lon="1.13639">
        <ele>100.9</ele>
        <time>2016-10-06T17:29:51Z</time>
      </trkpt>
      <trkpt lat="49.01507" lon="1.13631">
        <ele>102.6</ele>
        <time>2016-10-06T17:29:56Z</time>
      </trkpt>
      <trkpt lat="49.01496" lon="1.13627">
        <ele>104.2</ele>
        <time>2016-10-06T17:30:01Z</time>
      </trkpt>
      <trkpt lat="49.01487" lon="1.13623">
        <ele>105.5</ele>
        <time>2016-10-06T17:30:05Z</time>
      </trkpt>
      <trkpt lat="49.01477" lon="1.13617">
        <ele>107.5</ele>
        <time>2016-10-06T17:30:11Z</time>
      </trkpt>
      <trkpt lat="49.01468" lon="1.13614">
        <ele>109.1</ele>
        <time>2016-10-06T17:30:16Z</time>
      </trkpt>
      <trkpt lat="49.01457" lon="1.13611">
        <ele>110.9</ele>
        <time>2016-10-06T17:30:22Z</time>
      </trkpt>
      <trkpt lat="49.01448" lon="1.1361">
        <ele>112</ele>
        <time>2016-10-06T17:30:26Z</time>
      </trkpt>
      <trkpt lat="49.01439" lon="1.13609">
        <ele>113</ele>
        <time>2016-10-06T17:30:30Z</time>
      </trkpt>
      <trkpt lat="49.01428" lon="1.13608">
        <ele>113.8</ele>
        <time>2016-10-06T17:30:33Z</time>
      </trkpt>
      <trkpt lat="49.0142" lon="1.13601">
        <ele>116.4</ele>
        <time>2016-10-06T17:30:46Z</time>
      </trkpt>
      <trkpt lat="49.01412" lon="1.13589">
        <ele>117</ele>
        <time>2016-10-06T17:30:51Z</time>
      </trkpt>
      <trkpt lat="49.01406" lon="1.13574">
        <ele>117.7</ele>
        <time>2016-10-06T17:30:56Z</time>
      </trkpt>
      <trkpt lat="49.01401" lon="1.13562">
        <ele>118.2</ele>
        <time>2016-10-06T17:31:00Z</time>
      </trkpt>
      <trkpt lat="49.01398" lon="1.13549">
        <ele>118.7</ele>
        <time>2016-10-06T17:31:04Z</time>
      </trkpt>
      <trkpt lat="49.01394" lon="1.13534">
        <ele>119.2</ele>
        <time>2016-10-06T17:31:08Z</time>
      </trkpt>
      <trkpt lat="49.01389" lon="1.13519">
        <ele>119.9</ele>
        <time>2016-10-06T17:31:13Z</time>
      </trkpt>
      <trkpt lat="49.01383" lon="1.13505">
        <ele>120.4</ele>
        <time>2016-10-06T17:31:17Z</time>
      </trkpt>
      <trkpt lat="49.01379" lon="1.13491">
        <ele>120.7</ele>
        <time>2016-10-06T17:31:20Z</time>
      </trkpt>
      <trkpt lat="49.01373" lon="1.13477">
        <ele>121.1</ele>
        <time>2016-10-06T17:31:23Z</time>
      </trkpt>
      <trkpt lat="49.0137" lon="1.13463">
        <ele>121.3</ele>
        <time>2016-10-06T17:31:26Z</time>
      </trkpt>
      <trkpt lat="49.01366" lon="1.13449">
        <ele>121.6</ele>
        <time>2016-10-06T17:31:29Z</time>
      </trkpt>
      <trkpt lat="49.01359" lon="1.13432">
        <ele>121.7</ele>
        <time>2016-10-06T17:31:32Z</time>
      </trkpt>
      <trkpt lat="49.01352" lon="1.13416">
        <ele>121.9</ele>
        <time>2016-10-06T17:31:35Z</time>
      </trkpt>
      <trkpt lat="49.01346" lon="1.13399">
        <ele>122.1</ele>
        <time>2016-10-06T17:31:38Z</time>
      </trkpt>
      <trkpt lat="49.01341" lon="1.13387">
        <ele>122.2</ele>
        <time>2016-10-06T17:31:40Z</time>
      </trkpt>
      <trkpt lat="49.01336" lon="1.13368">
        <ele>122.4</ele>
        <time>2016-10-06T17:31:43Z</time>
      </trkpt>
      <trkpt lat="49.01333" lon="1.13356">
        <ele>122.5</ele>
        <time>2016-10-06T17:31:45Z</time>
      </trkpt>
      <trkpt lat="49.01327" lon="1.13337">
        <ele>122.7</ele>
        <time>2016-10-06T17:31:48Z</time>
      </trkpt>
      <trkpt lat="49.0132" lon="1.13319">
        <ele>122.9</ele>
        <time>2016-10-06T17:31:51Z</time>
      </trkpt>
      <trkpt lat="49.01315" lon="1.13305">
        <ele>123.1</ele>
        <time>2016-10-06T17:31:53Z</time>
      </trkpt>
      <trkpt lat="49.01311" lon="1.13292">
        <ele>123.2</ele>
        <time>2016-10-06T17:31:55Z</time>
      </trkpt>
      <trkpt lat="49.01305" lon="1.13277">
        <ele>123.3</ele>
        <time>2016-10-06T17:31:57Z</time>
      </trkpt>
      <trkpt lat="49.01299" lon="1.13263">
        <ele>123.4</ele>
        <time>2016-10-06T17:31:59Z</time>
      </trkpt>
      <trkpt lat="49.01294" lon="1.13249">
        <ele>123.5</ele>
        <time>2016-10-06T17:32:01Z</time>
      </trkpt>
      <trkpt lat="49.0129" lon="1.13234">
        <ele>123.6</ele>
        <time>2016-10-06T17:32:03Z</time>
      </trkpt>
      <trkpt lat="49.01286" lon="1.13221">
        <ele>123.6</ele>
        <time>2016-10-06T17:32:05Z</time>
      </trkpt>
      <trkpt lat="49.01281" lon="1.13208">
        <ele>123.6</ele>
        <time>2016-10-06T17:32:07Z</time>
      </trkpt>
      <trkpt lat="49.01278" lon="1.13195">
        <ele>123.7</ele>
        <time>2016-10-06T17:32:09Z</time>
      </trkpt>
      <trkpt lat="49.01273" lon="1.1318">
        <ele>123.7</ele>
        <time>2016-10-06T17:32:11Z</time>
      </trkpt>
      <trkpt lat="49.01268" lon="1.13164">
        <ele>123.7</ele>
        <time>2016-10-06T17:32:13Z</time>
      </trkpt>
      <trkpt lat="49.01264" lon="1.13151">
        <ele>123.7</ele>
        <time>2016-10-06T17:32:15Z</time>
      </trkpt>
      <trkpt lat="49.01258" lon="1.13135">
        <ele>123.7</ele>
        <time>2016-10-06T17:32:17Z</time>
      </trkpt>
      <trkpt lat="49.01251" lon="1.13121">
        <ele>123.8</ele>
        <time>2016-10-06T17:32:19Z</time>
      </trkpt>
      <trkpt lat="49.01244" lon="1.13108">
        <ele>123.8</ele>
        <time>2016-10-06T17:32:21Z</time>
      </trkpt>
      <trkpt lat="49.01235" lon="1.13097">
        <ele>123.8</ele>
        <time>2016-10-06T17:32:23Z</time>
      </trkpt>
      <trkpt lat="49.01226" lon="1.13085">
        <ele>123.8</ele>
        <time>2016-10-06T17:32:25Z</time>
      </trkpt>
      <trkpt lat="49.01216" lon="1.13071">
        <ele>123.8</ele>
        <time>2016-10-06T17:32:27Z</time>
      </trkpt>
      <trkpt lat="49.01209" lon="1.13057">
        <ele>123.8</ele>
        <time>2016-10-06T17:32:29Z</time>
      </trkpt>
      <trkpt lat="49.01201" lon="1.13045">
        <ele>123.8</ele>
        <time>2016-10-06T17:32:31Z</time>
      </trkpt>
      <trkpt lat="49.01195" lon="1.13034">
        <ele>123.9</ele>
        <time>2016-10-06T17:32:33Z</time>
      </trkpt>
      <trkpt lat="49.01188" lon="1.13024">
        <ele>124</ele>
        <time>2016-10-06T17:32:35Z</time>
      </trkpt>
      <trkpt lat="49.0118" lon="1.13013">
        <ele>124.2</ele>
        <time>2016-10-06T17:32:37Z</time>
      </trkpt>
      <trkpt lat="49.01172" lon="1.13003">
        <ele>124.6</ele>
        <time>2016-10-06T17:32:39Z</time>
      </trkpt>
      <trkpt lat="49.01166" lon="1.12992">
        <ele>124.9</ele>
        <time>2016-10-06T17:32:41Z</time>
      </trkpt>
      <trkpt lat="49.01158" lon="1.12982">
        <ele>125.3</ele>
        <time>2016-10-06T17:32:43Z</time>
      </trkpt>
      <trkpt lat="49.0115" lon="1.12969">
        <ele>125.9</ele>
        <time>2016-10-06T17:32:46Z</time>
      </trkpt>
      <trkpt lat="49.01143" lon="1.12958">
        <ele>126.2</ele>
        <time>2016-10-06T17:32:48Z</time>
      </trkpt>
      <trkpt lat="49.01135" lon="1.12947">
        <ele>126.6</ele>
        <time>2016-10-06T17:32:50Z</time>
      </trkpt>
      <trkpt lat="49.01129" lon="1.12937">
        <ele>127</ele>
        <time>2016-10-06T17:32:52Z</time>
      </trkpt>
      <trkpt lat="49.01122" lon="1.12927">
        <ele>127.4</ele>
        <time>2016-10-06T17:32:54Z</time>
      </trkpt>
      <trkpt lat="49.01113" lon="1.12914">
        <ele>127.8</ele>
        <time>2016-10-06T17:32:57Z</time>
      </trkpt>
      <trkpt lat="49.01104" lon="1.12904">
        <ele>128.1</ele>
        <time>2016-10-06T17:32:59Z</time>
      </trkpt>
      <trkpt lat="49.01094" lon="1.12892">
        <ele>128.4</ele>
        <time>2016-10-06T17:33:02Z</time>
      </trkpt>
      <trkpt lat="49.01086" lon="1.12879">
        <ele>128.6</ele>
        <time>2016-10-06T17:33:04Z</time>
      </trkpt>
      <trkpt lat="49.01078" lon="1.12867">
        <ele>128.8</ele>
        <time>2016-10-06T17:33:06Z</time>
      </trkpt>
      <trkpt lat="49.0107" lon="1.12859">
        <ele>128.9</ele>
        <time>2016-10-06T17:33:08Z</time>
      </trkpt>
      <trkpt lat="49.0106" lon="1.12846">
        <ele>129.2</ele>
        <time>2016-10-06T17:33:11Z</time>
      </trkpt>
      <trkpt lat="49.01054" lon="1.12835">
        <ele>129.4</ele>
        <time>2016-10-06T17:33:13Z</time>
      </trkpt>
      <trkpt lat="49.01048" lon="1.12822">
        <ele>129.5</ele>
        <time>2016-10-06T17:33:15Z</time>
      </trkpt>
      <trkpt lat="49.01041" lon="1.12811">
        <ele>129.7</ele>
        <time>2016-10-06T17:33:17Z</time>
      </trkpt>
      <trkpt lat="49.01033" lon="1.12802">
        <ele>129.8</ele>
        <time>2016-10-06T17:33:19Z</time>
      </trkpt>
      <trkpt lat="49.01026" lon="1.12792">
        <ele>129.9</ele>
        <time>2016-10-06T17:33:21Z</time>
      </trkpt>
      <trkpt lat="49.01017" lon="1.1278">
        <ele>130.1</ele>
        <time>2016-10-06T17:33:23Z</time>
      </trkpt>
      <trkpt lat="49.01008" lon="1.12771">
        <ele>130.3</ele>
        <time>2016-10-06T17:33:25Z</time>
      </trkpt>
      <trkpt lat="49.00998" lon="1.12755">
        <ele>130.6</ele>
        <time>2016-10-06T17:33:28Z</time>
      </trkpt>
      <trkpt lat="49.0099" lon="1.12742">
        <ele>130.8</ele>
        <time>2016-10-06T17:33:30Z</time>
      </trkpt>
      <trkpt lat="49.00982" lon="1.12734">
        <ele>131</ele>
        <time>2016-10-06T17:33:32Z</time>
      </trkpt>
      <trkpt lat="49.00977" lon="1.12722">
        <ele>131.1</ele>
        <time>2016-10-06T17:33:34Z</time>
      </trkpt>
      <trkpt lat="49.0097" lon="1.1271">
        <ele>131.3</ele>
        <time>2016-10-06T17:33:36Z</time>
      </trkpt>
      <trkpt lat="49.00957" lon="1.12695">
        <ele>131.6</ele>
        <time>2016-10-06T17:33:39Z</time>
      </trkpt>
      <trkpt lat="49.00948" lon="1.1268">
        <ele>131.8</ele>
        <time>2016-10-06T17:33:41Z</time>
      </trkpt>
      <trkpt lat="49.0094" lon="1.12669">
        <ele>132</ele>
        <time>2016-10-06T17:33:43Z</time>
      </trkpt>
      <trkpt lat="49.00931" lon="1.12655">
        <ele>132.3</ele>
        <time>2016-10-06T17:33:46Z</time>
      </trkpt>
      <trkpt lat="49.00923" lon="1.12643">
        <ele>132.5</ele>
        <time>2016-10-06T17:33:48Z</time>
      </trkpt>
      <trkpt lat="49.00916" lon="1.12631">
        <ele>132.7</ele>
        <time>2016-10-06T17:33:50Z</time>
      </trkpt>
      <trkpt lat="49.00908" lon="1.12619">
        <ele>132.9</ele>
        <time>2016-10-06T17:33:52Z</time>
      </trkpt>
      <trkpt lat="49.009" lon="1.12608">
        <ele>133</ele>
        <time>2016-10-06T17:33:54Z</time>
      </trkpt>
      <trkpt lat="49.00892" lon="1.12596">
        <ele>133.2</ele>
        <time>2016-10-06T17:33:56Z</time>
      </trkpt>
      <trkpt lat="49.00883" lon="1.12584">
        <ele>133.4</ele>
        <time>2016-10-06T17:33:58Z</time>
      </trkpt>
      <trkpt lat="49.00874" lon="1.1257">
        <ele>133.6</ele>
        <time>2016-10-06T17:34:00Z</time>
      </trkpt>
      <trkpt lat="49.00863" lon="1.12556">
        <ele>133.8</ele>
        <time>2016-10-06T17:34:02Z</time>
      </trkpt>
      <trkpt lat="49.00853" lon="1.12543">
        <ele>134</ele>
        <time>2016-10-06T17:34:04Z</time>
      </trkpt>
      <trkpt lat="49.00844" lon="1.1253">
        <ele>134.2</ele>
        <time>2016-10-06T17:34:06Z</time>
      </trkpt>
      <trkpt lat="49.00833" lon="1.1252">
        <ele>134.3</ele>
        <time>2016-10-06T17:34:08Z</time>
      </trkpt>
      <trkpt lat="49.00824" lon="1.1251">
        <ele>134.4</ele>
        <time>2016-10-06T17:34:10Z</time>
      </trkpt>
      <trkpt lat="49.00814" lon="1.12501">
        <ele>134.6</ele>
        <time>2016-10-06T17:34:12Z</time>
      </trkpt>
      <trkpt lat="49.00804" lon="1.1249">
        <ele>134.7</ele>
        <time>2016-10-06T17:34:14Z</time>
      </trkpt>
      <trkpt lat="49.00795" lon="1.12477">
        <ele>134.7</ele>
        <time>2016-10-06T17:34:17Z</time>
      </trkpt>
      <trkpt lat="49.00785" lon="1.12468">
        <ele>134.7</ele>
        <time>2016-10-06T17:34:19Z</time>
      </trkpt>
      <trkpt lat="49.00775" lon="1.1246">
        <ele>134.7</ele>
        <time>2016-10-06T17:34:21Z</time>
      </trkpt>
      <trkpt lat="49.00766" lon="1.12452">
        <ele>134.7</ele>
        <time>2016-10-06T17:34:23Z</time>
      </trkpt>
      <trkpt lat="49.00754" lon="1.12448">
        <ele>134.7</ele>
        <time>2016-10-06T17:34:25Z</time>
      </trkpt>
      <trkpt lat="49.0074" lon="1.12442">
        <ele>134.7</ele>
        <time>2016-10-06T17:34:27Z</time>
      </trkpt>
      <trkpt lat="49.00726" lon="1.12439">
        <ele>134.6</ele>
        <time>2016-10-06T17:34:29Z</time>
      </trkpt>
      <trkpt lat="49.00714" lon="1.12434">
        <ele>134.6</ele>
        <time>2016-10-06T17:34:31Z</time>
      </trkpt>
      <trkpt lat="49.00703" lon="1.12429">
        <ele>134.5</ele>
        <time>2016-10-06T17:34:33Z</time>
      </trkpt>
      <trkpt lat="49.00693" lon="1.12426">
        <ele>134.4</ele>
        <time>2016-10-06T17:34:35Z</time>
      </trkpt>
      <trkpt lat="49.00682" lon="1.12422">
        <ele>134.3</ele>
        <time>2016-10-06T17:34:37Z</time>
      </trkpt>
      <trkpt lat="49.00672" lon="1.12418">
        <ele>134.2</ele>
        <time>2016-10-06T17:34:39Z</time>
      </trkpt>
      <trkpt lat="49.00661" lon="1.12415">
        <ele>134.1</ele>
        <time>2016-10-06T17:34:41Z</time>
      </trkpt>
      <trkpt lat="49.0065" lon="1.12411">
        <ele>133.9</ele>
        <time>2016-10-06T17:34:43Z</time>
      </trkpt>
      <trkpt lat="49.00638" lon="1.12407">
        <ele>133.6</ele>
        <time>2016-10-06T17:34:45Z</time>
      </trkpt>
      <trkpt lat="49.00628" lon="1.12407">
        <ele>133.4</ele>
        <time>2016-10-06T17:34:47Z</time>
      </trkpt>
      <trkpt lat="49.00626" lon="1.12423">
        <ele>132.9</ele>
        <time>2016-10-06T17:34:52Z</time>
      </trkpt>
      <trkpt lat="49.0063" lon="1.12437">
        <ele>132.7</ele>
        <time>2016-10-06T17:34:55Z</time>
      </trkpt>
      <trkpt lat="49.00633" lon="1.1245">
        <ele>132.5</ele>
        <time>2016-10-06T17:34:57Z</time>
      </trkpt>
      <trkpt lat="49.00638" lon="1.12464">
        <ele>132.4</ele>
        <time>2016-10-06T17:34:59Z</time>
      </trkpt>
      <trkpt lat="49.00641" lon="1.12479">
        <ele>132.3</ele>
        <time>2016-10-06T17:35:01Z</time>
      </trkpt>
      <trkpt lat="49.00645" lon="1.12493">
        <ele>132.2</ele>
        <time>2016-10-06T17:35:04Z</time>
      </trkpt>
      <trkpt lat="49.00638" lon="1.12501">
        <ele>132.1</ele>
        <time>2016-10-06T17:35:07Z</time>
      </trkpt>
      <trkpt lat="49.0063" lon="1.12515">
        <ele>132</ele>
        <time>2016-10-06T17:35:11Z</time>
      </trkpt>
      <trkpt lat="49.00629" lon="1.12531">
        <ele>131.9</ele>
        <time>2016-10-06T17:35:14Z</time>
      </trkpt>
      <trkpt lat="49.00627" lon="1.12545">
        <ele>131.9</ele>
        <time>2016-10-06T17:35:17Z</time>
      </trkpt>
      <trkpt lat="49.00624" lon="1.12558">
        <ele>131.9</ele>
        <time>2016-10-06T17:35:19Z</time>
      </trkpt>
      <trkpt lat="49.00622" lon="1.12575">
        <ele>131.9</ele>
        <time>2016-10-06T17:35:22Z</time>
      </trkpt>
      <trkpt lat="49.00612" lon="1.12587">
        <ele>131.9</ele>
        <time>2016-10-06T17:35:26Z</time>
      </trkpt>
      <trkpt lat="49.00609" lon="1.12603">
        <ele>132</ele>
        <time>2016-10-06T17:35:30Z</time>
      </trkpt>
      <trkpt lat="49.00605" lon="1.12619">
        <ele>132</ele>
        <time>2016-10-06T17:35:34Z</time>
      </trkpt>
      <trkpt lat="49.00596" lon="1.12632">
        <ele>132.1</ele>
        <time>2016-10-06T17:35:38Z</time>
      </trkpt>
      <trkpt lat="49.00587" lon="1.12646">
        <ele>132.1</ele>
        <time>2016-10-06T17:35:41Z</time>
      </trkpt>
      <trkpt lat="49.00582" lon="1.12659">
        <ele>132.1</ele>
        <time>2016-10-06T17:35:44Z</time>
      </trkpt>
      <trkpt lat="49.00575" lon="1.12672">
        <ele>132.1</ele>
        <time>2016-10-06T17:35:47Z</time>
      </trkpt>
      <trkpt lat="49.00568" lon="1.12682">
        <ele>132</ele>
        <time>2016-10-06T17:35:49Z</time>
      </trkpt>
      <trkpt lat="49.00562" lon="1.12694">
        <ele>131.9</ele>
        <time>2016-10-06T17:35:52Z</time>
      </trkpt>
      <trkpt lat="49.00553" lon="1.12706">
        <ele>131.9</ele>
        <time>2016-10-06T17:35:56Z</time>
      </trkpt>
      <trkpt lat="49.00547" lon="1.12718">
        <ele>131.8</ele>
        <time>2016-10-06T17:35:59Z</time>
      </trkpt>
      <trkpt lat="49.00538" lon="1.12731">
        <ele>131.7</ele>
        <time>2016-10-06T17:36:03Z</time>
      </trkpt>
      <trkpt lat="49.00531" lon="1.12745">
        <ele>131.7</ele>
        <time>2016-10-06T17:36:07Z</time>
      </trkpt>
      <trkpt lat="49.00528" lon="1.12758">
        <ele>131.7</ele>
        <time>2016-10-06T17:36:10Z</time>
      </trkpt>
      <trkpt lat="49.00519" lon="1.12771">
        <ele>131.7</ele>
        <time>2016-10-06T17:36:13Z</time>
      </trkpt>
      <trkpt lat="49.00518" lon="1.12786">
        <ele>131.6</ele>
        <time>2016-10-06T17:36:16Z</time>
      </trkpt>
      <trkpt lat="49.00519" lon="1.12803">
        <ele>131.6</ele>
        <time>2016-10-06T17:36:19Z</time>
      </trkpt>
      <trkpt lat="49.00514" lon="1.12817">
        <ele>131.6</ele>
        <time>2016-10-06T17:36:23Z</time>
      </trkpt>
      <trkpt lat="49.00505" lon="1.12826">
        <ele>131.6</ele>
        <time>2016-10-06T17:36:25Z</time>
      </trkpt>
      <trkpt lat="49.00496" lon="1.12832">
        <ele>131.5</ele>
        <time>2016-10-06T17:36:27Z</time>
      </trkpt>
      <trkpt lat="49.00487" lon="1.12837">
        <ele>131.5</ele>
        <time>2016-10-06T17:36:29Z</time>
      </trkpt>
      <trkpt lat="49.00477" lon="1.12844">
        <ele>131.5</ele>
        <time>2016-10-06T17:36:31Z</time>
      </trkpt>
      <trkpt lat="49.00466" lon="1.1285">
        <ele>131.5</ele>
        <time>2016-10-06T17:36:33Z</time>
      </trkpt>
      <trkpt lat="49.00455" lon="1.12849">
        <ele>131.5</ele>
        <time>2016-10-06T17:36:36Z</time>
      </trkpt>
      <trkpt lat="49.00445" lon="1.12851">
        <ele>131.5</ele>
        <time>2016-10-06T17:36:38Z</time>
      </trkpt>
      <trkpt lat="49.00435" lon="1.12852">
        <ele>131.4</ele>
        <time>2016-10-06T17:36:40Z</time>
      </trkpt>
      <trkpt lat="49.00422" lon="1.12853">
        <ele>131.4</ele>
        <time>2016-10-06T17:36:42Z</time>
      </trkpt>
      <trkpt lat="49.00412" lon="1.12854">
        <ele>131.3</ele>
        <time>2016-10-06T17:36:44Z</time>
      </trkpt>
      <trkpt lat="49.004" lon="1.12853">
        <ele>131.3</ele>
        <time>2016-10-06T17:36:46Z</time>
      </trkpt>
      <trkpt lat="49.0039" lon="1.12852">
        <ele>131.3</ele>
        <time>2016-10-06T17:36:48Z</time>
      </trkpt>
      <trkpt lat="49.0038" lon="1.12851">
        <ele>131.2</ele>
        <time>2016-10-06T17:36:50Z</time>
      </trkpt>
      <trkpt lat="49.00368" lon="1.12852">
        <ele>131.2</ele>
        <time>2016-10-06T17:36:52Z</time>
      </trkpt>
      <trkpt lat="49.00359" lon="1.12851">
        <ele>131.3</ele>
        <time>2016-10-06T17:36:54Z</time>
      </trkpt>
      <trkpt lat="49.00349" lon="1.12847">
        <ele>131.2</ele>
        <time>2016-10-06T17:36:57Z</time>
      </trkpt>
      <trkpt lat="49.00338" lon="1.12847">
        <ele>131.2</ele>
        <time>2016-10-06T17:36:59Z</time>
      </trkpt>
      <trkpt lat="49.00328" lon="1.12847">
        <ele>131.3</ele>
        <time>2016-10-06T17:37:01Z</time>
      </trkpt>
      <trkpt lat="49.00318" lon="1.12847">
        <ele>131.4</ele>
        <time>2016-10-06T17:37:03Z</time>
      </trkpt>
      <trkpt lat="49.00308" lon="1.12847">
        <ele>131.6</ele>
        <time>2016-10-06T17:37:05Z</time>
      </trkpt>
      <trkpt lat="49.00299" lon="1.12846">
        <ele>131.7</ele>
        <time>2016-10-06T17:37:07Z</time>
      </trkpt>
      <trkpt lat="49.0029" lon="1.12846">
        <ele>131.9</ele>
        <time>2016-10-06T17:37:09Z</time>
      </trkpt>
      <trkpt lat="49.00276" lon="1.12847">
        <ele>132.1</ele>
        <time>2016-10-06T17:37:12Z</time>
      </trkpt>
      <trkpt lat="49.00266" lon="1.12846">
        <ele>132.3</ele>
        <time>2016-10-06T17:37:14Z</time>
      </trkpt>
      <trkpt lat="49.00257" lon="1.12845">
        <ele>132.5</ele>
        <time>2016-10-06T17:37:16Z</time>
      </trkpt>
      <trkpt lat="49.00246" lon="1.12847">
        <ele>132.9</ele>
        <time>2016-10-06T17:37:19Z</time>
      </trkpt>
      <trkpt lat="49.00244" lon="1.12861">
        <ele>133.3</ele>
        <time>2016-10-06T17:37:22Z</time>
      </trkpt>
      <trkpt lat="49.00248" lon="1.12875">
        <ele>133.7</ele>
        <time>2016-10-06T17:37:25Z</time>
      </trkpt>
      <trkpt lat="49.00252" lon="1.12891">
        <ele>134.1</ele>
        <time>2016-10-06T17:37:28Z</time>
      </trkpt>
      <trkpt lat="49.00256" lon="1.12908">
        <ele>134.4</ele>
        <time>2016-10-06T17:37:31Z</time>
      </trkpt>
      <trkpt lat="49.0026" lon="1.12925">
        <ele>134.6</ele>
        <time>2016-10-06T17:37:34Z</time>
      </trkpt>
      <trkpt lat="49.00264" lon="1.12942">
        <ele>134.8</ele>
        <time>2016-10-06T17:37:37Z</time>
      </trkpt>
      <trkpt lat="49.00269" lon="1.1296">
        <ele>134.9</ele>
        <time>2016-10-06T17:37:40Z</time>
      </trkpt>
      <trkpt lat="49.00275" lon="1.12977">
        <ele>135.1</ele>
        <time>2016-10-06T17:37:43Z</time>
      </trkpt>
      <trkpt lat="49.00281" lon="1.12994">
        <ele>135.2</ele>
        <time>2016-10-06T17:37:46Z</time>
      </trkpt>
      <trkpt lat="49.00282" lon="1.13008">
        <ele>135.2</ele>
        <time>2016-10-06T17:37:48Z</time>
      </trkpt>
      <trkpt lat="49.00281" lon="1.13025">
        <ele>135.3</ele>
        <time>2016-10-06T17:37:51Z</time>
      </trkpt>
      <trkpt lat="49.00271" lon="1.13035">
        <ele>135.4</ele>
        <time>2016-10-06T17:37:54Z</time>
      </trkpt>
      <trkpt lat="49.0026" lon="1.13039">
        <ele>135.5</ele>
        <time>2016-10-06T17:37:57Z</time>
      </trkpt>
      <trkpt lat="49.0025" lon="1.1304">
        <ele>135.6</ele>
        <time>2016-10-06T17:38:00Z</time>
      </trkpt>
      <trkpt lat="49.0024" lon="1.13036">
        <ele>135.8</ele>
        <time>2016-10-06T17:38:04Z</time>
      </trkpt>
      <trkpt lat="49.0023" lon="1.13028">
        <ele>136.1</ele>
        <time>2016-10-06T17:38:09Z</time>
      </trkpt>
      <trkpt lat="49.00221" lon="1.13023">
        <ele>136.3</ele>
        <time>2016-10-06T17:38:13Z</time>
      </trkpt>
      <trkpt lat="49.00216" lon="1.13011">
        <ele>136.6</ele>
        <time>2016-10-06T17:38:18Z</time>
      </trkpt>
      <trkpt lat="49.00211" lon="1.13">
        <ele>136.9</ele>
        <time>2016-10-06T17:38:25Z</time>
      </trkpt>
      <trkpt lat="49.00211" lon="1.13">
        <ele>137.5</ele>
        <time>2016-10-06T17:38:45Z</time>
      </trkpt>
    </trkseg>
  </trk>
</gpx>